Wetterdaten: Donnerstag, 14.12.2017
Datum Zeit Temp. A. Pool Temp. Feuchte A. Luftdruck Regen Wind Richtung Richtung Sonnenschein ET UV Solar Taupunkt Windchill Windben Empfang
14.12.2017 00:00 -1,2 C 3,9 C 92 % 1002,8 hPa 0,0 l/m 0,1 km/h (0 Bft) SO 131 0 min 0,000 mm 0,0 UV-I 0 W/m -2,3 C -1,2 C 1,6 km/h (1 Bft) 100,00 %
14.12.2017 00:02 -1,1 C 3,9 C 92 % 1002,7 hPa 0,0 l/m 0,0 km/h (0 Bft) SO 131 0 min 0,000 mm 0,0 UV-I 0 W/m -2,2 C -1,1 C 0,0 km/h (0 Bft) 100,00 %
14.12.2017 00:04 -1,1 C 3,9 C 92 % 1002,7 hPa 0,0 l/m 0,1 km/h (0 Bft) SO 131 0 min 0,000 mm 0,0 UV-I 0 W/m -2,2 C -1,1 C 1,6 km/h (1 Bft) 100,00 %
14.12.2017 00:06 -1,1 C 3,9 C 92 % 1002,7 hPa 0,0 l/m 0,0 km/h (0 Bft) SO 131 0 min 0,000 mm 0,0 UV-I 0 W/m -2,2 C -1,1 C 0,0 km/h (0 Bft) 94,00 %
14.12.2017 00:08 -0,9 C 3,9 C 92 % 1002,5 hPa 0,0 l/m 1,2 km/h (1 Bft) SO 131 0 min 0,000 mm 0,0 UV-I 0 W/m -2,0 C -0,9 C 3,2 km/h (1 Bft) 97,92 %
14.12.2017 00:10 -0,9 C 3,9 C 91 % 1002,4 hPa 0,0 l/m 4,3 km/h (1 Bft) SO 131 0 min 0,000 mm 0,0 UV-I 0 W/m -2,2 C -0,9 C 4,8 km/h (1 Bft) 98,00 %
14.12.2017 00:12 -0,9 C 3,9 C 91 % 1002,4 hPa 0,0 l/m 3,8 km/h (1 Bft) SO 131 0 min 0,000 mm 0,0 UV-I 0 W/m -2,2 C -0,9 C 4,8 km/h (1 Bft) 100,00 %
14.12.2017 00:14 -0,8 C 3,9 C 91 % 1002,4 hPa 0,0 l/m 0,7 km/h (0 Bft) SO 131 0 min 0,000 mm 0,0 UV-I 0 W/m -2,1 C -0,8 C 1,6 km/h (1 Bft) 100,00 %
14.12.2017 00:16 -0,8 C 3,9 C 92 % 1002,3 hPa 0,0 l/m 1,6 km/h (1 Bft) O-SO 123 0 min 0,000 mm 0,0 UV-I 0 W/m -1,9 C -0,8 C 3,2 km/h (1 Bft) 100,00 %
14.12.2017 00:18 -0,9 C 3,9 C 92 % 1002,1 hPa 0,0 l/m 6,1 km/h (2 Bft) O 80 0 min 0,000 mm 0,0 UV-I 0 W/m -2,0 C -0,9 C 8,0 km/h (2 Bft) 100,00 %
14.12.2017 00:20 -1,1 C 3,9 C 92 % 1002,0 hPa 0,0 l/m 8,3 km/h (2 Bft) O 96 0 min 0,000 mm 0,0 UV-I 0 W/m -2,2 C -3,1 C 12,9 km/h (3 Bft) 95,74 %
14.12.2017 00:22 -1,1 C 3,9 C 92 % 1001,9 hPa 0,0 l/m 6,1 km/h (2 Bft) O-NO 59 0 min 0,000 mm 0,0 UV-I 0 W/m -2,2 C -1,1 C 11,3 km/h (2 Bft) 97,44 %
14.12.2017 00:24 -1,1 C 3,9 C 92 % 1001,9 hPa 0,0 l/m 4,0 km/h (1 Bft) O-NO 73 0 min 0,000 mm 0,0 UV-I 0 W/m -2,2 C -1,1 C 8,0 km/h (2 Bft) 97,87 %
14.12.2017 00:26 -1,1 C 3,9 C 93 % 1001,8 hPa 0,0 l/m 4,0 km/h (1 Bft) O-NO 69 0 min 0,000 mm 0,0 UV-I 0 W/m -2,1 C -1,1 C 6,4 km/h (2 Bft) 98,00 %
14.12.2017 00:28 -1,1 C 3,9 C 92 % 1001,8 hPa 0,0 l/m 4,4 km/h (1 Bft) O-NO 78 0 min 0,000 mm 0,0 UV-I 0 W/m -2,2 C -1,1 C 8,0 km/h (2 Bft) 98,00 %
14.12.2017 00:30 -1,1 C 3,9 C 92 % 1001,8 hPa 0,0 l/m 0,6 km/h (0 Bft) O-NO 78 0 min 0,000 mm 0,0 UV-I 0 W/m -2,2 C -1,1 C 3,2 km/h (1 Bft) 95,74 %
14.12.2017 00:32 -1,1 C 3,9 C 92 % 1001,7 hPa 0,0 l/m 0,6 km/h (0 Bft) O-NO 78 0 min 0,000 mm 0,0 UV-I 0 W/m -2,2 C -1,1 C 1,6 km/h (1 Bft) 97,87 %
14.12.2017 00:34 -1,1 C 3,9 C 92 % 1001,6 hPa 0,0 l/m 1,7 km/h (1 Bft) O-NO 78 0 min 0,000 mm 0,0 UV-I 0 W/m -2,2 C -1,1 C 4,8 km/h (1 Bft) 97,87 %
14.12.2017 00:36 -1,1 C 3,9 C 91 % 1001,6 hPa 0,0 l/m 3,1 km/h (1 Bft) O-NO 77 0 min 0,000 mm 0,0 UV-I 0 W/m -2,4 C -1,1 C 4,8 km/h (1 Bft) 97,87 %
14.12.2017 00:38 -1,1 C 3,9 C 92 % 1001,4 hPa 0,0 l/m 2,5 km/h (1 Bft) O-NO 77 0 min 0,000 mm 0,0 UV-I 0 W/m -2,2 C -1,1 C 4,8 km/h (1 Bft) 97,87 %
14.12.2017 00:40 -1,1 C 3,9 C 91 % 1001,3 hPa 0,0 l/m 2,0 km/h (1 Bft) O-NO 78 0 min 0,000 mm 0,0 UV-I 0 W/m -2,4 C -1,1 C 4,8 km/h (1 Bft) 93,62 %
14.12.2017 00:42 -1,2 C 3,9 C 91 % 1001,3 hPa 0,0 l/m 2,5 km/h (1 Bft) O-NO 77 0 min 0,000 mm 0,0 UV-I 0 W/m -2,5 C -1,2 C 4,8 km/h (1 Bft) 97,87 %
14.12.2017 00:44 -1,1 C 3,9 C 91 % 1001,2 hPa 0,0 l/m 4,8 km/h (1 Bft) O 95 0 min 0,000 mm 0,0 UV-I 0 W/m -2,4 C -1,1 C 6,4 km/h (2 Bft) 95,74 %
14.12.2017 00:46 -1,1 C 3,9 C 91 % 1001,3 hPa 0,0 l/m 3,1 km/h (1 Bft) O 96 0 min 0,000 mm 0,0 UV-I 0 W/m -2,4 C -1,1 C 4,8 km/h (1 Bft) 95,74 %
14.12.2017 00:48 -1,2 C 3,9 C 91 % 1001,2 hPa 0,0 l/m 0,6 km/h (0 Bft) O 96 0 min 0,000 mm 0,0 UV-I 0 W/m -2,5 C -1,2 C 3,2 km/h (1 Bft) 95,74 %
14.12.2017 00:50 -1,2 C 3,9 C 91 % 1001,2 hPa 0,0 l/m 1,3 km/h (1 Bft) O 95 0 min 0,000 mm 0,0 UV-I 0 W/m -2,5 C -1,2 C 3,2 km/h (1 Bft) 97,87 %
14.12.2017 00:52 -1,3 C 3,9 C 92 % 1001,1 hPa 0,0 l/m 1,3 km/h (1 Bft) O 96 0 min 0,000 mm 0,0 UV-I 0 W/m -2,4 C -1,3 C 4,8 km/h (1 Bft) 97,87 %
14.12.2017 00:54 -1,3 C 3,9 C 92 % 1001,2 hPa 0,0 l/m 2,5 km/h (1 Bft) SO 126 0 min 0,000 mm 0,0 UV-I 0 W/m -2,4 C -1,3 C 4,8 km/h (1 Bft) 97,14 %
14.12.2017 00:56 -1,3 C 3,9 C 92 % 1001,1 hPa 0,0 l/m 1,9 km/h (1 Bft) SO 126 0 min 0,000 mm 0,0 UV-I 0 W/m -2,4 C -1,3 C 3,2 km/h (1 Bft) 100,00 %
14.12.2017 00:58 -1,4 C 3,9 C 92 % 1001,0 hPa 0,0 l/m 1,4 km/h (1 Bft) SO 126 0 min 0,000 mm 0,0 UV-I 0 W/m -2,5 C -1,4 C 3,2 km/h (1 Bft) 95,74 %
14.12.2017 01:00 -1,4 C 3,9 C 92 % 1000,9 hPa 0,0 l/m 0,5 km/h (0 Bft) SO 126 0 min 0,000 mm 0,0 UV-I 0 W/m -2,5 C -1,4 C 1,6 km/h (1 Bft) 97,87 %
14.12.2017 01:02 -1,3 C 3,9 C 93 % 1001,0 hPa 0,0 l/m 0,9 km/h (0 Bft) SO 126 0 min 0,000 mm 0,0 UV-I 0 W/m -2,3 C -1,3 C 3,2 km/h (1 Bft) 100,00 %
14.12.2017 01:04 -1,3 C 3,9 C 93 % 1001,2 hPa 0,0 l/m 0,0 km/h (0 Bft) SO 126 0 min 0,000 mm 0,0 UV-I 0 W/m -2,3 C -1,3 C 0,0 km/h (0 Bft) 98,00 %
14.12.2017 01:06 -1,4 C 3,9 C 93 % 1001,2 hPa 0,0 l/m 0,8 km/h (0 Bft) SO 126 0 min 0,000 mm 0,0 UV-I 0 W/m -2,4 C -1,4 C 3,2 km/h (1 Bft) 97,87 %
14.12.2017 01:08 -1,4 C 3,9 C 93 % 1001,0 hPa 0,0 l/m 1,0 km/h (0 Bft) SO 126 0 min 0,000 mm 0,0 UV-I 0 W/m -2,4 C -1,4 C 1,6 km/h (1 Bft) 97,87 %
14.12.2017 01:10 -1,5 C 3,9 C 93 % 1000,8 hPa 0,0 l/m 0,0 km/h (0 Bft) SO 126 0 min 0,000 mm 0,0 UV-I 0 W/m -2,5 C -1,5 C 0,0 km/h (0 Bft) 97,87 %
14.12.2017 01:12 -1,5 C 3,9 C 93 % 1000,8 hPa 0,0 l/m 0,0 km/h (0 Bft) SO 126 0 min 0,000 mm 0,0 UV-I 0 W/m -2,5 C -1,5 C 0,0 km/h (0 Bft) 97,87 %
14.12.2017 01:14 -1,4 C 3,9 C 93 % 1000,8 hPa 0,0 l/m 0,0 km/h (0 Bft) SO 126 0 min 0,000 mm 0,0 UV-I 0 W/m -2,4 C -1,4 C 0,0 km/h (0 Bft) 97,87 %
14.12.2017 01:16 -1,3 C 3,9 C 93 % 1000,7 hPa 0,0 l/m 0,1 km/h (0 Bft) SO 126 0 min 0,000 mm 0,0 UV-I 0 W/m -2,3 C -1,3 C 1,6 km/h (1 Bft) 97,92 %
14.12.2017 01:18 -1,3 C 3,9 C 93 % 1000,6 hPa 0,0 l/m 0,0 km/h (0 Bft) SO 126 0 min 0,000 mm 0,0 UV-I 0 W/m -2,3 C -1,3 C 0,0 km/h (0 Bft) 100,00 %
14.12.2017 01:20 -1,4 C 3,9 C 93 % 1000,6 hPa 0,0 l/m 0,5 km/h (0 Bft) SO 126 0 min 0,000 mm 0,0 UV-I 0 W/m -2,4 C -1,4 C 3,2 km/h (1 Bft) 97,87 %
14.12.2017 01:22 -1,3 C 3,9 C 93 % 1000,6 hPa 0,0 l/m 2,6 km/h (1 Bft) SO 126 0 min 0,000 mm 0,0 UV-I 0 W/m -2,3 C -1,3 C 3,2 km/h (1 Bft) 97,87 %
14.12.2017 01:24 -1,4 C 3,9 C 93 % 1000,7 hPa 0,0 l/m 0,9 km/h (0 Bft) SO 126 0 min 0,000 mm 0,0 UV-I 0 W/m -2,4 C -1,4 C 3,2 km/h (1 Bft) 95,74 %
14.12.2017 01:26 -1,3 C 3,9 C 93 % 1000,8 hPa 0,0 l/m 0,6 km/h (0 Bft) SO 126 0 min 0,000 mm 0,0 UV-I 0 W/m -2,3 C -1,3 C 3,2 km/h (1 Bft) 97,87 %
14.12.2017 01:28 -1,3 C 3,9 C 93 % 1000,8 hPa 0,0 l/m 1,0 km/h (0 Bft) SO 126 0 min 0,000 mm 0,0 UV-I 0 W/m -2,3 C -1,3 C 1,6 km/h (1 Bft) 97,87 %
14.12.2017 01:30 -1,3 C 3,9 C 93 % 1000,7 hPa 0,0 l/m 0,0 km/h (0 Bft) SO 126 0 min 0,000 mm 0,0 UV-I 0 W/m -2,3 C -1,3 C 1,6 km/h (1 Bft) 95,74 %
14.12.2017 01:32 -1,3 C 3,9 C 94 % 1000,8 hPa 0,0 l/m 0,0 km/h (0 Bft) SO 126 0 min 0,000 mm 0,0 UV-I 0 W/m -2,1 C -1,3 C 0,0 km/h (0 Bft) 97,87 %
14.12.2017 01:34 -1,3 C 3,9 C 94 % 1000,8 hPa 0,0 l/m 2,2 km/h (1 Bft) SO 126 0 min 0,000 mm 0,0 UV-I 0 W/m -2,1 C -1,3 C 3,2 km/h (1 Bft) 97,22 %
14.12.2017 01:36 -1,3 C 3,9 C 94 % 1000,8 hPa 0,0 l/m 1,2 km/h (1 Bft) SO 126 0 min 0,000 mm 0,0 UV-I 0 W/m -2,1 C -1,3 C 3,2 km/h (1 Bft) 97,96 %
14.12.2017 01:38 -1,3 C 3,9 C 94 % 1000,8 hPa 0,0 l/m 0,6 km/h (0 Bft) SO 126 0 min 0,000 mm 0,0 UV-I 0 W/m -2,1 C -1,3 C 1,6 km/h (1 Bft) 94,34 %
14.12.2017 01:40 -1,4 C 3,9 C 94 % 1000,9 hPa 0,0 l/m 1,9 km/h (1 Bft) SO 126 0 min 0,000 mm 0,0 UV-I 0 W/m -2,2 C -1,4 C 3,2 km/h (1 Bft) 100,00 %
14.12.2017 01:42 -1,3 C 3,9 C 94 % 1000,8 hPa 0,0 l/m 1,3 km/h (1 Bft) SO 126 0 min 0,000 mm 0,0 UV-I 0 W/m -2,1 C -1,3 C 3,2 km/h (1 Bft) 96,00 %
14.12.2017 01:44 -1,3 C 3,9 C 94 % 1000,9 hPa 0,0 l/m 2,1 km/h (1 Bft) W 272 0 min 0,000 mm 0,0 UV-I 0 W/m -2,1 C -1,3 C 6,4 km/h (2 Bft) 96,00 %
14.12.2017 01:46 -1,3 C 3,9 C 94 % 1001,0 hPa 0,0 l/m 4,1 km/h (1 Bft) W-NW 284 0 min 0,000 mm 0,0 UV-I 0 W/m -2,1 C -1,3 C 6,4 km/h (2 Bft) 97,87 %
14.12.2017 01:48 -1,3 C 3,9 C 94 % 1001,3 hPa 0,0 l/m 1,8 km/h (1 Bft) W 276 0 min 0,000 mm 0,0 UV-I 0 W/m -2,1 C -1,3 C 4,8 km/h (1 Bft) 97,87 %
14.12.2017 01:50 -1,3 C 3,9 C 94 % 1001,5 hPa 0,0 l/m 6,6 km/h (2 Bft) SW 232 0 min 0,000 mm 0,0 UV-I 0 W/m -2,1 C -1,5 C 9,7 km/h (2 Bft) 98,11 %
14.12.2017 01:52 -1,3 C 3,9 C 94 % 1001,4 hPa 0,0 l/m 4,5 km/h (1 Bft) W-SW 242 0 min 0,000 mm 0,0 UV-I 0 W/m -2,1 C -1,3 C 8,0 km/h (2 Bft) 97,14 %
14.12.2017 01:54 -1,2 C 3,9 C 94 % 1001,3 hPa 0,0 l/m 1,2 km/h (1 Bft) W-SW 242 0 min 0,000 mm 0,0 UV-I 0 W/m -2,0 C -1,2 C 3,2 km/h (1 Bft) 98,21 %
14.12.2017 01:56 -1,2 C 3,9 C 93 % 1001,6 hPa 0,0 l/m 5,6 km/h (1 Bft) W-SW 248 0 min 0,000 mm 0,0 UV-I 0 W/m -2,2 C -1,2 C 8,0 km/h (2 Bft) 96,00 %
14.12.2017 01:58 -1,2 C 3,9 C 93 % 1001,6 hPa 0,0 l/m 4,2 km/h (1 Bft) W-SW 249 0 min 0,000 mm 0,0 UV-I 0 W/m -2,2 C -1,2 C 6,4 km/h (2 Bft) 95,74 %
14.12.2017 02:00 -1,1 C 3,9 C 93 % 1001,5 hPa 0,0 l/m 4,7 km/h (1 Bft) W-NW 300 0 min 0,000 mm 0,0 UV-I 0 W/m -2,1 C -1,1 C 8,0 km/h (2 Bft) 100,00 %
14.12.2017 02:02 -1,1 C 3,9 C 94 % 1001,4 hPa 0,0 l/m 4,1 km/h (1 Bft) N-NO 29 0 min 0,000 mm 0,0 UV-I 0 W/m -1,9 C -1,1 C 6,4 km/h (2 Bft) 93,62 %
14.12.2017 02:04 -1,0 C 3,9 C 93 % 1001,4 hPa 0,0 l/m 4,2 km/h (1 Bft) W 265 0 min 0,000 mm 0,0 UV-I 0 W/m -2,0 C -1,0 C 9,7 km/h (2 Bft) 98,00 %
14.12.2017 02:06 -0,9 C 3,9 C 93 % 1001,3 hPa 0,0 l/m 4,5 km/h (1 Bft) NO 47 0 min 0,000 mm 0,0 UV-I 0 W/m -1,9 C -0,9 C 9,7 km/h (2 Bft) 93,62 %
14.12.2017 02:08 -0,9 C 3,9 C 93 % 1001,0 hPa 0,0 l/m 11,4 km/h (2 Bft) O 89 0 min 0,000 mm 0,0 UV-I 0 W/m -1,9 C -5,6 C 14,5 km/h (3 Bft) 95,74 %
14.12.2017 02:10 -0,9 C 3,9 C 93 % 1000,7 hPa 0,0 l/m 12,7 km/h (3 Bft) O-NO 68 0 min 0,000 mm 0,0 UV-I 0 W/m -1,9 C -6,5 C 16,1 km/h (3 Bft) 93,62 %
14.12.2017 02:12 -0,9 C 3,9 C 93 % 1000,7 hPa 0,0 l/m 7,1 km/h (2 Bft) NO 40 0 min 0,000 mm 0,0 UV-I 0 W/m -1,9 C -1,6 C 14,5 km/h (3 Bft) 97,87 %
14.12.2017 02:14 -0,9 C 3,9 C 92 % 1001,0 hPa 0,0 l/m 4,5 km/h (1 Bft) SW 236 0 min 0,000 mm 0,0 UV-I 0 W/m -2,0 C -0,9 C 8,0 km/h (2 Bft) 97,96 %
14.12.2017 02:16 -0,8 C 3,9 C 92 % 1001,0 hPa 0,0 l/m 5,9 km/h (2 Bft) W 259 0 min 0,000 mm 0,0 UV-I 0 W/m -1,9 C -0,8 C 8,0 km/h (2 Bft) 97,87 %
14.12.2017 02:18 -0,8 C 3,9 C 92 % 1000,9 hPa 0,0 l/m 3,9 km/h (1 Bft) W 265 0 min 0,000 mm 0,0 UV-I 0 W/m -1,9 C -0,8 C 6,4 km/h (2 Bft) 97,87 %
14.12.2017 02:20 -0,9 C 3,9 C 92 % 1000,4 hPa 0,0 l/m 7,0 km/h (2 Bft) N-NO 19 0 min 0,000 mm 0,0 UV-I 0 W/m -2,0 C -1,5 C 14,5 km/h (3 Bft) 95,74 %
14.12.2017 02:22 -0,8 C 3,9 C 93 % 1000,3 hPa 0,0 l/m 4,9 km/h (1 Bft) N-NO 14 0 min 0,000 mm 0,0 UV-I 0 W/m -1,8 C -0,8 C 11,3 km/h (2 Bft) 97,87 %
14.12.2017 02:24 -0,8 C 3,9 C 93 % 1000,2 hPa 0,0 l/m 2,1 km/h (1 Bft) N-NO 16 0 min 0,000 mm 0,0 UV-I 0 W/m -1,8 C -0,8 C 3,2 km/h (1 Bft) 97,44 %
14.12.2017 02:26 -0,8 C 3,9 C 93 % 1000,1 hPa 0,0 l/m 3,7 km/h (1 Bft) NW 313 0 min 0,000 mm 0,0 UV-I 0 W/m -1,8 C -0,8 C 6,4 km/h (2 Bft) 95,74 %
14.12.2017 02:29 -0,8 C 3,9 C 93 % 1000,1 hPa 0,0 l/m 1,6 km/h (1 Bft) NW 313 0 min 0,000 mm 0,0 UV-I 0 W/m -1,8 C -0,8 C 4,8 km/h (1 Bft) 93,15 %
14.12.2017 02:30 -0,8 C 3,9 C 93 % 1000,1 hPa 0,0 l/m 1,0 km/h (0 Bft) NW 317 0 min 0,000 mm 0,0 UV-I 0 W/m -1,8 C -0,8 C 1,6 km/h (1 Bft) 100,00 %
14.12.2017 02:32 -0,7 C 3,9 C 93 % 1000,1 hPa 0,0 l/m 1,0 km/h (0 Bft) N-NW 328 0 min 0,000 mm 0,0 UV-I 0 W/m -1,7 C -0,7 C 3,2 km/h (1 Bft) 91,67 %
14.12.2017 02:34 -0,7 C 3,9 C 93 % 1000,2 hPa 0,0 l/m 2,9 km/h (1 Bft) N 9 0 min 0,000 mm 0,0 UV-I 0 W/m -1,7 C -0,7 C 8,0 km/h (2 Bft) 97,87 %
14.12.2017 02:36 -0,7 C 3,9 C 93 % 1000,6 hPa 0,0 l/m 1,9 km/h (1 Bft) W 279 0 min 0,000 mm 0,0 UV-I 0 W/m -1,7 C -0,7 C 4,8 km/h (1 Bft) 95,74 %
14.12.2017 02:39 -0,7 C 3,9 C 92 % 1000,8 hPa 0,0 l/m 3,9 km/h (1 Bft) W 260 0 min 0,000 mm 0,0 UV-I 0 W/m -1,8 C -0,7 C 9,7 km/h (2 Bft) 97,14 %
14.12.2017 02:40 -0,7 C 3,9 C 92 % 1000,8 hPa 0,0 l/m 0,1 km/h (0 Bft) W 260 0 min 0,000 mm 0,0 UV-I 0 W/m -1,8 C -0,7 C 1,6 km/h (1 Bft) 95,83 %
14.12.2017 02:42 -0,7 C 3,9 C 92 % 1000,7 hPa 0,0 l/m 1,6 km/h (1 Bft) W 263 0 min 0,000 mm 0,0 UV-I 0 W/m -1,8 C -0,7 C 4,8 km/h (1 Bft) 97,87 %
14.12.2017 02:44 -0,7 C 3,9 C 92 % 1000,4 hPa 0,0 l/m 3,2 km/h (1 Bft) N 9 0 min 0,000 mm 0,0 UV-I 0 W/m -1,8 C -0,7 C 4,8 km/h (1 Bft) 95,74 %
14.12.2017 02:46 -0,6 C 3,9 C 92 % 1000,5 hPa 0,0 l/m 0,6 km/h (0 Bft) N-NO 12 0 min 0,000 mm 0,0 UV-I 0 W/m -1,7 C -0,6 C 1,6 km/h (1 Bft) 97,87 %
14.12.2017 02:48 -0,6 C 3,9 C 92 % 1000,5 hPa 0,0 l/m 0,0 km/h (0 Bft) N-NO 12 0 min 0,000 mm 0,0 UV-I 0 W/m -1,7 C -0,6 C 1,6 km/h (1 Bft) 95,74 %
14.12.2017 02:50 -0,6 C 3,9 C 92 % 1000,5 hPa 0,0 l/m 0,0 km/h (0 Bft) N 11 0 min 0,000 mm 0,0 UV-I 0 W/m -1,7 C -0,6 C 0,0 km/h (0 Bft) 97,87 %
14.12.2017 02:52 -0,6 C 3,9 C 92 % 1000,4 hPa 0,0 l/m 0,7 km/h (0 Bft) N-NO 12 0 min 0,000 mm 0,0 UV-I 0 W/m -1,7 C -0,6 C 3,2 km/h (1 Bft) 97,92 %
14.12.2017 02:54 -0,6 C 3,9 C 92 % 1000,4 hPa 0,0 l/m 0,6 km/h (0 Bft) O-SO 122 0 min 0,000 mm 0,0 UV-I 0 W/m -1,7 C -0,6 C 3,2 km/h (1 Bft) 97,87 %
14.12.2017 02:56 -0,6 C 3,9 C 92 % 1000,4 hPa 0,0 l/m 2,5 km/h (1 Bft) S-SO 164 0 min 0,000 mm 0,0 UV-I 0 W/m -1,7 C -0,6 C 6,4 km/h (2 Bft) 95,74 %
14.12.2017 02:58 -0,6 C 3,9 C 92 % 1000,5 hPa 0,0 l/m 5,0 km/h (1 Bft) S-SO 165 0 min 0,000 mm 0,0 UV-I 0 W/m -1,7 C -0,6 C 6,4 km/h (2 Bft) 97,44 %
14.12.2017 03:00 -0,6 C 3,9 C 92 % 1000,4 hPa 0,0 l/m 5,5 km/h (1 Bft) SO 146 0 min 0,000 mm 0,0 UV-I 0 W/m -1,7 C -0,6 C 9,7 km/h (2 Bft) 97,87 %
14.12.2017 03:02 -0,6 C 3,9 C 92 % 1000,6 hPa 0,0 l/m 3,6 km/h (1 Bft) S-SO 155 0 min 0,000 mm 0,0 UV-I 0 W/m -1,7 C -0,6 C 6,4 km/h (2 Bft) 100,00 %
14.12.2017 03:04 -0,6 C 3,9 C 92 % 1000,3 hPa 0,0 l/m 3,4 km/h (1 Bft) O-SO 109 0 min 0,000 mm 0,0 UV-I 0 W/m -1,7 C -0,6 C 9,7 km/h (2 Bft) 100,00 %
14.12.2017 03:06 -0,6 C 3,9 C 92 % 1000,3 hPa 0,0 l/m 8,1 km/h (2 Bft) O-NO 69 0 min 0,000 mm 0,0 UV-I 0 W/m -1,7 C -2,4 C 11,3 km/h (2 Bft) 95,74 %
14.12.2017 03:08 -0,6 C 3,9 C 91 % 1000,6 hPa 0,0 l/m 3,4 km/h (1 Bft) W-SW 249 0 min 0,000 mm 0,0 UV-I 0 W/m -1,9 C -0,6 C 4,8 km/h (1 Bft) 100,00 %
14.12.2017 03:10 -0,6 C 3,9 C 91 % 1000,8 hPa 0,0 l/m 4,3 km/h (1 Bft) W-SW 249 0 min 0,000 mm 0,0 UV-I 0 W/m -1,9 C -0,6 C 6,4 km/h (2 Bft) 100,00 %
14.12.2017 03:12 -0,5 C 3,9 C 92 % 1000,8 hPa 0,0 l/m 0,9 km/h (0 Bft) W-SW 249 0 min 0,000 mm 0,0 UV-I 0 W/m -1,6 C -0,5 C 3,2 km/h (1 Bft) 100,00 %
14.12.2017 03:14 -0,5 C 3,9 C 92 % 1000,9 hPa 0,0 l/m 2,4 km/h (1 Bft) S-SO 147 0 min 0,000 mm 0,0 UV-I 0 W/m -1,6 C -0,5 C 6,4 km/h (2 Bft) 95,74 %
14.12.2017 03:16 -0,5 C 3,9 C 91 % 1001,0 hPa 0,0 l/m 3,5 km/h (1 Bft) SO 140 0 min 0,000 mm 0,0 UV-I 0 W/m -1,8 C -0,5 C 6,4 km/h (2 Bft) 100,00 %
14.12.2017 03:18 -0,4 C 3,9 C 91 % 1001,1 hPa 0,0 l/m 1,4 km/h (1 Bft) NW 306 0 min 0,000 mm 0,0 UV-I 0 W/m -1,7 C -0,4 C 4,8 km/h (1 Bft) 100,00 %
14.12.2017 03:20 -0,4 C 3,9 C 91 % 1001,4 hPa 0,0 l/m 3,5 km/h (1 Bft) W-NW 282 0 min 0,000 mm 0,0 UV-I 0 W/m -1,7 C -0,4 C 6,4 km/h (2 Bft) 97,87 %
14.12.2017 03:22 -0,4 C 3,9 C 92 % 1001,2 hPa 0,0 l/m 3,2 km/h (1 Bft) W 265 0 min 0,000 mm 0,0 UV-I 0 W/m -1,5 C -0,4 C 6,4 km/h (2 Bft) 100,00 %
14.12.2017 03:24 -0,5 C 3,9 C 92 % 1001,3 hPa 0,0 l/m 3,5 km/h (1 Bft) NO 49 0 min 0,000 mm 0,0 UV-I 0 W/m -1,6 C -0,5 C 4,8 km/h (1 Bft) 100,00 %
14.12.2017 03:26 -0,5 C 3,9 C 92 % 1001,5 hPa 0,0 l/m 4,8 km/h (1 Bft) W-SW 257 0 min 0,000 mm 0,0 UV-I 0 W/m -1,6 C -0,5 C 8,0 km/h (2 Bft) 97,87 %
14.12.2017 03:28 -0,5 C 3,9 C 92 % 1001,1 hPa 0,0 l/m 3,7 km/h (1 Bft) N 350 0 min 0,000 mm 0,0 UV-I 0 W/m -1,6 C -0,5 C 6,4 km/h (2 Bft) 100,00 %
14.12.2017 03:30 -0,4 C 3,9 C 92 % 1001,2 hPa 0,0 l/m 2,0 km/h (1 Bft) NW 310 0 min 0,000 mm 0,0 UV-I 0 W/m -1,5 C -0,4 C 4,8 km/h (1 Bft) 100,00 %
14.12.2017 03:32 -0,4 C 3,9 C 92 % 1001,1 hPa 0,0 l/m 0,7 km/h (0 Bft) NW 310 0 min 0,000 mm 0,0 UV-I 0 W/m -1,5 C -0,4 C 1,6 km/h (1 Bft) 100,00 %
14.12.2017 03:34 -0,4 C 3,9 C 93 % 1000,9 hPa 0,0 l/m 2,2 km/h (1 Bft) NW 311 0 min 0,000 mm 0,0 UV-I 0 W/m -1,4 C -0,4 C 3,2 km/h (1 Bft) 100,00 %
14.12.2017 03:36 -0,4 C 3,9 C 92 % 1000,8 hPa 0,0 l/m 3,7 km/h (1 Bft) NW 311 0 min 0,000 mm 0,0 UV-I 0 W/m -1,5 C -0,4 C 4,8 km/h (1 Bft) 97,87 %
14.12.2017 03:38 -0,5 C 3,9 C 92 % 1000,6 hPa 0,0 l/m 1,0 km/h (0 Bft) NW 311 0 min 0,000 mm 0,0 UV-I 0 W/m -1,6 C -0,5 C 3,2 km/h (1 Bft) 100,00 %
14.12.2017 03:40 -0,5 C 3,9 C 92 % 1000,5 hPa 0,0 l/m 2,6 km/h (1 Bft) N-NO 22 0 min 0,000 mm 0,0 UV-I 0 W/m -1,6 C -0,5 C 4,8 km/h (1 Bft) 97,87 %
14.12.2017 03:42 -0,5 C 3,9 C 93 % 1000,7 hPa 0,0 l/m 3,1 km/h (1 Bft) SO 128 0 min 0,000 mm 0,0 UV-I 0 W/m -1,5 C -0,5 C 4,8 km/h (1 Bft) 98,28 %
14.12.2017 03:44 -0,5 C 3,9 C 93 % 1000,7 hPa 0,0 l/m 2,5 km/h (1 Bft) S-SO 152 0 min 0,000 mm 0,0 UV-I 0 W/m -1,5 C -0,5 C 6,4 km/h (2 Bft) 100,00 %
14.12.2017 03:46 -0,5 C 3,9 C 93 % 1000,4 hPa 0,0 l/m 0,0 km/h (0 Bft) S-SO 152 0 min 0,000 mm 0,0 UV-I 0 W/m -1,5 C -0,5 C 1,6 km/h (1 Bft) 100,00 %
14.12.2017 03:48 -0,5 C 3,9 C 93 % 1000,3 hPa 0,0 l/m 0,1 km/h (0 Bft) S-SO 152 0 min 0,000 mm 0,0 UV-I 0 W/m -1,5 C -0,5 C 1,6 km/h (1 Bft) 97,87 %
14.12.2017 03:50 -0,5 C 3,9 C 93 % 1000,3 hPa 0,0 l/m 0,7 km/h (0 Bft) S-SO 152 0 min 0,000 mm 0,0 UV-I 0 W/m -1,5 C -0,5 C 3,2 km/h (1 Bft) 100,00 %
14.12.2017 03:52 -0,5 C 3,9 C 93 % 1000,4 hPa 0,0 l/m 0,0 km/h (0 Bft) S-SO 152 0 min 0,000 mm 0,0 UV-I 0 W/m -1,5 C -0,5 C 0,0 km/h (0 Bft) 100,00 %
14.12.2017 03:54 -0,4 C 3,9 C 93 % 1000,2 hPa 0,0 l/m 0,9 km/h (0 Bft) S-SO 152 0 min 0,000 mm 0,0 UV-I 0 W/m -1,4 C -0,4 C 3,2 km/h (1 Bft) 97,87 %
14.12.2017 03:56 -0,4 C 3,9 C 93 % 1000,0 hPa 0,0 l/m 3,7 km/h (1 Bft) S-SO 152 0 min 0,000 mm 0,0 UV-I 0 W/m -1,4 C -0,4 C 4,8 km/h (1 Bft) 95,74 %
14.12.2017 03:58 -0,4 C 3,9 C 93 % 999,8 hPa 0,0 l/m 4,6 km/h (1 Bft) N-NO 17 0 min 0,000 mm 0,0 UV-I 0 W/m -1,4 C -0,4 C 4,8 km/h (1 Bft) 100,00 %
14.12.2017 04:00 -0,4 C 3,9 C 93 % 999,8 hPa 0,0 l/m 6,0 km/h (2 Bft) O-NO 65 0 min 0,000 mm 0,0 UV-I 0 W/m -1,4 C -0,4 C 8,0 km/h (2 Bft) 100,00 %
14.12.2017 04:02 -0,4 C 3,9 C 93 % 999,5 hPa 0,0 l/m 8,2 km/h (2 Bft) O-NO 65 0 min 0,000 mm 0,0 UV-I 0 W/m -1,4 C -2,3 C 14,5 km/h (3 Bft) 97,06 %
14.12.2017 04:04 -0,4 C 3,9 C 93 % 999,4 hPa 0,0 l/m 7,8 km/h (2 Bft) O-NO 72 0 min 0,000 mm 0,0 UV-I 0 W/m -1,4 C -1,9 C 11,3 km/h (2 Bft) 100,00 %
14.12.2017 04:06 -0,4 C 3,9 C 93 % 999,5 hPa 0,0 l/m 4,0 km/h (1 Bft) SO 138 0 min 0,000 mm 0,0 UV-I 0 W/m -1,4 C -0,4 C 8,0 km/h (2 Bft) 98,00 %
14.12.2017 04:08 -0,4 C 3,9 C 93 % 999,5 hPa 0,0 l/m 4,0 km/h (1 Bft) S-SO 154 0 min 0,000 mm 0,0 UV-I 0 W/m -1,4 C -0,4 C 8,0 km/h (2 Bft) 97,87 %
14.12.2017 04:10 -0,4 C 3,9 C 93 % 999,4 hPa 0,0 l/m 2,9 km/h (1 Bft) SO 134 0 min 0,000 mm 0,0 UV-I 0 W/m -1,4 C -0,4 C 6,4 km/h (2 Bft) 100,00 %
14.12.2017 04:12 -0,4 C 3,9 C 93 % 999,4 hPa 0,0 l/m 4,8 km/h (1 Bft) S-SO 150 0 min 0,000 mm 0,0 UV-I 0 W/m -1,4 C -0,4 C 11,3 km/h (2 Bft) 100,00 %
14.12.2017 04:14 -0,4 C 3,9 C 93 % 999,4 hPa 0,0 l/m 4,7 km/h (1 Bft) S 178 0 min 0,000 mm 0,0 UV-I 0 W/m -1,4 C -0,4 C 9,7 km/h (2 Bft) 97,87 %
14.12.2017 04:16 -0,4 C 3,9 C 93 % 999,3 hPa 0,0 l/m 4,7 km/h (1 Bft) S-SO 156 0 min 0,000 mm 0,0 UV-I 0 W/m -1,4 C -0,4 C 11,3 km/h (2 Bft) 100,00 %
14.12.2017 04:18 -0,4 C 3,9 C 93 % 999,2 hPa 0,0 l/m 6,8 km/h (2 Bft) O-SO 120 0 min 0,000 mm 0,0 UV-I 0 W/m -1,4 C -0,8 C 12,9 km/h (3 Bft) 100,00 %
14.12.2017 04:20 -0,4 C 3,9 C 93 % 999,3 hPa 0,0 l/m 5,8 km/h (2 Bft) S-SO 154 0 min 0,000 mm 0,0 UV-I 0 W/m -1,4 C -0,4 C 14,5 km/h (3 Bft) 100,00 %
14.12.2017 04:22 -0,4 C 3,9 C 93 % 999,3 hPa 0,0 l/m 4,7 km/h (1 Bft) S-SO 157 0 min 0,000 mm 0,0 UV-I 0 W/m -1,4 C -0,4 C 8,0 km/h (2 Bft) 97,87 %
14.12.2017 04:24 -0,4 C 3,9 C 93 % 999,3 hPa 0,0 l/m 3,0 km/h (1 Bft) SO 140 0 min 0,000 mm 0,0 UV-I 0 W/m -1,4 C -0,4 C 8,0 km/h (2 Bft) 95,74 %
14.12.2017 04:26 -0,3 C 3,9 C 93 % 999,4 hPa 0,0 l/m 5,5 km/h (1 Bft) S 169 0 min 0,000 mm 0,0 UV-I 0 W/m -1,3 C -0,3 C 11,3 km/h (2 Bft) 97,87 %
14.12.2017 04:28 -0,3 C 3,9 C 92 % 999,5 hPa 0,0 l/m 1,1 km/h (1 Bft) S 169 0 min 0,000 mm 0,0 UV-I 0 W/m -1,4 C -0,3 C 6,4 km/h (2 Bft) 100,00 %
14.12.2017 04:30 -0,3 C 3,9 C 92 % 999,6 hPa 0,0 l/m 2,3 km/h (1 Bft) S 177 0 min 0,000 mm 0,0 UV-I 0 W/m -1,4 C -0,3 C 3,2 km/h (1 Bft) 100,00 %
14.12.2017 04:32 -0,3 C 3,9 C 92 % 999,5 hPa 0,0 l/m 1,8 km/h (1 Bft) NW 323 0 min 0,000 mm 0,0 UV-I 0 W/m -1,4 C -0,3 C 4,8 km/h (1 Bft) 100,00 %
14.12.2017 04:34 -0,2 C 3,9 C 92 % 999,1 hPa 0,0 l/m 2,5 km/h (1 Bft) N 5 0 min 0,000 mm 0,0 UV-I 0 W/m -1,3 C -0,2 C 6,4 km/h (2 Bft) 94,00 %
14.12.2017 04:36 -0,2 C 3,9 C 93 % 999,0 hPa 0,0 l/m 4,5 km/h (1 Bft) N-NO 12 0 min 0,000 mm 0,0 UV-I 0 W/m -1,2 C -0,2 C 6,4 km/h (2 Bft) 95,74 %
14.12.2017 04:38 -0,3 C 3,9 C 92 % 998,8 hPa 0,0 l/m 5,5 km/h (1 Bft) O 97 0 min 0,000 mm 0,0 UV-I 0 W/m -1,4 C -0,3 C 9,7 km/h (2 Bft) 93,62 %
14.12.2017 04:40 -0,2 C 3,9 C 93 % 998,8 hPa 0,0 l/m 6,5 km/h (2 Bft) O 99 0 min 0,000 mm 0,0 UV-I 0 W/m -1,2 C -0,3 C 9,7 km/h (2 Bft) 97,87 %
14.12.2017 04:42 -0,3 C 3,9 C 93 % 998,8 hPa 0,0 l/m 4,2 km/h (1 Bft) O 98 0 min 0,000 mm 0,0 UV-I 0 W/m -1,3 C -0,3 C 6,4 km/h (2 Bft) 97,14 %
14.12.2017 04:44 -0,3 C 3,9 C 93 % 998,9 hPa 0,0 l/m 1,1 km/h (1 Bft) O 98 0 min 0,000 mm 0,0 UV-I 0 W/m -1,3 C -0,3 C 3,2 km/h (1 Bft) 98,39 %
14.12.2017 04:46 -0,3 C 3,9 C 93 % 998,8 hPa 0,0 l/m 0,4 km/h (0 Bft) O-SO 113 0 min 0,000 mm 0,0 UV-I 0 W/m -1,3 C -0,3 C 3,2 km/h (1 Bft) 97,87 %
14.12.2017 04:48 -0,3 C 3,9 C 93 % 998,8 hPa 0,0 l/m 4,1 km/h (1 Bft) S-SO 151 0 min 0,000 mm 0,0 UV-I 0 W/m -1,3 C -0,3 C 6,4 km/h (2 Bft) 97,14 %
14.12.2017 04:50 -0,3 C 3,9 C 93 % 998,7 hPa 0,0 l/m 3,3 km/h (1 Bft) S-SO 150 0 min 0,000 mm 0,0 UV-I 0 W/m -1,3 C -0,3 C 4,8 km/h (1 Bft) 96,00 %
14.12.2017 04:52 -0,4 C 3,9 C 93 % 998,8 hPa 0,0 l/m 0,7 km/h (0 Bft) S-SO 150 0 min 0,000 mm 0,0 UV-I 0 W/m -1,4 C -0,4 C 1,6 km/h (1 Bft) 95,74 %
14.12.2017 04:54 -0,3 C 3,9 C 93 % 998,8 hPa 0,0 l/m 0,6 km/h (0 Bft) S-SO 150 0 min 0,000 mm 0,0 UV-I 0 W/m -1,3 C -0,3 C 3,2 km/h (1 Bft) 95,74 %
14.12.2017 04:56 -0,3 C 3,9 C 93 % 998,8 hPa 0,0 l/m 2,6 km/h (1 Bft) S-SO 150 0 min 0,000 mm 0,0 UV-I 0 W/m -1,3 C -0,3 C 3,2 km/h (1 Bft) 95,83 %
14.12.2017 04:58 -0,4 C 3,9 C 93 % 998,8 hPa 0,0 l/m 2,4 km/h (1 Bft) NO 40 0 min 0,000 mm 0,0 UV-I 0 W/m -1,4 C -0,4 C 4,8 km/h (1 Bft) 97,87 %
14.12.2017 05:00 -0,4 C 3,9 C 93 % 998,8 hPa 0,0 l/m 0,7 km/h (0 Bft) NO 40 0 min 0,000 mm 0,0 UV-I 0 W/m -1,4 C -0,4 C 3,2 km/h (1 Bft) 98,00 %
14.12.2017 05:02 -0,4 C 3,9 C 93 % 998,9 hPa 0,0 l/m 3,4 km/h (1 Bft) O-NO 72 0 min 0,000 mm 0,0 UV-I 0 W/m -1,4 C -0,4 C 4,8 km/h (1 Bft) 96,00 %
14.12.2017 05:04 -0,4 C 3,9 C 92 % 999,0 hPa 0,0 l/m 0,7 km/h (0 Bft) O-NO 71 0 min 0,000 mm 0,0 UV-I 0 W/m -1,5 C -0,4 C 1,6 km/h (1 Bft) 97,37 %
14.12.2017 05:06 -0,5 C 3,9 C 93 % 999,0 hPa 0,0 l/m 1,7 km/h (1 Bft) O-NO 71 0 min 0,000 mm 0,0 UV-I 0 W/m -1,5 C -0,5 C 3,2 km/h (1 Bft) 97,87 %
14.12.2017 05:08 -0,5 C 3,9 C 93 % 999,0 hPa 0,0 l/m 1,1 km/h (1 Bft) O-NO 71 0 min 0,000 mm 0,0 UV-I 0 W/m -1,5 C -0,5 C 3,2 km/h (1 Bft) 100,00 %
14.12.2017 05:10 -0,6 C 3,9 C 93 % 998,9 hPa 0,0 l/m 0,0 km/h (0 Bft) O-NO 71 0 min 0,000 mm 0,0 UV-I 0 W/m -1,6 C -0,6 C 0,0 km/h (0 Bft) 95,74 %
14.12.2017 05:12 -0,6 C 3,9 C 93 % 999,0 hPa 0,0 l/m 0,0 km/h (0 Bft) O-NO 71 0 min 0,000 mm 0,0 UV-I 0 W/m -1,6 C -0,6 C 0,0 km/h (0 Bft) 95,74 %
14.12.2017 05:14 -0,6 C 3,9 C 94 % 998,8 hPa 0,0 l/m 1,3 km/h (1 Bft) O 92 0 min 0,000 mm 0,0 UV-I 0 W/m -1,4 C -0,6 C 3,2 km/h (1 Bft) 100,00 %
14.12.2017 05:16 -0,6 C 3,9 C 94 % 998,8 hPa 0,0 l/m 2,3 km/h (1 Bft) SO 126 0 min 0,000 mm 0,0 UV-I 0 W/m -1,4 C -0,6 C 4,8 km/h (1 Bft) 97,87 %
14.12.2017 05:18 -0,5 C 3,9 C 94 % 998,6 hPa 0,0 l/m 3,0 km/h (1 Bft) SO 132 0 min 0,000 mm 0,0 UV-I 0 W/m -1,3 C -0,5 C 6,4 km/h (2 Bft) 97,87 %
14.12.2017 05:20 -0,6 C 3,9 C 94 % 998,7 hPa 0,0 l/m 1,4 km/h (1 Bft) SO 132 0 min 0,000 mm 0,0 UV-I 0 W/m -1,4 C -0,6 C 3,2 km/h (1 Bft) 94,00 %
14.12.2017 05:22 -0,6 C 3,9 C 94 % 998,6 hPa 0,0 l/m 1,7 km/h (1 Bft) SO 132 0 min 0,000 mm 0,0 UV-I 0 W/m -1,4 C -0,6 C 3,2 km/h (1 Bft) 97,87 %
14.12.2017 05:24 -0,6 C 3,9 C 94 % 998,6 hPa 0,0 l/m 0,4 km/h (0 Bft) SO 132 0 min 0,000 mm 0,0 UV-I 0 W/m -1,4 C -0,6 C 3,2 km/h (1 Bft) 97,87 %
14.12.2017 05:26 -0,5 C 3,9 C 94 % 998,7 hPa 0,0 l/m 1,1 km/h (1 Bft) SO 132 0 min 0,000 mm 0,0 UV-I 0 W/m -1,3 C -0,5 C 3,2 km/h (1 Bft) 95,74 %
14.12.2017 05:28 -0,5 C 3,9 C 94 % 998,6 hPa 0,0 l/m 0,6 km/h (0 Bft) SO 130 0 min 0,000 mm 0,0 UV-I 0 W/m -1,3 C -0,5 C 1,6 km/h (1 Bft) 95,74 %
14.12.2017 05:30 -0,5 C 3,9 C 94 % 998,6 hPa 0,0 l/m 0,1 km/h (0 Bft) SO 130 0 min 0,000 mm 0,0 UV-I 0 W/m -1,3 C -0,5 C 1,6 km/h (1 Bft) 97,87 %
14.12.2017 05:32 -0,6 C 3,9 C 94 % 998,7 hPa 0,0 l/m 0,0 km/h (0 Bft) SO 130 0 min 0,000 mm 0,0 UV-I 0 W/m -1,4 C -0,6 C 0,0 km/h (0 Bft) 96,00 %
14.12.2017 05:34 -0,6 C 3,9 C 94 % 998,7 hPa 0,0 l/m 0,0 km/h (0 Bft) SO 130 0 min 0,000 mm 0,0 UV-I 0 W/m -1,4 C -0,6 C 1,6 km/h (1 Bft) 100,00 %
14.12.2017 05:36 -0,6 C 3,9 C 94 % 998,7 hPa 0,0 l/m 0,0 km/h (0 Bft) SO 130 0 min 0,000 mm 0,0 UV-I 0 W/m -1,4 C -0,6 C 0,0 km/h (0 Bft) 95,74 %
14.12.2017 05:38 -0,5 C 3,9 C 94 % 998,6 hPa 0,0 l/m 0,0 km/h (0 Bft) SO 130 0 min 0,000 mm 0,0 UV-I 0 W/m -1,3 C -0,5 C 1,6 km/h (1 Bft) 95,74 %
14.12.2017 05:40 -0,6 C 3,9 C 94 % 998,6 hPa 0,0 l/m 0,4 km/h (0 Bft) SO 130 0 min 0,000 mm 0,0 UV-I 0 W/m -1,4 C -0,6 C 1,6 km/h (1 Bft) 97,87 %
14.12.2017 05:42 -0,6 C 3,9 C 94 % 998,8 hPa 0,0 l/m 3,0 km/h (1 Bft) W 267 0 min 0,000 mm 0,0 UV-I 0 W/m -1,4 C -0,6 C 4,8 km/h (1 Bft) 95,83 %
14.12.2017 05:44 -0,5 C 3,9 C 94 % 999,0 hPa 0,0 l/m 4,1 km/h (1 Bft) W 267 0 min 0,000 mm 0,0 UV-I 0 W/m -1,3 C -0,5 C 4,8 km/h (1 Bft) 95,74 %
14.12.2017 05:46 -0,5 C 3,9 C 94 % 999,0 hPa 0,0 l/m 1,9 km/h (1 Bft) W 267 0 min 0,000 mm 0,0 UV-I 0 W/m -1,3 C -0,5 C 3,2 km/h (1 Bft) 95,74 %
14.12.2017 05:48 -0,5 C 3,9 C 94 % 999,4 hPa 0,0 l/m 2,5 km/h (1 Bft) NW 320 0 min 0,000 mm 0,0 UV-I 0 W/m -1,3 C -0,5 C 6,4 km/h (2 Bft) 97,87 %
14.12.2017 05:50 -0,4 C 3,9 C 95 % 999,0 hPa 0,0 l/m 5,1 km/h (1 Bft) W-SW 241 0 min 0,000 mm 0,0 UV-I 0 W/m -1,1 C -0,4 C 16,1 km/h (3 Bft) 95,74 %
14.12.2017 05:52 -0,4 C 3,9 C 95 % 999,7 hPa 0,0 l/m 8,9 km/h (2 Bft) W 277 0 min 0,000 mm 0,0 UV-I 0 W/m -1,1 C -2,9 C 20,9 km/h (4 Bft) 97,87 %
14.12.2017 05:54 -0,4 C 3,9 C 95 % 999,1 hPa 0,0 l/m 5,8 km/h (2 Bft) O-NO 63 0 min 0,000 mm 0,0 UV-I 0 W/m -1,1 C -0,4 C 17,7 km/h (3 Bft) 93,62 %
14.12.2017 05:56 -0,3 C 3,9 C 95 % 999,5 hPa 0,0 l/m 7,7 km/h (2 Bft) W-NW 299 0 min 0,000 mm 0,0 UV-I 0 W/m -1,0 C -1,7 C 16,1 km/h (3 Bft) 95,74 %
14.12.2017 05:58 -0,2 C 3,9 C 95 % 999,7 hPa 0,0 l/m 4,7 km/h (1 Bft) NW 306 0 min 0,000 mm 0,0 UV-I 0 W/m -0,9 C -0,2 C 11,3 km/h (2 Bft) 95,74 %
14.12.2017 06:00 -0,2 C 3,9 C 94 % 999,7 hPa 0,0 l/m 1,6 km/h (1 Bft) W-NW 287 0 min 0,000 mm 0,0 UV-I 0 W/m -1,0 C -0,2 C 3,2 km/h (1 Bft) 93,62 %
14.12.2017 06:02 -0,2 C 3,9 C 94 % 999,6 hPa 0,0 l/m 1,3 km/h (1 Bft) W-NW 287 0 min 0,000 mm 0,0 UV-I 0 W/m -1,0 C -0,2 C 3,2 km/h (1 Bft) 95,74 %
14.12.2017 06:04 -0,2 C 3,9 C 95 % 999,6 hPa 0,0 l/m 1,1 km/h (1 Bft) W-NW 287 0 min 0,000 mm 0,0 UV-I 0 W/m -0,9 C -0,2 C 3,2 km/h (1 Bft) 97,56 %
14.12.2017 06:06 -0,2 C 3,9 C 95 % 999,7 hPa 0,0 l/m 2,1 km/h (1 Bft) NW 311 0 min 0,000 mm 0,0 UV-I 0 W/m -0,9 C -0,2 C 4,8 km/h (1 Bft) 97,92 %
14.12.2017 06:08 -0,1 C 3,9 C 95 % 999,7 hPa 0,0 l/m 1,8 km/h (1 Bft) NW 320 0 min 0,000 mm 0,0 UV-I 0 W/m -0,8 C -0,1 C 6,4 km/h (2 Bft) 97,87 %
14.12.2017 06:10 -0,1 C 3,9 C 95 % 999,6 hPa 0,0 l/m 2,1 km/h (1 Bft) NW 308 0 min 0,000 mm 0,0 UV-I 0 W/m -0,8 C -0,1 C 4,8 km/h (1 Bft) 95,74 %
14.12.2017 06:12 -0,1 C 3,9 C 95 % 999,5 hPa 0,0 l/m 0,7 km/h (0 Bft) NW 308 0 min 0,000 mm 0,0 UV-I 0 W/m -0,8 C -0,1 C 3,2 km/h (1 Bft) 97,87 %
14.12.2017 06:14 -0,1 C 3,9 C 95 % 999,4 hPa 0,0 l/m 2,0 km/h (1 Bft) NW 322 0 min 0,000 mm 0,0 UV-I 0 W/m -0,8 C -0,1 C 3,2 km/h (1 Bft) 97,92 %
14.12.2017 06:16 -0,2 C 3,9 C 95 % 999,4 hPa 0,0 l/m 4,9 km/h (1 Bft) NO 36 0 min 0,000 mm 0,0 UV-I 0 W/m -0,9 C -0,2 C 6,4 km/h (2 Bft) 100,00 %
14.12.2017 06:18 -0,1 C 3,9 C 95 % 999,4 hPa 0,0 l/m 6,7 km/h (2 Bft) NO 37 0 min 0,000 mm 0,0 UV-I 0 W/m -0,8 C -0,4 C 8,0 km/h (2 Bft) 96,00 %
14.12.2017 06:20 -0,2 C 3,9 C 95 % 999,5 hPa 0,0 l/m 3,6 km/h (1 Bft) O 86 0 min 0,000 mm 0,0 UV-I 0 W/m -0,9 C -0,2 C 6,4 km/h (2 Bft) 97,87 %
14.12.2017 06:22 -0,2 C 3,9 C 95 % 999,4 hPa 0,0 l/m 4,5 km/h (1 Bft) O 96 0 min 0,000 mm 0,0 UV-I 0 W/m -0,9 C -0,2 C 9,7 km/h (2 Bft) 100,00 %
14.12.2017 06:24 -0,2 C 3,9 C 95 % 999,3 hPa 0,0 l/m 5,8 km/h (2 Bft) O 79 0 min 0,000 mm 0,0 UV-I 0 W/m -0,9 C -0,2 C 9,7 km/h (2 Bft) 100,00 %
14.12.2017 06:26 -0,2 C 3,9 C 95 % 999,3 hPa 0,0 l/m 6,4 km/h (2 Bft) O-NO 74 0 min 0,000 mm 0,0 UV-I 0 W/m -0,9 C -0,2 C 9,7 km/h (2 Bft) 100,00 %
14.12.2017 06:28 -0,2 C 3,9 C 95 % 999,3 hPa 0,0 l/m 7,0 km/h (2 Bft) O-NO 65 0 min 0,000 mm 0,0 UV-I 0 W/m -0,9 C -0,8 C 9,7 km/h (2 Bft) 95,74 %
14.12.2017 06:30 -0,2 C 3,9 C 95 % 999,2 hPa 0,0 l/m 7,5 km/h (2 Bft) O-SO 109 0 min 0,000 mm 0,0 UV-I 0 W/m -0,9 C -1,4 C 11,3 km/h (2 Bft) 100,00 %
14.12.2017 06:32 -0,2 C 3,9 C 95 % 999,2 hPa 0,0 l/m 5,8 km/h (2 Bft) SO 126 0 min 0,000 mm 0,0 UV-I 0 W/m -0,9 C -0,2 C 8,0 km/h (2 Bft) 100,00 %
14.12.2017 06:34 -0,3 C 3,9 C 95 % 999,1 hPa 0,0 l/m 5,4 km/h (1 Bft) O-SO 111 0 min 0,000 mm 0,0 UV-I 0 W/m -1,0 C -0,3 C 6,4 km/h (2 Bft) 97,87 %
14.12.2017 06:36 -0,3 C 3,9 C 95 % 999,1 hPa 0,0 l/m 4,4 km/h (1 Bft) O-SO 111 0 min 0,000 mm 0,0 UV-I 0 W/m -1,0 C -0,3 C 6,4 km/h (2 Bft) 97,87 %
14.12.2017 06:38 -0,3 C 3,9 C 95 % 999,1 hPa 0,0 l/m 4,9 km/h (1 Bft) O-SO 111 0 min 0,000 mm 0,0 UV-I 0 W/m -1,0 C -0,3 C 6,4 km/h (2 Bft) 97,87 %
14.12.2017 06:40 -0,3 C 3,9 C 95 % 999,1 hPa 0,0 l/m 4,1 km/h (1 Bft) O-SO 111 0 min 0,000 mm 0,0 UV-I 0 W/m -1,0 C -0,3 C 6,4 km/h (2 Bft) 97,87 %
14.12.2017 06:42 -0,3 C 3,9 C 95 % 999,1 hPa 0,0 l/m 5,2 km/h (1 Bft) O-SO 111 0 min 0,000 mm 0,0 UV-I 0 W/m -1,0 C -0,3 C 6,4 km/h (2 Bft) 97,87 %
14.12.2017 06:44 -0,3 C 3,9 C 95 % 999,1 hPa 0,0 l/m 4,3 km/h (1 Bft) O-SO 107 0 min 0,000 mm 0,0 UV-I 0 W/m -1,0 C -0,3 C 6,4 km/h (2 Bft) 94,44 %
14.12.2017 06:46 -0,3 C 3,9 C 95 % 999,1 hPa 0,0 l/m 4,1 km/h (1 Bft) SO 141 0 min 0,000 mm 0,0 UV-I 0 W/m -1,0 C -0,3 C 8,0 km/h (2 Bft) 97,87 %
14.12.2017 06:48 -0,3 C 3,9 C 95 % 999,2 hPa 0,0 l/m 4,2 km/h (1 Bft) O-SO 123 0 min 0,000 mm 0,0 UV-I 0 W/m -1,0 C -0,3 C 6,4 km/h (2 Bft) 93,62 %
14.12.2017 06:50 -0,3 C 3,9 C 95 % 999,2 hPa 0,0 l/m 2,4 km/h (1 Bft) SO 124 0 min 0,000 mm 0,0 UV-I 0 W/m -1,0 C -0,3 C 6,4 km/h (2 Bft) 97,87 %
14.12.2017 06:52 -0,3 C 3,9 C 95 % 999,2 hPa 0,0 l/m 2,7 km/h (1 Bft) S-SO 151 0 min 0,000 mm 0,0 UV-I 0 W/m -1,0 C -0,3 C 4,8 km/h (1 Bft) 97,87 %
14.12.2017 06:54 -0,3 C 3,9 C 95 % 999,2 hPa 0,0 l/m 4,9 km/h (1 Bft) S-SO 148 0 min 0,000 mm 0,0 UV-I 0 W/m -1,0 C -0,3 C 8,0 km/h (2 Bft) 93,75 %
14.12.2017 06:56 -0,2 C 3,9 C 95 % 999,1 hPa 0,0 l/m 2,4 km/h (1 Bft) S-SO 157 0 min 0,000 mm 0,0 UV-I 0 W/m -0,9 C -0,2 C 8,0 km/h (2 Bft) 95,83 %
14.12.2017 06:58 -0,2 C 3,9 C 95 % 999,1 hPa 0,0 l/m 4,0 km/h (1 Bft) S-SO 157 0 min 0,000 mm 0,0 UV-I 0 W/m -0,9 C -0,2 C 8,0 km/h (2 Bft) 96,00 %
14.12.2017 07:00 -0,2 C 3,9 C 95 % 999,2 hPa 0,0 l/m 5,5 km/h (1 Bft) S-SO 160 0 min 0,000 mm 0,0 UV-I 0 W/m -0,9 C -0,2 C 11,3 km/h (2 Bft) 95,74 %
14.12.2017 07:02 -0,1 C 3,9 C 95 % 999,4 hPa 0,0 l/m 5,3 km/h (1 Bft) S-SO 159 0 min 0,000 mm 0,0 UV-I 0 W/m -0,8 C -0,1 C 8,0 km/h (2 Bft) 98,00 %
14.12.2017 07:04 -0,1 C 3,9 C 95 % 999,5 hPa 0,0 l/m 7,6 km/h (2 Bft) S-SO 161 0 min 0,000 mm 0,0 UV-I 0 W/m -0,8 C -1,4 C 12,9 km/h (3 Bft) 97,87 %
14.12.2017 07:06 0,0 C 3,9 C 95 % 999,4 hPa 0,0 l/m 4,4 km/h (1 Bft) SO 142 0 min 0,000 mm 0,0 UV-I 0 W/m -0,7 C 0,0 C 11,3 km/h (2 Bft) 97,14 %
14.12.2017 07:08 0,1 C 3,9 C 95 % 999,4 hPa 0,0 l/m 7,6 km/h (2 Bft) O-SO 116 0 min 0,000 mm 0,0 UV-I 0 W/m -0,6 C -1,1 C 19,3 km/h (3 Bft) 96,00 %
14.12.2017 07:10 0,1 C 3,9 C 95 % 999,4 hPa 0,0 l/m 5,2 km/h (1 Bft) S-SW 207 0 min 0,000 mm 0,0 UV-I 0 W/m -0,6 C 0,1 C 8,0 km/h (2 Bft) 97,87 %
14.12.2017 07:12 0,1 C 3,9 C 95 % 999,4 hPa 0,0 l/m 3,6 km/h (1 Bft) S 186 0 min 0,000 mm 0,0 UV-I 0 W/m -0,6 C 0,1 C 9,7 km/h (2 Bft) 97,87 %
14.12.2017 07:14 0,2 C 3,9 C 95 % 999,4 hPa 0,0 l/m 6,1 km/h (2 Bft) S-SO 161 0 min 0,000 mm 0,0 UV-I 0 W/m -0,5 C 0,2 C 9,7 km/h (2 Bft) 97,87 %
14.12.2017 07:16 0,3 C 3,9 C 95 % 999,4 hPa 0,0 l/m 4,7 km/h (1 Bft) S-SO 152 0 min 0,000 mm 0,0 UV-I 0 W/m -0,4 C 0,3 C 8,0 km/h (2 Bft) 95,74 %
14.12.2017 07:18 0,3 C 3,9 C 94 % 999,4 hPa 0,0 l/m 3,2 km/h (1 Bft) S-SO 162 0 min 0,000 mm 0,0 UV-I 0 W/m -0,5 C 0,3 C 6,4 km/h (2 Bft) 100,00 %
14.12.2017 07:20 0,4 C 3,9 C 94 % 999,4 hPa 0,0 l/m 2,4 km/h (1 Bft) S-SO 160 0 min 0,000 mm 0,0 UV-I 0 W/m -0,5 C 0,4 C 6,4 km/h (2 Bft) 100,00 %
14.12.2017 07:22 0,4 C 3,9 C 94 % 999,4 hPa 0,0 l/m 3,2 km/h (1 Bft) S-SO 160 0 min 0,000 mm 0,0 UV-I 0 W/m -0,5 C 0,4 C 6,4 km/h (2 Bft) 100,00 %
14.12.2017 07:24 0,5 C 3,9 C 94 % 999,4 hPa 0,0 l/m 3,3 km/h (1 Bft) S 178 0 min 0,000 mm 0,0 UV-I 0 W/m -0,4 C 0,5 C 6,4 km/h (2 Bft) 97,87 %
14.12.2017 07:26 0,5 C 3,9 C 94 % 999,3 hPa 0,0 l/m 1,4 km/h (1 Bft) S 178 0 min 0,000 mm 0,0 UV-I 0 W/m -0,4 C 0,5 C 3,2 km/h (1 Bft) 100,00 %
14.12.2017 07:28 0,4 C 3,9 C 94 % 999,3 hPa 0,0 l/m 0,2 km/h (0 Bft) S 178 0 min 0,000 mm 0,0 UV-I 0 W/m -0,5 C 0,4 C 1,6 km/h (1 Bft) 97,87 %
14.12.2017 07:30 0,5 C 3,9 C 94 % 999,3 hPa 0,0 l/m 2,0 km/h (1 Bft) S-SO 161 0 min 0,000 mm 0,0 UV-I 0 W/m -0,4 C 0,5 C 6,4 km/h (2 Bft) 100,00 %
14.12.2017 07:32 0,6 C 3,9 C 94 % 999,3 hPa 0,0 l/m 1,1 km/h (1 Bft) S-SO 161 0 min 0,000 mm 0,0 UV-I 0 W/m -0,3 C 0,6 C 3,2 km/h (1 Bft) 100,00 %
14.12.2017 07:34 0,6 C 3,9 C 94 % 999,3 hPa 0,0 l/m 0,0 km/h (0 Bft) S-SO 161 0 min 0,000 mm 0,0 UV-I 0 W/m -0,3 C 0,6 C 1,6 km/h (1 Bft) 97,87 %
14.12.2017 07:36 0,6 C 3,9 C 94 % 999,3 hPa 0,0 l/m 0,8 km/h (0 Bft) S-SO 161 0 min 0,000 mm 0,0 UV-I 0 W/m -0,3 C 0,6 C 3,2 km/h (1 Bft) 100,00 %
14.12.2017 07:38 0,7 C 3,9 C 94 % 999,3 hPa 0,0 l/m 0,0 km/h (0 Bft) S-SO 161 0 min 0,000 mm 0,0 UV-I 0 W/m -0,2 C 0,7 C 0,0 km/h (0 Bft) 96,77 %
14.12.2017 07:40 0,7 C 3,9 C 93 % 999,5 hPa 0,0 l/m 0,0 km/h (0 Bft) S-SO 161 0 min 0,000 mm 0,0 UV-I 0 W/m -0,3 C 0,7 C 0,0 km/h (0 Bft) 93,62 %
14.12.2017 07:42 0,6 C 3,9 C 93 % 999,4 hPa 0,0 l/m 1,3 km/h (1 Bft) S-SO 161 0 min 0,000 mm 0,0 UV-I 0 W/m -0,4 C 0,6 C 3,2 km/h (1 Bft) 93,62 %
14.12.2017 07:44 0,5 C 3,9 C 93 % 999,5 hPa 0,0 l/m 0,3 km/h (0 Bft) S-SO 161 0 min 0,000 mm 0,0 UV-I 0 W/m -0,5 C 0,5 C 1,6 km/h (1 Bft) 100,00 %
14.12.2017 07:46 0,3 C 3,9 C 94 % 999,4 hPa 0,0 l/m 0,1 km/h (0 Bft) S-SO 161 0 min 0,000 mm 0,0 UV-I 0 W/m -0,5 C 0,3 C 1,6 km/h (1 Bft) 95,74 %
14.12.2017 07:48 0,3 C 3,9 C 94 % 999,5 hPa 0,0 l/m 0,1 km/h (0 Bft) S-SO 161 0 min 0,000 mm 0,0 UV-I 0 W/m -0,5 C 0,3 C 1,6 km/h (1 Bft) 97,87 %
14.12.2017 07:50 0,2 C 3,9 C 94 % 999,5 hPa 0,0 l/m 0,9 km/h (0 Bft) S-SO 161 0 min 0,000 mm 0,0 UV-I 5 W/m -0,6 C 0,2 C 3,2 km/h (1 Bft) 100,00 %
14.12.2017 07:52 0,2 C 3,9 C 95 % 999,7 hPa 0,0 l/m 0,3 km/h (0 Bft) S-SO 161 0 min 0,000 mm 0,0 UV-I 5 W/m -0,5 C 0,2 C 3,2 km/h (1 Bft) 100,00 %
14.12.2017 07:54 0,2 C 3,9 C 95 % 999,7 hPa 0,0 l/m 0,7 km/h (0 Bft) S-SO 161 0 min 0,000 mm 0,0 UV-I 5 W/m -0,5 C 0,2 C 3,2 km/h (1 Bft) 97,87 %
14.12.2017 07:56 0,2 C 3,9 C 95 % 999,6 hPa 0,0 l/m 2,3 km/h (1 Bft) S-SO 161 0 min 0,000 mm 0,0 UV-I 5 W/m -0,5 C 0,2 C 3,2 km/h (1 Bft) 95,74 %
14.12.2017 07:58 0,2 C 3,9 C 95 % 999,5 hPa 0,0 l/m 2,7 km/h (1 Bft) NO 54 0 min 0,000 mm 0,0 UV-I 5 W/m -0,5 C 0,2 C 6,4 km/h (2 Bft) 97,37 %
14.12.2017 08:00 0,3 C 3,9 C 95 % 999,6 hPa 0,0 l/m 5,1 km/h (1 Bft) NO 38 0 min 0,000 mm 0,0 UV-I 5 W/m -0,4 C 0,3 C 6,4 km/h (2 Bft) 100,00 %
14.12.2017 08:02 0,2 C 3,9 C 95 % 999,6 hPa 0,0 l/m 6,3 km/h (2 Bft) NO 50 0 min 0,000 mm 0,0 UV-I 5 W/m -0,5 C 0,2 C 8,0 km/h (2 Bft) 97,87 %
14.12.2017 08:04 0,3 C 3,9 C 95 % 999,8 hPa 0,0 l/m 2,4 km/h (1 Bft) N-NO 25 0 min 0,000 mm 0,0 UV-I 5 W/m -0,4 C 0,3 C 6,4 km/h (2 Bft) 98,00 %
14.12.2017 08:06 0,2 C 3,9 C 95 % 1000,1 hPa 0,0 l/m 1,8 km/h (1 Bft) N-NO 25 0 min 0,000 mm 0,0 UV-I 1 W/m -0,5 C 0,2 C 3,2 km/h (1 Bft) 100,00 %
14.12.2017 08:08 0,2 C 3,9 C 95 % 1000,2 hPa 0,0 l/m 0,2 km/h (0 Bft) N-NO 25 0 min 0,000 mm 0,0 UV-I 3 W/m -0,5 C 0,2 C 1,6 km/h (1 Bft) 100,00 %
14.12.2017 08:10 0,2 C 3,9 C 95 % 1000,0 hPa 0,0 l/m 0,0 km/h (0 Bft) N-NO 25 0 min 0,000 mm 0,0 UV-I 5 W/m -0,5 C 0,2 C 0,0 km/h (0 Bft) 97,87 %
14.12.2017 08:12 0,2 C 3,9 C 95 % 1000,1 hPa 0,0 l/m 3,3 km/h (1 Bft) S-SO 159 0 min 0,000 mm 0,0 UV-I 5 W/m -0,5 C 0,2 C 8,0 km/h (2 Bft) 97,87 %
14.12.2017 08:14 0,2 C 3,9 C 95 % 1000,1 hPa 0,0 l/m 1,7 km/h (1 Bft) S-SO 159 0 min 0,000 mm 0,0 UV-I 6 W/m -0,5 C 0,2 C 6,4 km/h (2 Bft) 100,00 %
14.12.2017 08:16 0,4 C 3,9 C 95 % 1000,0 hPa 0,0 l/m 4,1 km/h (1 Bft) S-SW 201 0 min 0,000 mm 0,0 UV-I 5 W/m -0,3 C 0,4 C 12,9 km/h (3 Bft) 98,00 %
14.12.2017 08:18 0,7 C 3,9 C 95 % 1000,1 hPa 0,0 l/m 3,1 km/h (1 Bft) O-NO 65 0 min 0,000 mm 0,0 UV-I 5 W/m -0,0 C 0,7 C 6,4 km/h (2 Bft) 100,00 %
14.12.2017 08:20 0,7 C 3,9 C 94 % 1000,1 hPa 0,0 l/m 2,4 km/h (1 Bft) S-SO 160 0 min 0,000 mm 0,0 UV-I 5 W/m -0,2 C 0,7 C 4,8 km/h (1 Bft) 95,74 %
14.12.2017 08:22 0,6 C 3,9 C 94 % 1000,1 hPa 0,0 l/m 4,4 km/h (1 Bft) S-SO 159 0 min 0,000 mm 0,0 UV-I 6 W/m -0,3 C 0,6 C 8,0 km/h (2 Bft) 100,00 %
14.12.2017 08:24 0,5 C 3,9 C 94 % 1000,0 hPa 0,0 l/m 5,0 km/h (1 Bft) SO 144 0 min 0,000 mm 0,0 UV-I 9 W/m -0,4 C 0,5 C 8,0 km/h (2 Bft) 97,87 %
14.12.2017 08:26 0,4 C 3,9 C 94 % 1000,0 hPa 0,0 l/m 5,5 km/h (1 Bft) SO 139 0 min 0,000 mm 0,0 UV-I 11 W/m -0,5 C 0,4 C 8,0 km/h (2 Bft) 100,00 %
14.12.2017 08:28 0,4 C 3,9 C 94 % 999,9 hPa 0,0 l/m 4,6 km/h (1 Bft) SO 138 0 min 0,000 mm 0,0 UV-I 12 W/m -0,5 C 0,4 C 6,4 km/h (2 Bft) 100,00 %
14.12.2017 08:30 0,3 C 3,9 C 95 % 999,9 hPa 0,0 l/m 0,8 km/h (0 Bft) SO 139 0 min 0,000 mm 0,0 UV-I 12 W/m -0,4 C 0,3 C 4,8 km/h (1 Bft) 95,74 %
14.12.2017 08:32 0,4 C 3,9 C 95 % 999,9 hPa 0,0 l/m 2,7 km/h (1 Bft) SO 146 0 min 0,000 mm 0,0 UV-I 12 W/m -0,3 C 0,4 C 4,8 km/h (1 Bft) 97,87 %
14.12.2017 08:34 0,5 C 3,9 C 95 % 1000,0 hPa 0,0 l/m 2,2 km/h (1 Bft) S-SO 154 0 min 0,000 mm 0,0 UV-I 11 W/m -0,2 C 0,5 C 4,8 km/h (1 Bft) 100,00 %
14.12.2017 08:36 0,6 C 3,9 C 95 % 1000,1 hPa 0,0 l/m 3,2 km/h (1 Bft) S 173 0 min 0,000 mm 0,0 UV-I 10 W/m -0,1 C 0,6 C 4,8 km/h (1 Bft) 100,00 %
14.12.2017 08:38 0,7 C 3,9 C 95 % 1000,1 hPa 0,0 l/m 4,2 km/h (1 Bft) S 181 0 min 0,000 mm 0,0 UV-I 11 W/m -0,0 C 0,7 C 8,0 km/h (2 Bft) 97,87 %
14.12.2017 08:40 0,8 C 3,9 C 95 % 1000,1 hPa 0,0 l/m 4,1 km/h (1 Bft) S 171 0 min 0,000 mm 0,0 UV-I 15 W/m 0,1 C 0,8 C 8,0 km/h (2 Bft) 97,87 %
14.12.2017 08:42 1,1 C 3,9 C 95 % 1000,1 hPa 0,0 l/m 4,6 km/h (1 Bft) S 186 0 min 0,000 mm 0,0 UV-I 34 W/m 0,4 C 1,1 C 9,7 km/h (2 Bft) 97,92 %
14.12.2017 08:44 1,4 C 3,9 C 95 % 1000,0 hPa 0,0 l/m 4,9 km/h (1 Bft) S 191 0 min 0,000 mm 0,0 UV-I 45 W/m 0,7 C 1,4 C 9,7 km/h (2 Bft) 97,37 %
14.12.2017 08:46 1,8 C 3,9 C 93 % 1000,1 hPa 0,0 l/m 7,4 km/h (2 Bft) S 191 0 min 0,000 mm 0,0 UV-I 42 W/m 0,8 C 0,8 C 12,9 km/h (3 Bft) 95,74 %
14.12.2017 08:48 2,0 C 3,9 C 92 % 1000,2 hPa 0,0 l/m 8,4 km/h (2 Bft) S-SW 209 0 min 0,000 mm 0,0 UV-I 36 W/m 0,8 C 0,1 C 16,1 km/h (3 Bft) 95,74 %
14.12.2017 08:50 2,3 C 3,9 C 91 % 1000,2 hPa 0,0 l/m 10,0 km/h (2 Bft) S-SW 194 0 min 0,000 mm 0,0 UV-I 26 W/m 1,0 C -0,9 C 17,7 km/h (3 Bft) 93,62 %
14.12.2017 08:52 2,4 C 3,9 C 89 % 1000,2 hPa 0,0 l/m 10,8 km/h (2 Bft) S 178 0 min 0,000 mm 0,0 UV-I 19 W/m 0,8 C -1,4 C 17,7 km/h (3 Bft) 95,74 %
14.12.2017 08:54 2,6 C 3,9 C 89 % 1000,1 hPa 0,0 l/m 12,4 km/h (3 Bft) S-SW 213 0 min 0,000 mm 0,0 UV-I 18 W/m 1,0 C -2,3 C 16,1 km/h (3 Bft) 97,92 %
14.12.2017 08:56 2,8 C 3,9 C 88 % 1000,2 hPa 0,0 l/m 13,7 km/h (3 Bft) S 190 0 min 0,000 mm 0,0 UV-I 28 W/m 1,0 C -2,8 C 19,3 km/h (3 Bft) 95,74 %
14.12.2017 08:58 3,0 C 3,9 C 87 % 1000,2 hPa 0,0 l/m 13,7 km/h (3 Bft) S-SW 212 0 min 0,000 mm 0,0 UV-I 36 W/m 1,1 C -2,6 C 17,7 km/h (3 Bft) 98,00 %
14.12.2017 09:00 3,3 C 3,9 C 87 % 1000,3 hPa 0,0 l/m 16,1 km/h (3 Bft) SW 236 0 min 0,000 mm 0,0 UV-I 33 W/m 1,3 C -3,6 C 25,7 km/h (4 Bft) 97,87 %
14.12.2017 09:02 3,6 C 3,9 C 86 % 1000,6 hPa 0,0 l/m 16,5 km/h (3 Bft) W-SW 244 0 min 0,000 mm 0,0 UV-I 30 W/m 1,5 C -3,4 C 24,1 km/h (4 Bft) 97,87 %
14.12.2017 09:04 3,9 C 3,9 C 84 % 1001,4 hPa 0,0 l/m 22,0 km/h (4 Bft) SW 225 0 min 0,000 mm 0,0 UV-I 25 W/m 1,4 C -5,4 C 33,8 km/h (5 Bft) 98,00 %
14.12.2017 09:06 4,1 C 3,9 C 84 % 1002,5 hPa 0,2 l/m 32,8 km/h (5 Bft) W 259 0 min 0,000 mm 0,0 UV-I 19 W/m 1,6 C -8,3 C 59,5 km/h (7 Bft) 97,87 %
14.12.2017 09:08 4,2 C 3,9 C 85 % 1003,1 hPa 0,0 l/m 27,6 km/h (4 Bft) W-SW 249 0 min 0,000 mm 0,0 UV-I 12 W/m 1,9 C -6,8 C 64,4 km/h (8 Bft) 93,62 %
14.12.2017 09:10 3,8 C 3,9 C 85 % 1003,3 hPa 0,0 l/m 27,1 km/h (4 Bft) W 281 0 min 0,000 mm 0,0 UV-I 14 W/m 1,5 C -7,2 C 56,3 km/h (7 Bft) 95,74 %
14.12.2017 09:12 3,3 C 3,9 C 87 % 1003,3 hPa 0,0 l/m 35,3 km/h (5 Bft) W-SW 246 0 min 0,000 mm 0,0 UV-I 24 W/m 1,3 C -10,1 C 74,0 km/h (8 Bft) 95,74 %
14.12.2017 09:14 2,9 C 3,9 C 89 % 1003,5 hPa 0,0 l/m 24,5 km/h (4 Bft) W 259 0 min 0,000 mm 0,0 UV-I 28 W/m 1,3 C -7,6 C 45,1 km/h (6 Bft) 97,87 %
14.12.2017 09:16 2,8 C 3,9 C 90 % 1003,7 hPa 0,0 l/m 24,7 km/h (4 Bft) W-SW 250 0 min 0,000 mm 0,0 UV-I 26 W/m 1,3 C -7,8 C 45,1 km/h (6 Bft) 97,87 %
14.12.2017 09:18 2,7 C 3,9 C 91 % 1003,7 hPa 0,0 l/m 23,8 km/h (4 Bft) W-SW 252 0 min 0,000 mm 0,0 UV-I 28 W/m 1,4 C -7,6 C 40,2 km/h (6 Bft) 100,00 %
14.12.2017 09:20 2,8 C 3,9 C 91 % 1003,6 hPa 0,0 l/m 29,7 km/h (5 Bft) W 269 0 min 0,000 mm 0,0 UV-I 29 W/m 1,5 C -9,4 C 49,9 km/h (6 Bft) 97,87 %
14.12.2017 09:22 2,8 C 3,9 C 91 % 1003,6 hPa 0,0 l/m 25,2 km/h (4 Bft) W 267 0 min 0,000 mm 0,0 UV-I 36 W/m 1,5 C -8,0 C 43,5 km/h (6 Bft) 93,62 %
14.12.2017 09:24 2,8 C 3,9 C 91 % 1003,7 hPa 0,0 l/m 22,2 km/h (4 Bft) SW 225 0 min 0,000 mm 0,0 UV-I 36 W/m 1,5 C -6,9 C 33,8 km/h (5 Bft) 100,00 %
14.12.2017 09:26 2,8 C 3,9 C 91 % 1003,7 hPa 0,0 l/m 19,0 km/h (3 Bft) W 259 0 min 0,000 mm 0,0 UV-I 33 W/m 1,5 C -5,6 C 24,1 km/h (4 Bft) 100,00 %
14.12.2017 09:28 2,8 C 3,9 C 91 % 1003,6 hPa 0,0 l/m 22,6 km/h (4 Bft) W 270 0 min 0,000 mm 0,0 UV-I 31 W/m 1,5 C -7,1 C 32,2 km/h (5 Bft) 100,00 %
14.12.2017 09:30 2,8 C 3,9 C 91 % 1003,4 hPa 0,0 l/m 22,6 km/h (4 Bft) W-SW 257 0 min 0,000 mm 0,0 UV-I 27 W/m 1,5 C -7,1 C 32,2 km/h (5 Bft) 94,74 %
14.12.2017 09:32 2,8 C 3,9 C 90 % 1003,4 hPa 0,0 l/m 21,8 km/h (4 Bft) W 261 0 min 0,000 mm 0,0 UV-I 41 W/m 1,3 C -6,8 C 30,6 km/h (5 Bft) 97,87 %
14.12.2017 09:34 2,9 C 3,9 C 90 % 1003,5 hPa 0,0 l/m 19,9 km/h (4 Bft) W 262 0 min 0,000 mm 0,0 UV-I 47 W/m 1,4 C -5,8 C 38,6 km/h (5 Bft) 97,92 %
14.12.2017 09:36 2,9 C 3,9 C 89 % 1003,4 hPa 0,0 l/m 16,8 km/h (3 Bft) W-SW 254 0 min 0,000 mm 0,0 UV-I 47 W/m 1,3 C -4,4 C 24,1 km/h (4 Bft) 97,14 %
14.12.2017 09:38 2,9 C 3,9 C 89 % 1003,4 hPa 0,0 l/m 17,7 km/h (3 Bft) W-SW 245 0 min 0,000 mm 0,0 UV-I 54 W/m 1,3 C -4,8 C 24,1 km/h (4 Bft) 96,77 %
14.12.2017 09:40 2,9 C 3,9 C 89 % 1003,5 hPa 0,0 l/m 17,9 km/h (3 Bft) W-SW 239 0 min 0,000 mm 0,0 UV-I 52 W/m 1,3 C -4,9 C 25,7 km/h (4 Bft) 97,87 %
14.12.2017 09:42 3,0 C 3,9 C 89 % 1003,5 hPa 0,0 l/m 22,7 km/h (4 Bft) W 268 0 min 0,000 mm 0,0 UV-I 44 W/m 1,4 C -6,8 C 35,4 km/h (5 Bft) 97,87 %
14.12.2017 09:44 3,1 C 3,9 C 88 % 1003,3 hPa 0,0 l/m 20,2 km/h (4 Bft) SW 234 0 min 0,000 mm 0,0 UV-I 40 W/m 1,3 C -5,7 C 32,2 km/h (5 Bft) 97,56 %
14.12.2017 09:46 3,1 C 3,9 C 88 % 1003,2 hPa 0,0 l/m 17,8 km/h (3 Bft) SW 217 0 min 0,000 mm 0,0 UV-I 39 W/m 1,3 C -4,6 C 27,4 km/h (4 Bft) 97,87 %
14.12.2017 09:48 3,2 C 3,9 C 87 % 1003,3 hPa 0,0 l/m 19,2 km/h (3 Bft) W-SW 254 0 min 0,000 mm 0,0 UV-I 36 W/m 1,2 C -5,2 C 29,0 km/h (5 Bft) 97,87 %
14.12.2017 09:50 3,2 C 3,9 C 87 % 1003,3 hPa 0,0 l/m 17,3 km/h (3 Bft) W-SW 244 0 min 0,000 mm 0,0 UV-I 30 W/m 1,2 C -4,3 C 25,7 km/h (4 Bft) 97,87 %
14.12.2017 09:52 3,1 C 3,9 C 87 % 1003,4 hPa 0,0 l/m 16,7 km/h (3 Bft) SW 229 0 min 0,000 mm 0,0 UV-I 26 W/m 1,2 C -4,1 C 24,1 km/h (4 Bft) 95,74 %
14.12.2017 09:54 3,1 C 3,9 C 87 % 1003,4 hPa 0,0 l/m 16,9 km/h (3 Bft) SW 222 0 min 0,000 mm 0,0 UV-I 25 W/m 1,2 C -4,2 C 24,1 km/h (4 Bft) 93,62 %
14.12.2017 09:56 3,1 C 3,9 C 88 % 1003,5 hPa 0,0 l/m 14,5 km/h (3 Bft) W-SW 255 0 min 0,000 mm 0,0 UV-I 24 W/m 1,3 C -2,9 C 24,1 km/h (4 Bft) 97,87 %
14.12.2017 09:58 3,1 C 3,9 C 88 % 1003,6 hPa 0,0 l/m 12,6 km/h (3 Bft) SW 219 0 min 0,000 mm 0,0 UV-I 33 W/m 1,3 C -1,8 C 17,7 km/h (3 Bft) 97,87 %
14.12.2017 10:00 3,1 C 3,9 C 88 % 1003,7 hPa 0,0 l/m 14,4 km/h (3 Bft) S-SW 209 0 min 0,025 mm 0,0 UV-I 45 W/m 1,3 C -2,9 C 22,5 km/h (4 Bft) 97,87 %
14.12.2017 10:02 3,2 C 3,9 C 88 % 1003,8 hPa 0,8 l/m 15,5 km/h (3 Bft) SW 217 0 min 0,000 mm 0,0 UV-I 45 W/m 1,4 C -3,4 C 22,5 km/h (4 Bft) 97,87 %
14.12.2017 10:04 3,2 C 3,9 C 88 % 1003,6 hPa 0,0 l/m 16,5 km/h (3 Bft) S-SW 202 0 min 0,000 mm 0,0 UV-I 42 W/m 1,4 C -3,9 C 33,8 km/h (5 Bft) 95,74 %
14.12.2017 10:06 3,3 C 3,9 C 88 % 1003,8 hPa 0,0 l/m 17,0 km/h (3 Bft) S-SW 195 0 min 0,000 mm 0,0 UV-I 46 W/m 1,5 C -4,0 C 24,1 km/h (4 Bft) 95,74 %
14.12.2017 10:08 3,4 C 3,9 C 88 % 1003,8 hPa 0,0 l/m 22,1 km/h (4 Bft) W-SW 238 0 min 0,000 mm 0,0 UV-I 51 W/m 1,6 C -6,1 C 41,8 km/h (6 Bft) 97,87 %
14.12.2017 10:10 3,5 C 3,9 C 87 % 1003,9 hPa 0,0 l/m 19,0 km/h (3 Bft) S-SW 212 0 min 0,000 mm 0,0 UV-I 55 W/m 1,5 C -4,7 C 32,2 km/h (5 Bft) 93,62 %
14.12.2017 10:12 3,5 C 3,9 C 87 % 1003,9 hPa 0,0 l/m 21,8 km/h (4 Bft) S-SW 203 0 min 0,000 mm 0,0 UV-I 63 W/m 1,5 C -5,8 C 30,6 km/h (5 Bft) 97,87 %
14.12.2017 10:14 3,6 C 3,9 C 87 % 1003,7 hPa 0,0 l/m 21,0 km/h (4 Bft) SW 223 0 min 0,000 mm 0,0 UV-I 74 W/m 1,6 C -5,4 C 30,6 km/h (5 Bft) 97,87 %
14.12.2017 10:16 3,6 C 3,9 C 87 % 1003,8 hPa 0,0 l/m 21,3 km/h (4 Bft) S 190 0 min 0,000 mm 0,0 UV-I 76 W/m 1,6 C -5,5 C 35,4 km/h (5 Bft) 95,83 %
14.12.2017 10:18 3,6 C 3,9 C 87 % 1003,9 hPa 0,0 l/m 19,1 km/h (3 Bft) S-SW 211 0 min 0,000 mm 0,0 UV-I 73 W/m 1,6 C -4,6 C 32,2 km/h (5 Bft) 94,00 %
14.12.2017 10:20 3,6 C 3,9 C 87 % 1004,0 hPa 0,0 l/m 19,8 km/h (3 Bft) W 277 0 min 0,000 mm 0,0 UV-I 69 W/m 1,6 C -4,9 C 29,0 km/h (5 Bft) 97,87 %
14.12.2017 10:22 3,6 C 3,9 C 87 % 1004,1 hPa 0,0 l/m 20,6 km/h (4 Bft) S-SW 213 0 min 0,000 mm 0,0 UV-I 63 W/m 1,6 C -5,2 C 29,0 km/h (5 Bft) 98,00 %
14.12.2017 10:24 3,6 C 3,9 C 87 % 1004,2 hPa 0,0 l/m 25,3 km/h (4 Bft) SW 229 0 min 0,000 mm 0,0 UV-I 63 W/m 1,6 C -6,9 C 40,2 km/h (6 Bft) 97,87 %
14.12.2017 10:26 3,6 C 3,9 C 86 % 1004,3 hPa 0,0 l/m 19,0 km/h (3 Bft) SW 219 0 min 0,000 mm 0,0 UV-I 62 W/m 1,5 C -4,6 C 27,4 km/h (4 Bft) 97,14 %
14.12.2017 10:28 3,7 C 3,9 C 87 % 1004,7 hPa 0,0 l/m 24,7 km/h (4 Bft) SW 236 0 min 0,000 mm 0,0 UV-I 51 W/m 1,7 C -6,6 C 35,4 km/h (5 Bft) 97,87 %
14.12.2017 10:30 3,7 C 3,9 C 86 % 1004,8 hPa 0,0 l/m 30,1 km/h (5 Bft) SW 227 0 min 0,000 mm 0,0 UV-I 45 W/m 1,6 C -8,2 C 45,1 km/h (6 Bft) 93,62 %
14.12.2017 10:32 3,8 C 3,9 C 85 % 1004,8 hPa 0,0 l/m 29,0 km/h (5 Bft) SW 219 0 min 0,000 mm 0,0 UV-I 51 W/m 1,5 C -7,8 C 46,7 km/h (6 Bft) 95,74 %
14.12.2017 10:34 3,9 C 3,9 C 85 % 1004,4 hPa 0,0 l/m 26,7 km/h (4 Bft) W-SW 242 0 min 0,000 mm 0,0 UV-I 48 W/m 1,6 C -7,0 C 54,7 km/h (7 Bft) 97,87 %
14.12.2017 10:36 4,0 C 3,9 C 83 % 1004,5 hPa 0,0 l/m 26,4 km/h (4 Bft) SW 227 0 min 0,000 mm 0,0 UV-I 46 W/m 1,4 C -6,7 C 41,8 km/h (6 Bft) 98,00 %
14.12.2017 10:38 4,1 C 3,9 C 82 % 1004,2 hPa 0,0 l/m 28,8 km/h (4 Bft) W-SW 245 0 min 0,000 mm 0,0 UV-I 49 W/m 1,3 C -7,3 C 43,5 km/h (6 Bft) 95,83 %
14.12.2017 10:40 4,2 C 3,9 C 81 % 1004,4 hPa 0,0 l/m 28,1 km/h (4 Bft) W 261 0 min 0,000 mm 0,0 UV-I 54 W/m 1,2 C -7,0 C 40,2 km/h (6 Bft) 100,00 %
14.12.2017 10:42 4,2 C 3,9 C 80 % 1004,6 hPa 0,0 l/m 24,7 km/h (4 Bft) S-SW 205 0 min 0,000 mm 0,0 UV-I 60 W/m 1,1 C -5,9 C 38,6 km/h (5 Bft) 97,87 %
14.12.2017 10:44 4,3 C 3,9 C 79 % 1004,6 hPa 0,0 l/m 30,9 km/h (5 Bft) W-SW 245 0 min 0,000 mm 0,0 UV-I 59 W/m 1,0 C -7,6 C 45,1 km/h (6 Bft) 95,74 %
14.12.2017 10:46 4,3 C 3,9 C 79 % 1004,7 hPa 0,0 l/m 28,1 km/h (4 Bft) W-SW 245 0 min 0,000 mm 0,0 UV-I 50 W/m 1,0 C -6,8 C 48,3 km/h (6 Bft) 95,74 %
14.12.2017 10:48 4,2 C 3,9 C 79 % 1004,8 hPa 0,0 l/m 31,3 km/h (5 Bft) W-SW 244 0 min 0,000 mm 0,0 UV-I 51 W/m 0,9 C -7,8 C 46,7 km/h (6 Bft) 93,75 %
14.12.2017 10:50 4,2 C 3,9 C 79 % 1004,6 hPa 0,0 l/m 27,2 km/h (4 Bft) W-SW 248 0 min 0,000 mm 0,0 UV-I 56 W/m 0,9 C -6,7 C 38,6 km/h (5 Bft) 97,87 %
14.12.2017 10:52 4,2 C 3,9 C 79 % 1004,5 hPa 0,0 l/m 24,8 km/h (4 Bft) S-SW 199 0 min 0,000 mm 0,0 UV-I 56 W/m 0,9 C -6,0 C 41,8 km/h (6 Bft) 97,62 %
14.12.2017 10:54 4,2 C 3,9 C 79 % 1004,6 hPa 0,0 l/m 26,9 km/h (4 Bft) SW 223 0 min 0,000 mm 0,0 UV-I 54 W/m 0,9 C -6,6 C 43,5 km/h (6 Bft) 98,00 %
14.12.2017 10:56 4,2 C 3,9 C 79 % 1004,6 hPa 0,0 l/m 22,3 km/h (4 Bft) SW 218 0 min 0,000 mm 0,0 UV-I 50 W/m 0,9 C -5,1 C 32,2 km/h (5 Bft) 91,84 %
14.12.2017 10:58 4,2 C 3,9 C 79 % 1004,6 hPa 0,0 l/m 24,4 km/h (4 Bft) W-SW 250 0 min 0,000 mm 0,0 UV-I 46 W/m 0,9 C -5,8 C 35,4 km/h (5 Bft) 93,75 %
14.12.2017 11:00 4,2 C 3,9 C 78 % 1004,7 hPa 0,0 l/m 28,2 km/h (4 Bft) S-SW 213 0 min 0,051 mm 0,0 UV-I 45 W/m 0,7 C -7,0 C 48,3 km/h (6 Bft) 93,62 %
14.12.2017 11:02 4,2 C 3,9 C 78 % 1004,5 hPa 0,0 l/m 25,5 km/h (4 Bft) SW 223 0 min 0,000 mm 0,0 UV-I 39 W/m 0,7 C -6,2 C 41,8 km/h (6 Bft) 97,87 %
14.12.2017 11:04 4,2 C 3,9 C 78 % 1004,2 hPa 0,0 l/m 22,1 km/h (4 Bft) S-SW 201 0 min 0,000 mm 0,0 UV-I 36 W/m 0,7 C -5,0 C 40,2 km/h (6 Bft) 97,87 %
14.12.2017 11:06 4,2 C 3,9 C 77 % 1004,2 hPa 0,0 l/m 25,1 km/h (4 Bft) SW 219 0 min 0,000 mm 0,0 UV-I 40 W/m 0,5 C -6,1 C 40,2 km/h (6 Bft) 97,37 %
14.12.2017 11:08 4,2 C 3,9 C 77 % 1004,2 hPa 0,0 l/m 21,1 km/h (4 Bft) S-SW 211 0 min 0,000 mm 0,0 UV-I 39 W/m 0,5 C -4,6 C 32,2 km/h (5 Bft) 98,00 %
14.12.2017 11:10 4,2 C 3,9 C 77 % 1004,1 hPa 0,0 l/m 23,6 km/h (4 Bft) S-SW 196 0 min 0,000 mm 0,0 UV-I 43 W/m 0,5 C -5,6 C 40,2 km/h (6 Bft) 97,87 %
14.12.2017 11:12 4,2 C 3,9 C 76 % 1004,2 hPa 0,0 l/m 22,1 km/h (4 Bft) S-SW 205 0 min 0,000 mm 0,0 UV-I 48 W/m 0,4 C -5,0 C 35,4 km/h (5 Bft) 97,87 %
14.12.2017 11:14 4,2 C 3,9 C 76 % 1004,0 hPa 0,0 l/m 21,7 km/h (4 Bft) S 178 0 min 0,000 mm 0,0 UV-I 46 W/m 0,4 C -4,9 C 35,4 km/h (5 Bft) 95,74 %
14.12.2017 11:16 4,2 C 3,9 C 76 % 1004,0 hPa 0,0 l/m 24,6 km/h (4 Bft) SW 232 0 min 0,000 mm 0,0 UV-I 40 W/m 0,4 C -5,9 C 40,2 km/h (6 Bft) 97,87 %
14.12.2017 11:18 4,2 C 3,9 C 75 % 1004,3 hPa 0,0 l/m 20,8 km/h (4 Bft) S-SW 198 0 min 0,000 mm 0,0 UV-I 37 W/m 0,2 C -4,5 C 32,2 km/h (5 Bft) 95,74 %
14.12.2017 11:20 4,2 C 3,9 C 75 % 1004,3 hPa 0,0 l/m 21,1 km/h (4 Bft) W-SW 238 0 min 0,000 mm 0,0 UV-I 41 W/m 0,2 C -4,6 C 40,2 km/h (6 Bft) 97,87 %
14.12.2017 11:22 4,3 C 3,9 C 74 % 1004,3 hPa 0,0 l/m 23,7 km/h (4 Bft) S-SW 194 0 min 0,000 mm 0,0 UV-I 54 W/m 0,1 C -5,5 C 37,0 km/h (5 Bft) 95,74 %
14.12.2017 11:24 4,3 C 3,9 C 74 % 1004,4 hPa 0,0 l/m 20,3 km/h (4 Bft) W 269 0 min 0,000 mm 0,0 UV-I 73 W/m 0,1 C -4,2 C 35,4 km/h (5 Bft) 95,74 %
14.12.2017 11:26 4,3 C 3,9 C 73 % 1004,4 hPa 0,0 l/m 23,7 km/h (4 Bft) S-SW 204 0 min 0,000 mm 0,0 UV-I 64 W/m -0,1 C -5,5 C 37,0 km/h (5 Bft) 96,00 %
14.12.2017 11:28 4,3 C 3,9 C 73 % 1004,5 hPa 0,0 l/m 22,9 km/h (4 Bft) S 186 0 min 0,000 mm 0,0 UV-I 61 W/m -0,1 C -5,2 C 35,4 km/h (5 Bft) 97,87 %
14.12.2017 11:30 4,3 C 3,9 C 73 % 1004,5 hPa 0,0 l/m 27,7 km/h (4 Bft) S-SW 208 0 min 0,000 mm 0,0 UV-I 49 W/m -0,1 C -6,7 C 43,5 km/h (6 Bft) 91,49 %
14.12.2017 11:32 4,3 C 3,9 C 72 % 1004,6 hPa 0,0 l/m 21,5 km/h (4 Bft) W-SW 240 0 min 0,000 mm 0,0 UV-I 42 W/m -0,3 C -4,7 C 35,4 km/h (5 Bft) 97,87 %
14.12.2017 11:34 4,3 C 3,9 C 73 % 1004,5 hPa 0,0 l/m 21,0 km/h (4 Bft) S 190 0 min 0,000 mm 0,0 UV-I 46 W/m -0,1 C -4,5 C 43,5 km/h (6 Bft) 97,87 %
14.12.2017 11:36 4,3 C 3,9 C 73 % 1004,6 hPa 0,0 l/m 24,1 km/h (4 Bft) W-SW 238 0 min 0,000 mm 0,0 UV-I 48 W/m -0,1 C -5,6 C 37,0 km/h (5 Bft) 95,74 %
14.12.2017 11:38 4,2 C 3,9 C 73 % 1004,5 hPa 0,0 l/m 23,0 km/h (4 Bft) W-SW 240 0 min 0,000 mm 0,0 UV-I 48 W/m -0,2 C -5,3 C 38,6 km/h (5 Bft) 100,00 %
14.12.2017 11:40 4,2 C 3,9 C 73 % 1004,6 hPa 0,0 l/m 19,4 km/h (3 Bft) SW 229 0 min 0,000 mm 0,0 UV-I 50 W/m -0,2 C -4,0 C 27,4 km/h (4 Bft) 100,00 %
14.12.2017 11:42 4,1 C 3,9 C 74 % 1004,5 hPa 0,0 l/m 18,9 km/h (3 Bft) W-SW 254 0 min 0,000 mm 0,0 UV-I 54 W/m -0,1 C -3,9 C 30,6 km/h (5 Bft) 97,87 %
14.12.2017 11:44 4,1 C 3,9 C 74 % 1004,9 hPa 0,0 l/m 22,5 km/h (4 Bft) W-SW 241 0 min 0,000 mm 0,0 UV-I 58 W/m -0,1 C -5,3 C 32,2 km/h (5 Bft) 97,87 %
14.12.2017 11:46 4,1 C 3,9 C 74 % 1004,9 hPa 0,0 l/m 20,6 km/h (4 Bft) W-SW 240 0 min 0,000 mm 0,0 UV-I 55 W/m -0,1 C -4,6 C 33,8 km/h (5 Bft) 97,87 %
14.12.2017 11:48 4,2 C 3,9 C 73 % 1005,0 hPa 0,0 l/m 25,4 km/h (4 Bft) SW 232 0 min 0,000 mm 0,0 UV-I 57 W/m -0,2 C -6,2 C 40,2 km/h (6 Bft) 100,00 %
14.12.2017 11:50 4,2 C 3,9 C 73 % 1004,9 hPa 0,0 l/m 26,0 km/h (4 Bft) S-SW 202 0 min 0,000 mm 0,0 UV-I 67 W/m -0,2 C -6,3 C 37,0 km/h (5 Bft) 97,37 %
14.12.2017 11:52 4,2 C 3,9 C 73 % 1004,9 hPa 0,0 l/m 21,7 km/h (4 Bft) SW 224 0 min 0,000 mm 0,0 UV-I 69 W/m -0,2 C -4,9 C 35,4 km/h (5 Bft) 97,87 %
14.12.2017 11:54 4,2 C 3,9 C 74 % 1005,0 hPa 0,0 l/m 19,4 km/h (3 Bft) W 259 0 min 0,000 mm 0,0 UV-I 68 W/m -0,0 C -4,0 C 29,0 km/h (5 Bft) 95,74 %
14.12.2017 11:56 4,2 C 3,9 C 73 % 1004,9 hPa 0,0 l/m 19,9 km/h (4 Bft) W-SW 250 0 min 0,000 mm 0,0 UV-I 71 W/m -0,2 C -4,2 C 32,2 km/h (5 Bft) 96,23 %
14.12.2017 11:58 4,2 C 3,9 C 74 % 1004,9 hPa 0,0 l/m 18,0 km/h (3 Bft) SW 216 0 min 0,000 mm 0,0 UV-I 82 W/m -0,0 C -3,4 C 29,0 km/h (5 Bft) 100,00 %
14.12.2017 12:00 4,2 C 3,9 C 74 % 1005,1 hPa 0,0 l/m 22,2 km/h (4 Bft) SW 222 0 min 0,076 mm 0,0 UV-I 83 W/m -0,0 C -5,1 C 33,8 km/h (5 Bft) 100,00 %
14.12.2017 12:02 4,2 C 3,9 C 73 % 1005,2 hPa 0,0 l/m 21,0 km/h (4 Bft) SW 229 0 min 0,000 mm 0,0 UV-I 79 W/m -0,2 C -4,6 C 29,0 km/h (5 Bft) 97,87 %
14.12.2017 12:04 4,2 C 3,9 C 74 % 1005,1 hPa 0,0 l/m 17,1 km/h (3 Bft) W-SW 247 0 min 0,000 mm 0,0 UV-I 66 W/m -0,0 C -2,9 C 27,4 km/h (4 Bft) 97,87 %
14.12.2017 12:06 4,2 C 3,9 C 73 % 1005,2 hPa 0,0 l/m 19,6 km/h (3 Bft) W-SW 247 0 min 0,000 mm 0,0 UV-I 55 W/m -0,2 C -4,0 C 29,0 km/h (5 Bft) 97,87 %
14.12.2017 12:08 4,2 C 3,9 C 73 % 1005,1 hPa 0,0 l/m 14,4 km/h (3 Bft) SW 224 0 min 0,000 mm 0,0 UV-I 49 W/m -0,2 C -1,6 C 24,1 km/h (4 Bft) 97,87 %
14.12.2017 12:10 4,2 C 3,9 C 73 % 1005,2 hPa 0,0 l/m 18,9 km/h (3 Bft) W-SW 258 0 min 0,000 mm 0,0 UV-I 50 W/m -0,2 C -3,7 C 29,0 km/h (5 Bft) 100,00 %
14.12.2017 12:12 4,2 C 3,9 C 73 % 1005,0 hPa 0,0 l/m 21,4 km/h (4 Bft) W 260 0 min 0,000 mm 0,0 UV-I 48 W/m -0,2 C -4,8 C 32,2 km/h (5 Bft) 95,74 %
14.12.2017 12:14 4,2 C 3,9 C 73 % 1005,0 hPa 0,0 l/m 20,2 km/h (4 Bft) W-SW 245 0 min 0,000 mm 0,0 UV-I 46 W/m -0,2 C -4,3 C 30,6 km/h (5 Bft) 100,00 %
14.12.2017 12:16 4,2 C 3,9 C 73 % 1004,9 hPa 0,0 l/m 16,9 km/h (3 Bft) W-SW 250 0 min 0,000 mm 0,0 UV-I 43 W/m -0,2 C -2,8 C 25,7 km/h (4 Bft) 97,87 %
14.12.2017 12:18 4,2 C 3,9 C 73 % 1004,9 hPa 0,0 l/m 17,7 km/h (3 Bft) W-SW 250 0 min 0,000 mm 0,0 UV-I 40 W/m -0,2 C -3,2 C 27,4 km/h (4 Bft) 100,00 %
14.12.2017 12:20 4,1 C 3,9 C 73 % 1004,9 hPa 0,0 l/m 17,2 km/h (3 Bft) W-SW 258 0 min 0,000 mm 0,0 UV-I 42 W/m -0,3 C -3,1 C 24,1 km/h (4 Bft) 100,00 %
14.12.2017 12:22 4,1 C 3,9 C 73 % 1004,9 hPa 0,0 l/m 16,6 km/h (3 Bft) SW 224 0 min 0,000 mm 0,0 UV-I 44 W/m -0,3 C -2,8 C 22,5 km/h (4 Bft) 97,87 %
14.12.2017 12:24 4,1 C 3,9 C 73 % 1005,0 hPa 0,0 l/m 13,1 km/h (3 Bft) W-SW 244 0 min 0,000 mm 0,0 UV-I 47 W/m -0,3 C -1,0 C 20,9 km/h (4 Bft) 100,00 %
14.12.2017 12:26 4,1 C 3,9 C 73 % 1005,0 hPa 0,0 l/m 12,0 km/h (2 Bft) W-SW 255 0 min 0,000 mm 0,0 UV-I 48 W/m -0,3 C -0,3 C 17,7 km/h (3 Bft) 96,00 %
14.12.2017 12:28 4,1 C 3,9 C 74 % 1004,9 hPa 0,0 l/m 12,9 km/h (3 Bft) SW 228 0 min 0,000 mm 0,0 UV-I 51 W/m -0,1 C -0,8 C 17,7 km/h (3 Bft) 95,74 %
14.12.2017 12:30 4,1 C 3,9 C 74 % 1004,9 hPa 0,0 l/m 14,3 km/h (3 Bft) W 259 0 min 0,000 mm 0,0 UV-I 55 W/m -0,1 C -1,6 C 20,9 km/h (4 Bft) 100,00 %
14.12.2017 12:32 4,1 C 3,9 C 73 % 1004,8 hPa 0,0 l/m 9,4 km/h (2 Bft) W-NW 283 0 min 0,000 mm 0,0 UV-I 54 W/m -0,3 C 1,5 C 14,5 km/h (3 Bft) 97,87 %
14.12.2017 12:34 4,1 C 3,9 C 73 % 1004,8 hPa 0,0 l/m 13,2 km/h (3 Bft) W-SW 255 0 min 0,000 mm 0,0 UV-I 51 W/m -0,3 C -1,0 C 19,3 km/h (3 Bft) 97,87 %
14.12.2017 12:36 4,1 C 3,9 C 73 % 1004,8 hPa 0,0 l/m 11,8 km/h (2 Bft) W-SW 248 0 min 0,000 mm 0,0 UV-I 51 W/m -0,3 C -0,2 C 17,7 km/h (3 Bft) 100,00 %
14.12.2017 12:38 4,1 C 3,9 C 73 % 1004,8 hPa 0,0 l/m 10,2 km/h (2 Bft) W 259 0 min 0,000 mm 0,0 UV-I 62 W/m -0,3 C 0,9 C 14,5 km/h (3 Bft) 100,00 %
14.12.2017 12:40 4,1 C 3,9 C 74 % 1004,7 hPa 0,0 l/m 9,2 km/h (2 Bft) SW 232 0 min 0,000 mm 0,0 UV-I 82 W/m -0,1 C 1,7 C 12,9 km/h (3 Bft) 97,87 %
14.12.2017 12:42 4,1 C 3,9 C 73 % 1004,7 hPa 0,0 l/m 11,7 km/h (2 Bft) S-SW 193 0 min 0,000 mm 0,0 UV-I 100 W/m -0,3 C -0,1 C 19,3 km/h (3 Bft) 100,00 %
14.12.2017 12:44 4,1 C 3,9 C 73 % 1004,7 hPa 0,0 l/m 10,2 km/h (2 Bft) W-SW 238 0 min 0,000 mm 0,0 UV-I 107 W/m -0,3 C 0,9 C 14,5 km/h (3 Bft) 97,87 %
14.12.2017 12:46 4,1 C 3,9 C 74 % 1004,7 hPa 0,0 l/m 11,0 km/h (2 Bft) W-SW 246 0 min 0,000 mm 0,0 UV-I 117 W/m -0,1 C 0,4 C 17,7 km/h (3 Bft) 100,00 %
14.12.2017 12:48 4,2 C 3,9 C 74 % 1004,7 hPa 0,0 l/m 10,2 km/h (2 Bft) W-SW 243 0 min 0,000 mm 0,0 UV-I 116 W/m -0,0 C 1,0 C 17,7 km/h (3 Bft) 97,87 %
14.12.2017 12:50 4,2 C 3,9 C 73 % 1004,7 hPa 0,0 l/m 10,7 km/h (2 Bft) W-SW 244 0 min 0,000 mm 0,0 UV-I 97 W/m -0,2 C 0,7 C 14,5 km/h (3 Bft) 100,00 %
14.12.2017 12:52 4,2 C 3,9 C 73 % 1004,7 hPa 0,0 l/m 9,5 km/h (2 Bft) SW 234 0 min 0,000 mm 0,0 UV-I 97 W/m -0,2 C 1,6 C 17,7 km/h (3 Bft) 97,87 %
14.12.2017 12:54 4,3 C 3,9 C 72 % 1004,8 hPa 0,0 l/m 12,8 km/h (3 Bft) SW 233 0 min 0,000 mm 0,0 UV-I 118 W/m -0,3 C -0,5 C 19,3 km/h (3 Bft) 100,00 %
14.12.2017 12:56 4,3 C 3,9 C 72 % 1004,8 hPa 0,0 l/m 11,2 km/h (2 Bft) SW 225 0 min 0,000 mm 0,0 UV-I 137 W/m -0,3 C 0,5 C 16,1 km/h (3 Bft) 97,96 %
14.12.2017 12:58 4,3 C 3,9 C 72 % 1004,8 hPa 0,0 l/m 11,2 km/h (2 Bft) SW 219 0 min 0,000 mm 0,0 UV-I 144 W/m -0,3 C 0,5 C 16,1 km/h (3 Bft) 100,00 %
14.12.2017 13:00 4,3 C 3,9 C 72 % 1004,8 hPa 0,0 l/m 10,5 km/h (2 Bft) SW 216 0 min 0,051 mm 0,0 UV-I 130 W/m -0,3 C 0,9 C 16,1 km/h (3 Bft) 97,87 %
14.12.2017 13:02 4,3 C 3,9 C 72 % 1004,7 hPa 0,0 l/m 12,8 km/h (3 Bft) W 265 0 min 0,000 mm 0,0 UV-I 118 W/m -0,3 C -0,5 C 19,3 km/h (3 Bft) 97,87 %
14.12.2017 13:04 4,4 C 3,9 C 72 % 1004,6 hPa 0,0 l/m 9,1 km/h (2 Bft) S-SW 213 0 min 0,000 mm 0,0 UV-I 104 W/m -0,2 C 2,1 C 16,1 km/h (3 Bft) 100,00 %
14.12.2017 13:06 4,4 C 3,9 C 71 % 1004,5 hPa 0,0 l/m 9,7 km/h (2 Bft) SW 227 0 min 0,000 mm 0,0 UV-I 95 W/m -0,4 C 1,6 C 17,7 km/h (3 Bft) 100,00 %
14.12.2017 13:08 4,4 C 3,9 C 71 % 1004,4 hPa 0,0 l/m 7,7 km/h (2 Bft) SW 234 0 min 0,000 mm 0,0 UV-I 86 W/m -0,4 C 3,2 C 12,9 km/h (3 Bft) 100,00 %
14.12.2017 13:10 4,4 C 3,9 C 71 % 1004,4 hPa 0,0 l/m 6,2 km/h (2 Bft) W-SW 252 0 min 0,000 mm 0,0 UV-I 69 W/m -0,4 C 4,4 C 11,3 km/h (2 Bft) 97,87 %
14.12.2017 13:12 4,4 C 3,9 C 71 % 1004,3 hPa 0,0 l/m 9,0 km/h (2 Bft) W-SW 247 0 min 0,000 mm 0,0 UV-I 68 W/m -0,4 C 2,2 C 16,1 km/h (3 Bft) 97,87 %
14.12.2017 13:14 4,4 C 3,9 C 70 % 1004,3 hPa 0,0 l/m 8,9 km/h (2 Bft) W 260 0 min 0,000 mm 0,0 UV-I 93 W/m -0,6 C 2,2 C 12,9 km/h (3 Bft) 97,87 %
14.12.2017 13:16 4,4 C 3,9 C 70 % 1004,3 hPa 0,0 l/m 9,9 km/h (2 Bft) W 266 0 min 0,000 mm 0,0 UV-I 97 W/m -0,6 C 1,5 C 16,1 km/h (3 Bft) 95,74 %
14.12.2017 13:18 4,4 C 3,9 C 70 % 1004,3 hPa 0,0 l/m 7,2 km/h (2 Bft) W 267 0 min 0,000 mm 0,0 UV-I 83 W/m -0,6 C 3,7 C 11,3 km/h (2 Bft) 97,87 %
14.12.2017 13:20 4,4 C 3,9 C 70 % 1004,3 hPa 0,0 l/m 9,4 km/h (2 Bft) W 259 0 min 0,000 mm 0,0 UV-I 91 W/m -0,6 C 1,9 C 14,5 km/h (3 Bft) 97,87 %
14.12.2017 13:22 4,4 C 3,9 C 70 % 1004,3 hPa 0,0 l/m 9,2 km/h (2 Bft) W-SW 257 0 min 0,000 mm 0,0 UV-I 103 W/m -0,6 C 2,0 C 14,5 km/h (3 Bft) 97,87 %
14.12.2017 13:24 4,4 C 3,9 C 70 % 1004,3 hPa 0,0 l/m 7,9 km/h (2 Bft) W-SW 251 0 min 0,000 mm 0,0 UV-I 84 W/m -0,6 C 3,1 C 14,5 km/h (3 Bft) 97,87 %
14.12.2017 13:26 4,4 C 3,9 C 69 % 1004,3 hPa 0,0 l/m 6,9 km/h (2 Bft) W-SW 244 0 min 0,000 mm 0,0 UV-I 75 W/m -0,8 C 4,0 C 12,9 km/h (3 Bft) 97,92 %
14.12.2017 13:28 4,4 C 3,9 C 69 % 1004,3 hPa 0,0 l/m 7,2 km/h (2 Bft) W-NW 284 0 min 0,000 mm 0,0 UV-I 104 W/m -0,8 C 3,7 C 14,5 km/h (3 Bft) 97,87 %
14.12.2017 13:30 4,5 C 3,9 C 69 % 1004,2 hPa 0,0 l/m 7,2 km/h (2 Bft) W 265 0 min 0,000 mm 0,0 UV-I 146 W/m -0,7 C 3,8 C 12,9 km/h (3 Bft) 97,87 %
14.12.2017 13:32 4,6 C 3,9 C 68 % 1004,1 hPa 0,0 l/m 5,7 km/h (1 Bft) W 261 0 min 0,000 mm 0,0 UV-I 123 W/m -0,8 C 4,6 C 11,3 km/h (2 Bft) 95,74 %
14.12.2017 13:34 4,7 C 3,9 C 68 % 1004,2 hPa 0,0 l/m 6,9 km/h (2 Bft) W-SW 256 0 min 0,000 mm 0,0 UV-I 144 W/m -0,7 C 4,3 C 11,3 km/h (2 Bft) 97,92 %
14.12.2017 13:36 4,7 C 3,9 C 67 % 1004,2 hPa 0,0 l/m 5,7 km/h (1 Bft) W 263 0 min 0,000 mm 0,0 UV-I 140 W/m -0,9 C 4,7 C 9,7 km/h (2 Bft) 97,87 %
14.12.2017 13:38 4,8 C 3,9 C 68 % 1004,1 hPa 0,0 l/m 5,5 km/h (1 Bft) W-SW 246 0 min 0,000 mm 0,0 UV-I 109 W/m -0,6 C 4,8 C 9,7 km/h (2 Bft) 97,87 %
14.12.2017 13:40 4,8 C 3,9 C 68 % 1004,0 hPa 0,0 l/m 2,3 km/h (1 Bft) W-SW 246 0 min 0,000 mm 0,0 UV-I 92 W/m -0,6 C 4,8 C 4,8 km/h (1 Bft) 97,87 %
14.12.2017 13:42 4,8 C 3,9 C 67 % 1003,9 hPa 0,0 l/m 2,7 km/h (1 Bft) W-SW 246 0 min 0,000 mm 0,0 UV-I 88 W/m -0,8 C 4,8 C 6,4 km/h (2 Bft) 95,74 %
14.12.2017 13:44 4,8 C 3,9 C 67 % 1004,0 hPa 0,0 l/m 2,7 km/h (1 Bft) W-SW 246 0 min 0,000 mm 0,0 UV-I 97 W/m -0,8 C 4,8 C 4,8 km/h (1 Bft) 95,74 %
14.12.2017 13:46 4,8 C 3,9 C 68 % 1004,0 hPa 0,0 l/m 1,7 km/h (1 Bft) W-SW 246 0 min 0,000 mm 0,0 UV-I 102 W/m -0,6 C 4,8 C 3,2 km/h (1 Bft) 97,87 %
14.12.2017 13:48 4,8 C 3,9 C 68 % 1004,0 hPa 0,0 l/m 1,0 km/h (0 Bft) W-SW 246 0 min 0,000 mm 0,0 UV-I 99 W/m -0,6 C 4,8 C 3,2 km/h (1 Bft) 100,00 %
14.12.2017 13:50 4,7 C 3,9 C 71 % 1003,9 hPa 0,0 l/m 1,6 km/h (1 Bft) W-SW 246 0 min 0,000 mm 0,0 UV-I 99 W/m -0,1 C 4,7 C 3,2 km/h (1 Bft) 96,00 %
14.12.2017 13:52 4,7 C 3,9 C 70 % 1004,1 hPa 0,0 l/m 1,3 km/h (1 Bft) W-SW 246 0 min 0,000 mm 0,0 UV-I 99 W/m -0,3 C 4,7 C 3,2 km/h (1 Bft) 100,00 %
14.12.2017 13:54 4,6 C 3,9 C 71 % 1004,2 hPa 0,0 l/m 0,6 km/h (0 Bft) W-SW 246 0 min 0,000 mm 0,0 UV-I 96 W/m -0,2 C 4,6 C 3,2 km/h (1 Bft) 95,74 %
14.12.2017 13:56 4,5 C 3,9 C 72 % 1004,3 hPa 0,0 l/m 0,4 km/h (0 Bft) W-SW 246 0 min 0,000 mm 0,0 UV-I 86 W/m -0,1 C 4,5 C 1,6 km/h (1 Bft) 100,00 %
14.12.2017 13:58 4,6 C 3,9 C 71 % 1004,4 hPa 0,0 l/m 0,8 km/h (0 Bft) W-SW 246 0 min 0,000 mm 0,0 UV-I 83 W/m -0,2 C 4,6 C 3,2 km/h (1 Bft) 100,00 %
14.12.2017 14:00 4,7 C 3,9 C 70 % 1004,3 hPa 0,0 l/m 0,8 km/h (0 Bft) W-SW 246 0 min 0,051 mm 0,0 UV-I 81 W/m -0,3 C 4,7 C 1,6 km/h (1 Bft) 100,00 %
14.12.2017 14:02 4,6 C 3,9 C 70 % 1004,4 hPa 0,0 l/m 2,1 km/h (1 Bft) W-SW 246 0 min 0,000 mm 0,0 UV-I 78 W/m -0,4 C 4,6 C 3,2 km/h (1 Bft) 100,00 %
14.12.2017 14:04 4,6 C 3,9 C 69 % 1004,4 hPa 0,0 l/m 2,4 km/h (1 Bft) W-SW 246 0 min 0,000 mm 0,0 UV-I 73 W/m -0,6 C 4,6 C 3,2 km/h (1 Bft) 97,87 %
14.12.2017 14:06 4,6 C 3,9 C 69 % 1004,4 hPa 0,0 l/m 0,1 km/h (0 Bft) W-SW 246 0 min 0,000 mm 0,0 UV-I 64 W/m -0,6 C 4,6 C 1,6 km/h (1 Bft) 100,00 %
14.12.2017 14:08 4,6 C 3,9 C 68 % 1004,4 hPa 0,0 l/m 0,8 km/h (0 Bft) W-SW 246 0 min 0,000 mm 0,0 UV-I 56 W/m -0,8 C 4,6 C 1,6 km/h (1 Bft) 95,74 %
14.12.2017 14:10 4,7 C 3,9 C 69 % 1004,4 hPa 0,0 l/m 0,4 km/h (0 Bft) W-SW 246 0 min 0,000 mm 0,0 UV-I 46 W/m -0,5 C 4,7 C 1,6 km/h (1 Bft) 100,00 %
14.12.2017 14:12 4,8 C 3,9 C 68 % 1004,3 hPa 0,0 l/m 0,0 km/h (0 Bft) W-SW 246 0 min 0,000 mm 0,0 UV-I 40 W/m -0,6 C 4,8 C 0,0 km/h (0 Bft) 100,00 %
14.12.2017 14:14 4,8 C 3,9 C 67 % 1004,2 hPa 0,0 l/m 0,0 km/h (0 Bft) W-SW 246 0 min 0,000 mm 0,0 UV-I 41 W/m -0,8 C 4,8 C 0,0 km/h (0 Bft) 100,00 %
14.12.2017 14:16 4,7 C 3,9 C 68 % 1004,3 hPa 0,0 l/m 0,0 km/h (0 Bft) W-SW 246 0 min 0,000 mm 0,0 UV-I 45 W/m -0,7 C 4,7 C 0,0 km/h (0 Bft) 95,74 %
14.12.2017 14:18 4,6 C 3,9 C 68 % 1004,2 hPa 0,0 l/m 0,0 km/h (0 Bft) W-SW 246 0 min 0,000 mm 0,0 UV-I 48 W/m -0,8 C 4,6 C 0,0 km/h (0 Bft) 100,00 %
14.12.2017 14:20 4,5 C 3,9 C 70 % 1003,8 hPa 0,0 l/m 2,0 km/h (1 Bft) W-SW 244 0 min 0,000 mm 0,0 UV-I 53 W/m -0,5 C 4,5 C 4,8 km/h (1 Bft) 100,00 %
14.12.2017 14:22 4,4 C 3,9 C 70 % 1003,8 hPa 0,0 l/m 4,1 km/h (1 Bft) O-SO 123 0 min 0,000 mm 0,0 UV-I 67 W/m -0,6 C 4,4 C 4,8 km/h (1 Bft) 95,74 %
14.12.2017 14:24 4,4 C 3,9 C 69 % 1004,0 hPa 0,0 l/m 1,5 km/h (1 Bft) O-SO 123 0 min 0,000 mm 0,0 UV-I 69 W/m -0,8 C 4,4 C 3,2 km/h (1 Bft) 100,00 %
14.12.2017 14:26 4,4 C 3,9 C 70 % 1004,0 hPa 0,0 l/m 0,1 km/h (0 Bft) O-SO 123 0 min 0,000 mm 0,0 UV-I 66 W/m -0,6 C 4,4 C 1,6 km/h (1 Bft) 94,74 %
14.12.2017 14:28 4,2 C 3,9 C 72 % 1003,9 hPa 0,0 l/m 0,0 km/h (0 Bft) O-SO 123 0 min 0,000 mm 0,0 UV-I 63 W/m -0,4 C 4,2 C 0,0 km/h (0 Bft) 97,87 %
14.12.2017 14:30 4,1 C 3,9 C 73 % 1003,9 hPa 0,0 l/m 1,1 km/h (1 Bft) O-SO 123 0 min 0,000 mm 0,0 UV-I 60 W/m -0,3 C 4,1 C 3,2 km/h (1 Bft) 97,87 %
14.12.2017 14:32 3,9 C 3,9 C 73 % 1004,0 hPa 0,0 l/m 0,6 km/h (0 Bft) O-SO 123 0 min 0,000 mm 0,0 UV-I 58 W/m -0,5 C 3,9 C 3,2 km/h (1 Bft) 93,88 %
14.12.2017 14:34 3,8 C 3,9 C 73 % 1003,8 hPa 0,0 l/m 0,1 km/h (0 Bft) O-SO 123 0 min 0,000 mm 0,0 UV-I 61 W/m -0,6 C 3,8 C 1,6 km/h (1 Bft) 95,74 %
14.12.2017 14:36 3,7 C 3,9 C 74 % 1003,9 hPa 0,0 l/m 0,0 km/h (0 Bft) O-SO 123 0 min 0,000 mm 0,0 UV-I 63 W/m -0,5 C 3,7 C 1,6 km/h (1 Bft) 97,87 %
14.12.2017 14:38 3,7 C 3,9 C 75 % 1003,9 hPa 0,0 l/m 0,0 km/h (0 Bft) O-SO 123 0 min 0,000 mm 0,0 UV-I 65 W/m -0,3 C 3,7 C 1,6 km/h (1 Bft) 97,87 %
14.12.2017 14:40 3,6 C 3,9 C 76 % 1004,0 hPa 0,0 l/m 0,0 km/h (0 Bft) O-SO 123 0 min 0,000 mm 0,0 UV-I 61 W/m -0,2 C 3,6 C 0,0 km/h (0 Bft) 97,87 %
14.12.2017 14:42 3,6 C 3,9 C 75 % 1004,0 hPa 0,0 l/m 0,0 km/h (0 Bft) O-SO 123 0 min 0,000 mm 0,0 UV-I 53 W/m -0,4 C 3,6 C 0,0 km/h (0 Bft) 96,00 %
14.12.2017 14:44 3,7 C 3,9 C 74 % 1004,1 hPa 0,0 l/m 0,1 km/h (0 Bft) O-SO 123 0 min 0,000 mm 0,0 UV-I 49 W/m -0,5 C 3,7 C 1,6 km/h (1 Bft) 97,87 %
14.12.2017 14:46 3,8 C 3,9 C 74 % 1004,2 hPa 0,0 l/m 0,5 km/h (0 Bft) O-SO 123 0 min 0,000 mm 0,0 UV-I 49 W/m -0,4 C 3,8 C 1,6 km/h (1 Bft) 95,74 %
14.12.2017 14:48 3,8 C 3,9 C 74 % 1004,2 hPa 0,0 l/m 0,0 km/h (0 Bft) O-SO 123 0 min 0,000 mm 0,0 UV-I 47 W/m -0,4 C 3,8 C 0,0 km/h (0 Bft) 95,74 %
14.12.2017 14:50 3,8 C 3,9 C 74 % 1004,2 hPa 0,0 l/m 0,0 km/h (0 Bft) O-SO 123 0 min 0,000 mm 0,0 UV-I 43 W/m -0,4 C 3,8 C 0,0 km/h (0 Bft) 93,62 %
14.12.2017 14:52 3,6 C 3,9 C 76 % 1004,1 hPa 0,0 l/m 0,8 km/h (0 Bft) O-SO 123 0 min 0,000 mm 0,0 UV-I 42 W/m -0,2 C 3,6 C 3,2 km/h (1 Bft) 97,87 %
14.12.2017 14:54 3,4 C 3,9 C 78 % 1004,0 hPa 0,0 l/m 1,0 km/h (0 Bft) O-SO 123 0 min 0,000 mm 0,0 UV-I 42 W/m -0,1 C 3,4 C 3,2 km/h (1 Bft) 95,74 %
14.12.2017 14:56 3,3 C 3,9 C 79 % 1003,9 hPa 0,0 l/m 2,6 km/h (1 Bft) O-SO 123 0 min 0,000 mm 0,0 UV-I 44 W/m 0,0 C 3,3 C 4,8 km/h (1 Bft) 98,00 %
14.12.2017 14:58 3,2 C 3,9 C 79 % 1003,9 hPa 0,0 l/m 2,0 km/h (1 Bft) O-SO 123 0 min 0,000 mm 0,0 UV-I 45 W/m -0,1 C 3,2 C 4,8 km/h (1 Bft) 97,22 %
14.12.2017 15:00 3,1 C 3,9 C 80 % 1004,0 hPa 0,0 l/m 0,9 km/h (0 Bft) O-SO 123 0 min 0,000 mm 0,0 UV-I 46 W/m -0,0 C 3,1 C 3,2 km/h (1 Bft) 95,74 %
14.12.2017 15:02 3,2 C 3,9 C 79 % 1004,0 hPa 0,0 l/m 1,8 km/h (1 Bft) O-SO 123 0 min 0,025 mm 0,0 UV-I 46 W/m -0,1 C 3,2 C 3,2 km/h (1 Bft) 94,00 %
14.12.2017 15:04 3,3 C 3,9 C 78 % 1004,1 hPa 0,0 l/m 0,0 km/h (0 Bft) O-SO 123 0 min 0,000 mm 0,0 UV-I 44 W/m -0,2 C 3,3 C 0,0 km/h (0 Bft) 95,74 %
14.12.2017 15:06 3,3 C 3,9 C 77 % 1004,1 hPa 0,0 l/m 0,2 km/h (0 Bft) O-SO 123 0 min 0,000 mm 0,0 UV-I 40 W/m -0,3 C 3,3 C 3,2 km/h (1 Bft) 97,87 %
14.12.2017 15:08 3,3 C 3,9 C 78 % 1004,1 hPa 0,0 l/m 2,2 km/h (1 Bft) O-SO 123 0 min 0,000 mm 0,0 UV-I 38 W/m -0,2 C 3,3 C 3,2 km/h (1 Bft) 97,87 %
14.12.2017 15:10 3,3 C 3,9 C 77 % 1004,1 hPa 0,0 l/m 1,2 km/h (1 Bft) O-SO 123 0 min 0,000 mm 0,0 UV-I 35 W/m -0,3 C 3,3 C 3,2 km/h (1 Bft) 97,87 %
14.12.2017 15:12 3,4 C 3,9 C 77 % 1004,2 hPa 0,0 l/m 1,6 km/h (1 Bft) O-SO 123 0 min 0,000 mm 0,0 UV-I 33 W/m -0,2 C 3,4 C 4,8 km/h (1 Bft) 96,00 %
14.12.2017 15:14 3,4 C 3,9 C 77 % 1004,1 hPa 0,0 l/m 2,3 km/h (1 Bft) O-SO 123 0 min 0,000 mm 0,0 UV-I 32 W/m -0,2 C 3,4 C 4,8 km/h (1 Bft) 97,87 %
14.12.2017 15:16 3,4 C 3,9 C 76 % 1004,1 hPa 0,0 l/m 4,7 km/h (1 Bft) O-SO 123 0 min 0,000 mm 0,0 UV-I 28 W/m -0,4 C 3,4 C 6,4 km/h (2 Bft) 97,87 %
14.12.2017 15:18 3,2 C 3,9 C 78 % 1004,1 hPa 0,0 l/m 2,5 km/h (1 Bft) O-SO 123 0 min 0,000 mm 0,0 UV-I 25 W/m -0,3 C 3,2 C 4,8 km/h (1 Bft) 94,00 %
14.12.2017 15:20 3,2 C 3,9 C 78 % 1004,1 hPa 0,0 l/m 4,8 km/h (1 Bft) O-SO 123 0 min 0,000 mm 0,0 UV-I 23 W/m -0,3 C 3,2 C 6,4 km/h (2 Bft) 91,49 %
14.12.2017 15:22 3,2 C 3,9 C 78 % 1004,1 hPa 0,0 l/m 4,0 km/h (1 Bft) O-SO 123 0 min 0,000 mm 0,0 UV-I 22 W/m -0,3 C 3,2 C 4,8 km/h (1 Bft) 95,74 %
14.12.2017 15:24 3,1 C 3,9 C 79 % 1004,1 hPa 0,0 l/m 3,2 km/h (1 Bft) O-SO 123 0 min 0,000 mm 0,0 UV-I 21 W/m -0,2 C 3,1 C 4,8 km/h (1 Bft) 95,74 %
14.12.2017 15:26 3,1 C 3,9 C 79 % 1004,1 hPa 0,0 l/m 3,9 km/h (1 Bft) O-SO 123 0 min 0,000 mm 0,0 UV-I 21 W/m -0,2 C 3,1 C 4,8 km/h (1 Bft) 91,43 %
14.12.2017 15:28 3,0 C 3,9 C 79 % 1004,0 hPa 0,0 l/m 4,1 km/h (1 Bft) O-SO 123 0 min 0,000 mm 0,0 UV-I 19 W/m -0,3 C 3,0 C 4,8 km/h (1 Bft) 95,83 %
14.12.2017 15:30 2,9 C 3,9 C 80 % 1004,0 hPa 0,0 l/m 4,4 km/h (1 Bft) O-SO 123 0 min 0,000 mm 0,0 UV-I 19 W/m -0,2 C 2,9 C 4,8 km/h (1 Bft) 93,62 %
14.12.2017 15:32 2,8 C 3,9 C 80 % 1004,1 hPa 0,0 l/m 4,6 km/h (1 Bft) O-SO 123 0 min 0,000 mm 0,0 UV-I 19 W/m -0,3 C 2,8 C 6,4 km/h (2 Bft) 95,74 %
14.12.2017 15:34 2,8 C 3,9 C 80 % 1004,0 hPa 0,0 l/m 5,4 km/h (1 Bft) O-SO 123 0 min 0,000 mm 0,0 UV-I 17 W/m -0,3 C 2,8 C 6,4 km/h (2 Bft) 93,62 %
14.12.2017 15:36 2,8 C 3,9 C 80 % 1004,1 hPa 0,0 l/m 5,7 km/h (1 Bft) O-SO 123 0 min 0,000 mm 0,0 UV-I 14 W/m -0,3 C 2,8 C 8,0 km/h (2 Bft) 95,74 %
14.12.2017 15:38 2,7 C 3,9 C 81 % 1004,1 hPa 0,0 l/m 6,6 km/h (2 Bft) SO 128 0 min 0,000 mm 0,0 UV-I 13 W/m -0,2 C 2,5 C 8,0 km/h (2 Bft) 95,74 %
14.12.2017 15:40 2,6 C 3,9 C 82 % 1004,1 hPa 0,0 l/m 3,0 km/h (1 Bft) SO 128 0 min 0,000 mm 0,0 UV-I 12 W/m -0,2 C 2,6 C 6,4 km/h (2 Bft) 93,62 %
14.12.2017 15:43 2,6 C 3,9 C 82 % 1004,0 hPa 0,0 l/m 0,5 km/h (0 Bft) SO 128 0 min 0,000 mm 0,0 UV-I 12 W/m -0,2 C 2,6 C 1,6 km/h (1 Bft) 95,12 %
14.12.2017 15:44 2,5 C 3,9 C 83 % 1004,0 hPa 0,0 l/m 0,0 km/h (0 Bft) SO 128 0 min 0,000 mm 0,0 UV-I 12 W/m -0,1 C 2,5 C 0,0 km/h (0 Bft) 91,67 %
14.12.2017 15:46 2,4 C 3,9 C 83 % 1004,0 hPa 0,0 l/m 0,0 km/h (0 Bft) SO 128 0 min 0,000 mm 0,0 UV-I 12 W/m -0,2 C 2,4 C 0,0 km/h (0 Bft) 93,62 %
14.12.2017 15:48 2,4 C 3,9 C 83 % 1003,9 hPa 0,0 l/m 0,5 km/h (0 Bft) SO 128 0 min 0,000 mm 0,0 UV-I 12 W/m -0,2 C 2,4 C 3,2 km/h (1 Bft) 96,00 %
14.12.2017 15:50 2,4 C 3,9 C 83 % 1003,9 hPa 0,0 l/m 3,8 km/h (1 Bft) SO 128 0 min 0,000 mm 0,0 UV-I 12 W/m -0,2 C 2,4 C 4,8 km/h (1 Bft) 91,49 %
14.12.2017 15:52 2,4 C 3,9 C 83 % 1003,8 hPa 0,0 l/m 3,8 km/h (1 Bft) SO 128 0 min 0,000 mm 0,0 UV-I 10 W/m -0,2 C 2,4 C 6,4 km/h (2 Bft) 93,62 %
14.12.2017 15:54 2,4 C 3,9 C 82 % 1003,7 hPa 0,0 l/m 4,4 km/h (1 Bft) SO 128 0 min 0,000 mm 0,0 UV-I 8 W/m -0,4 C 2,4 C 6,4 km/h (2 Bft) 98,00 %
14.12.2017 15:56 2,6 C 3,9 C 81 % 1003,7 hPa 0,0 l/m 4,0 km/h (1 Bft) SO 128 0 min 0,000 mm 0,0 UV-I 7 W/m -0,3 C 2,6 C 4,8 km/h (1 Bft) 94,74 %
14.12.2017 15:58 2,6 C 3,9 C 80 % 1003,7 hPa 0,0 l/m 3,9 km/h (1 Bft) SO 128 0 min 0,000 mm 0,0 UV-I 7 W/m -0,5 C 2,6 C 4,8 km/h (1 Bft) 97,87 %
14.12.2017 16:00 2,4 C 3,9 C 81 % 1003,8 hPa 0,0 l/m 3,7 km/h (1 Bft) SO 128 0 min 0,026 mm 0,0 UV-I 6 W/m -0,5 C 2,4 C 6,4 km/h (2 Bft) 100,00 %
14.12.2017 16:02 2,3 C 3,9 C 81 % 1003,7 hPa 0,0 l/m 4,0 km/h (1 Bft) S-SO 148 0 min 0,000 mm 0,0 UV-I 5 W/m -0,6 C 2,3 C 6,4 km/h (2 Bft) 97,87 %
14.12.2017 16:04 2,2 C 3,9 C 82 % 1003,7 hPa 0,0 l/m 2,7 km/h (1 Bft) S-SO 148 0 min 0,000 mm 0,0 UV-I 5 W/m -0,5 C 2,2 C 4,8 km/h (1 Bft) 100,00 %
14.12.2017 16:06 2,7 C 3,9 C 79 % 1003,7 hPa 0,0 l/m 3,1 km/h (1 Bft) S-SO 148 0 min 0,000 mm 0,0 UV-I 5 W/m -0,6 C 2,7 C 6,4 km/h (2 Bft) 97,96 %
14.12.2017 16:08 2,9 C 3,9 C 77 % 1003,7 hPa 0,0 l/m 3,0 km/h (1 Bft) S 176 0 min 0,000 mm 0,0 UV-I 5 W/m -0,7 C 2,9 C 6,4 km/h (2 Bft) 100,00 %
14.12.2017 16:10 2,9 C 3,9 C 77 % 1003,7 hPa 0,0 l/m 3,2 km/h (1 Bft) S 176 0 min 0,000 mm 0,0 UV-I 5 W/m -0,7 C 2,9 C 6,4 km/h (2 Bft) 100,00 %
14.12.2017 16:12 3,2 C 3,9 C 76 % 1003,7 hPa 0,0 l/m 6,3 km/h (2 Bft) W-SW 252 0 min 0,000 mm 0,0 UV-I 5 W/m -0,6 C 3,2 C 14,5 km/h (3 Bft) 97,87 %
14.12.2017 16:14 3,3 C 3,9 C 75 % 1003,7 hPa 0,0 l/m 4,7 km/h (1 Bft) SW 232 0 min 0,000 mm 0,0 UV-I 4 W/m -0,7 C 3,3 C 6,4 km/h (2 Bft) 97,87 %
14.12.2017 16:16 3,4 C 3,9 C 75 % 1003,8 hPa 0,0 l/m 4,6 km/h (1 Bft) W 268 0 min 0,000 mm 0,0 UV-I 0 W/m -0,6 C 3,4 C 8,0 km/h (2 Bft) 95,74 %
14.12.2017 16:18 3,4 C 3,9 C 75 % 1003,8 hPa 0,0 l/m 6,2 km/h (2 Bft) W-SW 239 0 min 0,000 mm 0,0 UV-I 0 W/m -0,6 C 3,4 C 11,3 km/h (2 Bft) 97,44 %
14.12.2017 16:20 3,5 C 3,9 C 73 % 1003,7 hPa 0,0 l/m 7,2 km/h (2 Bft) SW 229 0 min 0,000 mm 0,0 UV-I 0 W/m -0,9 C 2,8 C 11,3 km/h (2 Bft) 100,00 %
14.12.2017 16:22 3,6 C 3,9 C 73 % 1003,8 hPa 0,0 l/m 10,1 km/h (2 Bft) SW 223 0 min 0,000 mm 0,0 UV-I 0 W/m -0,8 C 0,5 C 17,7 km/h (3 Bft) 97,87 %
14.12.2017 16:24 3,7 C 3,9 C 72 % 1003,7 hPa 0,0 l/m 10,2 km/h (2 Bft) SW 235 0 min 0,000 mm 0,0 UV-I 0 W/m -0,9 C 0,5 C 16,1 km/h (3 Bft) 97,87 %
14.12.2017 16:26 3,8 C 3,9 C 72 % 1003,7 hPa 0,0 l/m 9,4 km/h (2 Bft) W 265 0 min 0,000 mm 0,0 UV-I 0 W/m -0,8 C 1,2 C 14,5 km/h (3 Bft) 100,00 %
14.12.2017 16:28 3,9 C 3,9 C 71 % 1003,7 hPa 0,0 l/m 8,5 km/h (2 Bft) W-NW 288 0 min 0,000 mm 0,0 UV-I 0 W/m -0,9 C 2,0 C 11,3 km/h (2 Bft) 97,87 %
14.12.2017 16:30 3,9 C 3,9 C 71 % 1003,6 hPa 0,0 l/m 11,0 km/h (2 Bft) W-SW 253 0 min 0,000 mm 0,0 UV-I 0 W/m -0,9 C 0,1 C 17,7 km/h (3 Bft) 97,87 %
14.12.2017 16:32 4,1 C 3,9 C 70 % 1003,6 hPa 0,0 l/m 10,2 km/h (2 Bft) W 267 0 min 0,000 mm 0,0 UV-I 0 W/m -0,9 C 0,9 C 16,1 km/h (3 Bft) 100,00 %
14.12.2017 16:34 4,2 C 3,9 C 69 % 1003,7 hPa 0,0 l/m 11,4 km/h (2 Bft) W 269 0 min 0,000 mm 0,0 UV-I 0 W/m -1,0 C 0,2 C 19,3 km/h (3 Bft) 97,14 %
14.12.2017 16:36 4,3 C 3,9 C 69 % 1003,7 hPa 0,0 l/m 11,4 km/h (2 Bft) W-SW 253 0 min 0,000 mm 0,0 UV-I 0 W/m -0,9 C 0,3 C 17,7 km/h (3 Bft) 98,39 %
14.12.2017 16:38 4,4 C 3,9 C 68 % 1003,6 hPa 0,0 l/m 9,8 km/h (2 Bft) W 269 0 min 0,000 mm 0,0 UV-I 0 W/m -1,0 C 1,6 C 14,5 km/h (3 Bft) 100,00 %
14.12.2017 16:40 4,4 C 3,9 C 68 % 1003,6 hPa 0,0 l/m 12,2 km/h (2 Bft) W-SW 252 0 min 0,000 mm 0,0 UV-I 0 W/m -1,0 C -0,1 C 17,7 km/h (3 Bft) 97,87 %
14.12.2017 16:42 4,4 C 3,9 C 68 % 1003,6 hPa 0,0 l/m 10,5 km/h (2 Bft) W-SW 258 0 min 0,000 mm 0,0 UV-I 0 W/m -1,0 C 1,1 C 14,5 km/h (3 Bft) 100,00 %
14.12.2017 16:44 4,5 C 3,9 C 68 % 1003,7 hPa 0,0 l/m 13,1 km/h (3 Bft) W-SW 254 0 min 0,000 mm 0,0 UV-I 0 W/m -0,9 C -0,5 C 16,1 km/h (3 Bft) 100,00 %
14.12.2017 16:45 4,5 C 3,9 C 68 % 1003,7 hPa 0,0 l/m 11,3 km/h (2 Bft) W 270 0 min 0,000 mm 0,0 UV-I 0 W/m -0,9 C 0,6 C 16,1 km/h (3 Bft) 99,12 %
14.12.2017 16:50 4,4 C 3,9 C 68 % 1003,7 hPa 0,0 l/m 9,7 km/h (2 Bft) W-SW 247 0 min 0,000 mm 0,0 UV-I 0 W/m -1,0 C 1,6 C 14,5 km/h (3 Bft) 100,00 %
14.12.2017 16:54 4,4 C 3,9 C 68 % 1003,6 hPa 0,0 l/m 9,7 km/h (2 Bft) W-SW 248 0 min 0,000 mm 0,0 UV-I 0 W/m -1,0 C 1,6 C 14,5 km/h (3 Bft) 99,13 %
14.12.2017 16:56 4,4 C 3,9 C 68 % 1003,7 hPa 0,0 l/m 10,3 km/h (2 Bft) W-SW 246 0 min 0,000 mm 0,0 UV-I 0 W/m -1,0 C 1,2 C 12,9 km/h (3 Bft) 100,00 %
14.12.2017 16:59 4,5 C 3,9 C 68 % 1003,7 hPa 0,0 l/m 10,8 km/h (2 Bft) W 266 0 min 0,000 mm 0,0 UV-I 0 W/m -0,9 C 1,0 C 14,5 km/h (3 Bft) 98,57 %
14.12.2017 17:00 4,5 C 3,9 C 68 % 1003,7 hPa 0,0 l/m 10,4 km/h (2 Bft) W 266 0 min 0,000 mm 0,0 UV-I 0 W/m -0,9 C 1,2 C 12,9 km/h (3 Bft) 100,00 %
14.12.2017 17:02 4,7 C 3,9 C 70 % 1003,6 hPa 0,0 l/m 8,0 km/h (2 Bft) W 269 0 min 0,025 mm 0,0 UV-I 0 W/m -0,3 C 3,3 C 11,3 km/h (2 Bft) 96,00 %
14.12.2017 17:04 4,6 C 3,9 C 68 % 1003,7 hPa 0,0 l/m 8,2 km/h (2 Bft) W-SW 255 0 min 0,000 mm 0,0 UV-I 0 W/m -0,8 C 3,0 C 11,3 km/h (2 Bft) 100,00 %
14.12.2017 17:06 4,5 C 3,9 C 68 % 1003,6 hPa 0,0 l/m 8,8 km/h (2 Bft) W-SW 250 0 min 0,000 mm 0,0 UV-I 0 W/m -0,9 C 2,4 C 11,3 km/h (2 Bft) 94,29 %
14.12.2017 17:08 4,4 C 3,9 C 68 % 1003,7 hPa 0,0 l/m 8,1 km/h (2 Bft) W-SW 245 0 min 0,000 mm 0,0 UV-I 0 W/m -1,0 C 2,9 C 14,5 km/h (3 Bft) 98,11 %
14.12.2017 17:10 4,4 C 3,9 C 69 % 1003,7 hPa 0,0 l/m 7,2 km/h (2 Bft) W 263 0 min 0,000 mm 0,0 UV-I 0 W/m -0,8 C 3,7 C 11,3 km/h (2 Bft) 100,00 %
14.12.2017 17:12 4,3 C 3,9 C 69 % 1003,7 hPa 0,0 l/m 6,9 km/h (2 Bft) W-SW 246 0 min 0,000 mm 0,0 UV-I 0 W/m -0,9 C 3,9 C 11,3 km/h (2 Bft) 98,04 %
14.12.2017 17:14 4,2 C 3,9 C 70 % 1003,6 hPa 0,0 l/m 6,2 km/h (2 Bft) W-SW 242 0 min 0,000 mm 0,0 UV-I 0 W/m -0,8 C 4,2 C 9,7 km/h (2 Bft) 100,00 %
14.12.2017 17:16 4,2 C 3,9 C 70 % 1003,6 hPa 0,0 l/m 6,2 km/h (2 Bft) W-SW 252 0 min 0,000 mm 0,0 UV-I 0 W/m -0,8 C 4,2 C 11,3 km/h (2 Bft) 100,00 %
14.12.2017 17:18 4,2 C 3,9 C 70 % 1003,5 hPa 0,0 l/m 6,6 km/h (2 Bft) W-SW 255 0 min 0,000 mm 0,0 UV-I 0 W/m -0,8 C 4,0 C 14,5 km/h (3 Bft) 100,00 %
14.12.2017 17:20 4,2 C 3,9 C 70 % 1003,5 hPa 0,0 l/m 4,7 km/h (1 Bft) W-SW 254 0 min 0,000 mm 0,0 UV-I 0 W/m -0,8 C 4,2 C 16,1 km/h (3 Bft) 97,87 %
14.12.2017 17:22 4,2 C 3,9 C 70 % 1003,4 hPa 0,0 l/m 7,9 km/h (2 Bft) W-SW 254 0 min 0,000 mm 0,0 UV-I 0 W/m -0,8 C 2,8 C 16,1 km/h (3 Bft) 93,75 %
14.12.2017 17:24 4,3 C 3,9 C 70 % 1003,5 hPa 0,0 l/m 6,5 km/h (2 Bft) W-SW 237 0 min 0,000 mm 0,0 UV-I 0 W/m -0,7 C 4,2 C 9,7 km/h (2 Bft) 100,00 %
14.12.2017 17:26 4,3 C 3,9 C 70 % 1003,5 hPa 0,0 l/m 6,0 km/h (2 Bft) SW 217 0 min 0,000 mm 0,0 UV-I 0 W/m -0,7 C 4,3 C 11,3 km/h (2 Bft) 100,00 %
14.12.2017 17:28 4,4 C 3,9 C 69 % 1003,3 hPa 0,0 l/m 8,0 km/h (2 Bft) SW 227 0 min 0,000 mm 0,0 UV-I 0 W/m -0,8 C 3,0 C 11,3 km/h (2 Bft) 97,87 %
14.12.2017 17:30 4,4 C 3,9 C 69 % 1003,3 hPa 0,0 l/m 7,5 km/h (2 Bft) W 268 0 min 0,000 mm 0,0 UV-I 0 W/m -0,8 C 3,4 C 12,9 km/h (3 Bft) 95,74 %
14.12.2017 17:32 4,5 C 3,9 C 69 % 1003,3 hPa 0,0 l/m 9,1 km/h (2 Bft) W 266 0 min 0,000 mm 0,0 UV-I 0 W/m -0,7 C 2,2 C 14,5 km/h (3 Bft) 97,87 %
14.12.2017 17:34 4,4 C 3,9 C 69 % 1003,3 hPa 0,0 l/m 9,1 km/h (2 Bft) W-SW 252 0 min 0,000 mm 0,0 UV-I 0 W/m -0,8 C 2,1 C 16,1 km/h (3 Bft) 100,00 %
14.12.2017 17:36 4,5 C 3,9 C 68 % 1003,3 hPa 0,0 l/m 10,5 km/h (2 Bft) W-SW 254 0 min 0,000 mm 0,0 UV-I 0 W/m -0,9 C 1,2 C 14,5 km/h (3 Bft) 100,00 %
14.12.2017 17:38 4,5 C 3,9 C 68 % 1003,4 hPa 0,0 l/m 8,2 km/h (2 Bft) W-SW 250 0 min 0,000 mm 0,0 UV-I 0 W/m -0,9 C 2,9 C 14,5 km/h (3 Bft) 95,74 %
14.12.2017 17:40 4,4 C 3,9 C 69 % 1003,3 hPa 0,0 l/m 5,5 km/h (1 Bft) W-SW 248 0 min 0,000 mm 0,0 UV-I 0 W/m -0,8 C 4,4 C 8,0 km/h (2 Bft) 97,87 %
14.12.2017 17:42 4,3 C 3,9 C 69 % 1003,4 hPa 0,0 l/m 4,8 km/h (1 Bft) W-SW 251 0 min 0,000 mm 0,0 UV-I 0 W/m -0,9 C 4,3 C 6,4 km/h (2 Bft) 96,23 %
14.12.2017 17:44 4,3 C 3,9 C 70 % 1003,3 hPa 0,0 l/m 5,0 km/h (1 Bft) SW 236 0 min 0,000 mm 0,0 UV-I 0 W/m -0,7 C 4,3 C 8,0 km/h (2 Bft) 95,74 %
14.12.2017 17:46 4,3 C 3,9 C 70 % 1003,3 hPa 0,0 l/m 5,5 km/h (1 Bft) W-SW 242 0 min 0,000 mm 0,0 UV-I 0 W/m -0,7 C 4,3 C 8,0 km/h (2 Bft) 97,87 %
14.12.2017 17:48 4,3 C 3,9 C 69 % 1003,4 hPa 0,0 l/m 5,2 km/h (1 Bft) W-SW 242 0 min 0,000 mm 0,0 UV-I 0 W/m -0,9 C 4,3 C 8,0 km/h (2 Bft) 97,87 %
14.12.2017 17:50 4,3 C 3,9 C 69 % 1003,3 hPa 0,0 l/m 6,3 km/h (2 Bft) W 269 0 min 0,000 mm 0,0 UV-I 0 W/m -0,9 C 4,3 C 11,3 km/h (2 Bft) 96,00 %
14.12.2017 17:52 4,3 C 3,9 C 70 % 1003,3 hPa 0,0 l/m 4,1 km/h (1 Bft) W-SW 255 0 min 0,000 mm 0,0 UV-I 0 W/m -0,7 C 4,3 C 6,4 km/h (2 Bft) 97,87 %
14.12.2017 17:54 4,3 C 3,9 C 69 % 1003,3 hPa 0,0 l/m 5,4 km/h (1 Bft) W-SW 257 0 min 0,000 mm 0,0 UV-I 0 W/m -0,9 C 4,3 C 9,7 km/h (2 Bft) 95,74 %
14.12.2017 17:56 4,3 C 3,9 C 69 % 1003,2 hPa 0,0 l/m 3,8 km/h (1 Bft) W-SW 252 0 min 0,000 mm 0,0 UV-I 0 W/m -0,9 C 4,3 C 6,4 km/h (2 Bft) 94,44 %
14.12.2017 17:58 4,2 C 3,9 C 70 % 1003,2 hPa 0,0 l/m 3,8 km/h (1 Bft) W-SW 252 0 min 0,000 mm 0,0 UV-I 0 W/m -0,8 C 4,2 C 4,8 km/h (1 Bft) 97,87 %
14.12.2017 18:00 4,2 C 3,9 C 70 % 1003,1 hPa 0,0 l/m 3,5 km/h (1 Bft) W-SW 252 0 min 0,026 mm 0,0 UV-I 0 W/m -0,8 C 4,2 C 4,8 km/h (1 Bft) 97,87 %
14.12.2017 18:02 4,1 C 3,9 C 70 % 1003,2 hPa 0,0 l/m 3,7 km/h (1 Bft) W-SW 252 0 min 0,000 mm 0,0 UV-I 0 W/m -0,9 C 4,1 C 4,8 km/h (1 Bft) 98,00 %
14.12.2017 18:04 4,1 C 3,9 C 70 % 1003,1 hPa 0,0 l/m 2,8 km/h (1 Bft) W-SW 252 0 min 0,000 mm 0,0 UV-I 0 W/m -0,9 C 4,1 C 4,8 km/h (1 Bft) 95,74 %
14.12.2017 18:06 4,1 C 3,9 C 70 % 1003,1 hPa 0,0 l/m 3,2 km/h (1 Bft) W-SW 252 0 min 0,000 mm 0,0 UV-I 0 W/m -0,9 C 4,1 C 4,8 km/h (1 Bft) 93,62 %
14.12.2017 18:08 4,1 C 3,9 C 70 % 1003,1 hPa 0,0 l/m 2,5 km/h (1 Bft) W-SW 252 0 min 0,000 mm 0,0 UV-I 0 W/m -0,9 C 4,1 C 4,8 km/h (1 Bft) 97,87 %
14.12.2017 18:10 3,9 C 3,9 C 70 % 1003,1 hPa 0,0 l/m 0,9 km/h (0 Bft) W-SW 252 0 min 0,000 mm 0,0 UV-I 0 W/m -1,1 C 3,9 C 3,2 km/h (1 Bft) 95,74 %
14.12.2017 18:12 3,6 C 3,9 C 72 % 1003,1 hPa 0,0 l/m 0,0 km/h (0 Bft) W-SW 252 0 min 0,000 mm 0,0 UV-I 0 W/m -1,0 C 3,6 C 0,0 km/h (0 Bft) 98,00 %
14.12.2017 18:14 3,3 C 3,9 C 73 % 1003,1 hPa 0,0 l/m 0,1 km/h (0 Bft) W-SW 252 0 min 0,000 mm 0,0 UV-I 0 W/m -1,1 C 3,3 C 1,6 km/h (1 Bft) 95,74 %
14.12.2017 18:16 2,9 C 3,9 C 75 % 1003,1 hPa 0,0 l/m 0,6 km/h (0 Bft) W-SW 252 0 min 0,000 mm 0,0 UV-I 0 W/m -1,1 C 2,9 C 3,2 km/h (1 Bft) 95,74 %
14.12.2017 18:18 2,8 C 3,9 C 77 % 1003,1 hPa 0,0 l/m 0,0 km/h (0 Bft) W-SW 252 0 min 0,000 mm 0,0 UV-I 0 W/m -0,8 C 2,8 C 0,0 km/h (0 Bft) 96,00 %
14.12.2017 18:20 2,7 C 3,9 C 78 % 1003,0 hPa 0,0 l/m 0,0 km/h (0 Bft) W-SW 252 0 min 0,000 mm 0,0 UV-I 0 W/m -0,7 C 2,7 C 0,0 km/h (0 Bft) 95,74 %
14.12.2017 18:22 2,7 C 3,9 C 77 % 1003,0 hPa 0,0 l/m 0,0 km/h (0 Bft) W-SW 252 0 min 0,000 mm 0,0 UV-I 0 W/m -0,9 C 2,7 C 1,6 km/h (1 Bft) 100,00 %
14.12.2017 18:24 3,0 C 3,9 C 76 % 1003,0 hPa 0,0 l/m 0,3 km/h (0 Bft) W-SW 252 0 min 0,000 mm 0,0 UV-I 0 W/m -0,8 C 3,0 C 1,6 km/h (1 Bft) 100,00 %
14.12.2017 18:26 3,4 C 3,9 C 74 % 1003,1 hPa 0,0 l/m 0,4 km/h (0 Bft) W-SW 252 0 min 0,000 mm 0,0 UV-I 0 W/m -0,8 C 3,4 C 1,6 km/h (1 Bft) 100,00 %
14.12.2017 18:28 3,2 C 3,9 C 74 % 1003,1 hPa 0,0 l/m 1,7 km/h (1 Bft) W-SW 252 0 min 0,000 mm 0,0 UV-I 0 W/m -1,0 C 3,2 C 3,2 km/h (1 Bft) 97,87 %
14.12.2017 18:30 2,6 C 3,9 C 77 % 1003,0 hPa 0,0 l/m 0,0 km/h (0 Bft) W-SW 252 0 min 0,000 mm 0,0 UV-I 0 W/m -1,0 C 2,6 C 0,0 km/h (0 Bft) 97,87 %
14.12.2017 18:32 2,1 C 3,9 C 80 % 1003,0 hPa 0,0 l/m 2,0 km/h (1 Bft) SW 233 0 min 0,000 mm 0,0 UV-I 0 W/m -1,0 C 2,1 C 4,8 km/h (1 Bft) 97,87 %
14.12.2017 18:34 1,9 C 3,9 C 81 % 1003,0 hPa 0,0 l/m 4,4 km/h (1 Bft) S-SW 192 0 min 0,000 mm 0,0 UV-I 0 W/m -1,0 C 1,9 C 4,8 km/h (1 Bft) 97,87 %
14.12.2017 18:36 1,9 C 3,9 C 82 % 1003,0 hPa 0,0 l/m 6,0 km/h (2 Bft) SO 146 0 min 0,000 mm 0,0 UV-I 0 W/m -0,8 C 1,9 C 8,0 km/h (2 Bft) 97,87 %
14.12.2017 18:38 1,9 C 3,9 C 81 % 1003,0 hPa 0,0 l/m 5,7 km/h (1 Bft) SO 146 0 min 0,000 mm 0,0 UV-I 0 W/m -1,0 C 1,9 C 6,4 km/h (2 Bft) 98,00 %
14.12.2017 18:40 2,0 C 3,9 C 81 % 1003,0 hPa 0,0 l/m 6,1 km/h (2 Bft) SO 146 0 min 0,000 mm 0,0 UV-I 0 W/m -0,9 C 2,0 C 8,0 km/h (2 Bft) 100,00 %
14.12.2017 18:42 1,9 C 3,9 C 81 % 1003,0 hPa 0,0 l/m 6,1 km/h (2 Bft) SO 146 0 min 0,000 mm 0,0 UV-I 0 W/m -1,0 C 1,9 C 8,0 km/h (2 Bft) 100,00 %
14.12.2017 18:44 1,9 C 3,9 C 81 % 1002,8 hPa 0,0 l/m 7,3 km/h (2 Bft) SO 130 0 min 0,000 mm 0,0 UV-I 0 W/m -1,0 C 1,0 C 8,0 km/h (2 Bft) 97,87 %
14.12.2017 18:46 1,8 C 3,9 C 82 % 1002,8 hPa 0,0 l/m 7,8 km/h (2 Bft) SO 133 0 min 0,000 mm 0,0 UV-I 0 W/m -0,9 C 0,4 C 11,3 km/h (2 Bft) 100,00 %
14.12.2017 18:48 1,9 C 3,9 C 81 % 1002,7 hPa 0,0 l/m 8,9 km/h (2 Bft) O-SO 119 0 min 0,000 mm 0,0 UV-I 0 W/m -1,0 C -0,5 C 11,3 km/h (2 Bft) 100,00 %
14.12.2017 18:50 2,0 C 3,9 C 81 % 1002,7 hPa 0,0 l/m 10,0 km/h (2 Bft) O-SO 106 0 min 0,000 mm 0,0 UV-I 0 W/m -0,9 C -1,2 C 12,9 km/h (3 Bft) 93,62 %
14.12.2017 18:52 2,0 C 3,9 C 81 % 1002,7 hPa 0,0 l/m 7,6 km/h (2 Bft) O-SO 112 0 min 0,000 mm 0,0 UV-I 0 W/m -0,9 C 0,8 C 12,9 km/h (3 Bft) 95,74 %
14.12.2017 18:54 2,2 C 3,9 C 80 % 1002,5 hPa 0,0 l/m 4,6 km/h (1 Bft) O 82 0 min 0,000 mm 0,0 UV-I 0 W/m -0,9 C 2,2 C 6,4 km/h (2 Bft) 100,00 %
14.12.2017 18:56 2,3 C 3,9 C 79 % 1002,6 hPa 0,0 l/m 3,1 km/h (1 Bft) W-NW 283 0 min 0,000 mm 0,0 UV-I 0 W/m -1,0 C 2,3 C 9,7 km/h (2 Bft) 100,00 %
14.12.2017 18:58 2,0 C 3,9 C 80 % 1002,6 hPa 0,0 l/m 3,6 km/h (1 Bft) W-NW 292 0 min 0,000 mm 0,0 UV-I 0 W/m -1,1 C 2,0 C 6,4 km/h (2 Bft) 100,00 %
14.12.2017 19:00 1,6 C 3,9 C 83 % 1002,4 hPa 0,0 l/m 1,4 km/h (1 Bft) W-NW 292 0 min 0,000 mm 0,0 UV-I 0 W/m -1,0 C 1,6 C 4,8 km/h (1 Bft) 100,00 %
14.12.2017 19:02 1,5 C 3,9 C 84 % 1002,3 hPa 0,0 l/m 5,8 km/h (2 Bft) O-SO 106 0 min 0,000 mm 0,0 UV-I 0 W/m -0,9 C 1,5 C 6,4 km/h (2 Bft) 100,00 %
14.12.2017 19:04 1,4 C 3,9 C 84 % 1002,3 hPa 0,0 l/m 6,3 km/h (2 Bft) SO 134 0 min 0,000 mm 0,0 UV-I 0 W/m -1,0 C 1,4 C 8,0 km/h (2 Bft) 97,87 %
14.12.2017 19:06 1,3 C 3,9 C 85 % 1002,3 hPa 0,0 l/m 4,8 km/h (1 Bft) S-SO 148 0 min 0,000 mm 0,0 UV-I 0 W/m -0,9 C 1,3 C 6,4 km/h (2 Bft) 100,00 %
14.12.2017 19:08 1,2 C 3,9 C 85 % 1002,1 hPa 0,0 l/m 5,9 km/h (2 Bft) O-SO 113 0 min 0,000 mm 0,0 UV-I 0 W/m -1,0 C 1,2 C 9,7 km/h (2 Bft) 100,00 %
14.12.2017 19:10 1,2 C 3,9 C 85 % 1002,0 hPa 0,0 l/m 6,2 km/h (2 Bft) O-SO 111 0 min 0,000 mm 0,0 UV-I 0 W/m -1,0 C 1,2 C 9,7 km/h (2 Bft) 97,87 %
14.12.2017 19:12 1,4 C 3,9 C 84 % 1002,1 hPa 0,0 l/m 6,3 km/h (2 Bft) O-SO 111 0 min 0,000 mm 0,0 UV-I 0 W/m -1,0 C 1,4 C 11,3 km/h (2 Bft) 98,00 %
14.12.2017 19:14 1,6 C 3,9 C 83 % 1002,1 hPa 0,0 l/m 4,9 km/h (1 Bft) O-SO 114 0 min 0,000 mm 0,0 UV-I 0 W/m -1,0 C 1,6 C 9,7 km/h (2 Bft) 97,87 %
14.12.2017 19:16 1,7 C 3,9 C 83 % 1002,1 hPa 0,0 l/m 4,4 km/h (1 Bft) SO 124 0 min 0,000 mm 0,0 UV-I 0 W/m -0,9 C 1,7 C 9,7 km/h (2 Bft) 100,00 %
14.12.2017 19:18 1,7 C 3,9 C 82 % 1002,1 hPa 0,0 l/m 4,7 km/h (1 Bft) O-SO 114 0 min 0,000 mm 0,0 UV-I 0 W/m -1,0 C 1,7 C 6,4 km/h (2 Bft) 97,22 %
14.12.2017 19:20 1,7 C 3,9 C 82 % 1002,0 hPa 0,0 l/m 6,3 km/h (2 Bft) O 89 0 min 0,000 mm 0,0 UV-I 0 W/m -1,0 C 1,7 C 9,7 km/h (2 Bft) 100,00 %
14.12.2017 19:22 2,2 C 3,9 C 81 % 1001,9 hPa 0,0 l/m 9,2 km/h (2 Bft) O 86 0 min 0,000 mm 0,0 UV-I 0 W/m -0,7 C -0,4 C 12,9 km/h (3 Bft) 100,00 %
14.12.2017 19:24 2,8 C 3,9 C 77 % 1001,9 hPa 0,0 l/m 7,9 km/h (2 Bft) O 98 0 min 0,000 mm 0,0 UV-I 0 W/m -0,8 C 1,4 C 12,9 km/h (3 Bft) 98,00 %
14.12.2017 19:26 3,0 C 3,9 C 76 % 1001,7 hPa 0,0 l/m 7,8 km/h (2 Bft) O 96 0 min 0,000 mm 0,0 UV-I 0 W/m -0,8 C 1,7 C 14,5 km/h (3 Bft) 97,87 %
14.12.2017 19:28 3,0 C 3,9 C 76 % 1001,7 hPa 0,0 l/m 8,2 km/h (2 Bft) O 86 0 min 0,000 mm 0,0 UV-I 0 W/m -0,8 C 1,3 C 12,9 km/h (3 Bft) 97,87 %
14.12.2017 19:30 3,4 C 3,9 C 74 % 1001,6 hPa 0,0 l/m 7,6 km/h (2 Bft) O-NO 58 0 min 0,000 mm 0,0 UV-I 0 W/m -0,8 C 2,3 C 11,3 km/h (2 Bft) 95,74 %
14.12.2017 19:32 3,7 C 3,9 C 72 % 1001,6 hPa 0,0 l/m 4,9 km/h (1 Bft) O 84 0 min 0,000 mm 0,0 UV-I 0 W/m -0,9 C 3,7 C 8,0 km/h (2 Bft) 96,00 %
14.12.2017 19:34 3,4 C 3,9 C 73 % 1001,5 hPa 0,0 l/m 4,9 km/h (1 Bft) O 90 0 min 0,000 mm 0,0 UV-I 0 W/m -1,0 C 3,4 C 11,3 km/h (2 Bft) 93,62 %
14.12.2017 19:36 2,9 C 3,9 C 76 % 1001,5 hPa 0,0 l/m 3,5 km/h (1 Bft) O 94 0 min 0,000 mm 0,0 UV-I 0 W/m -0,9 C 2,9 C 4,8 km/h (1 Bft) 97,87 %
14.12.2017 19:38 2,3 C 3,9 C 78 % 1001,6 hPa 0,0 l/m 4,3 km/h (1 Bft) O-SO 121 0 min 0,000 mm 0,0 UV-I 0 W/m -1,1 C 2,3 C 4,8 km/h (1 Bft) 97,87 %
14.12.2017 19:40 2,1 C 3,9 C 79 % 1001,5 hPa 0,0 l/m 4,1 km/h (1 Bft) O-SO 121 0 min 0,000 mm 0,0 UV-I 0 W/m -1,2 C 2,1 C 6,4 km/h (2 Bft) 92,11 %
14.12.2017 19:42 1,6 C 3,9 C 82 % 1001,6 hPa 0,0 l/m 5,2 km/h (1 Bft) O-SO 121 0 min 0,000 mm 0,0 UV-I 0 W/m -1,1 C 1,6 C 6,4 km/h (2 Bft) 98,00 %
14.12.2017 19:44 1,3 C 3,9 C 84 % 1001,5 hPa 0,0 l/m 5,8 km/h (2 Bft) O-SO 107 0 min 0,000 mm 0,0 UV-I 0 W/m -1,1 C 1,3 C 9,7 km/h (2 Bft) 97,87 %
14.12.2017 19:46 1,5 C 3,9 C 83 % 1001,5 hPa 0,0 l/m 4,1 km/h (1 Bft) O-SO 107 0 min 0,000 mm 0,0 UV-I 0 W/m -1,1 C 1,5 C 4,8 km/h (1 Bft) 96,00 %
14.12.2017 19:48 1,7 C 3,9 C 82 % 1001,4 hPa 0,0 l/m 4,4 km/h (1 Bft) O-SO 107 0 min 0,000 mm 0,0 UV-I 0 W/m -1,0 C 1,7 C 6,4 km/h (2 Bft) 94,74 %
14.12.2017 19:50 1,8 C 3,9 C 82 % 1001,5 hPa 0,0 l/m 3,8 km/h (1 Bft) O-SO 107 0 min 0,000 mm 0,0 UV-I 0 W/m -0,9 C 1,8 C 4,8 km/h (1 Bft) 95,74 %
14.12.2017 19:52 2,2 C 3,9 C 80 % 1001,5 hPa 0,0 l/m 4,1 km/h (1 Bft) O-SO 107 0 min 0,000 mm 0,0 UV-I 0 W/m -0,9 C 2,2 C 6,4 km/h (2 Bft) 97,87 %
14.12.2017 19:54 2,6 C 3,9 C 78 % 1001,6 hPa 0,0 l/m 5,1 km/h (1 Bft) O-NO 76 0 min 0,000 mm 0,0 UV-I 0 W/m -0,8 C 2,6 C 8,0 km/h (2 Bft) 95,74 %
14.12.2017 19:56 2,9 C 3,9 C 76 % 1001,5 hPa 0,0 l/m 8,1 km/h (2 Bft) O 96 0 min 0,000 mm 0,0 UV-I 0 W/m -0,9 C 1,3 C 11,3 km/h (2 Bft) 95,83 %
14.12.2017 19:58 3,2 C 3,9 C 75 % 1001,6 hPa 0,0 l/m 5,4 km/h (1 Bft) O 101 0 min 0,000 mm 0,0 UV-I 0 W/m -0,8 C 3,2 C 11,3 km/h (2 Bft) 95,74 %
14.12.2017 20:00 3,2 C 3,9 C 74 % 1001,6 hPa 0,0 l/m 3,3 km/h (1 Bft) O-NO 70 0 min 0,000 mm 0,0 UV-I 0 W/m -1,0 C 3,2 C 6,4 km/h (2 Bft) 93,62 %
14.12.2017 20:02 3,0 C 3,9 C 75 % 1001,5 hPa 0,0 l/m 2,0 km/h (1 Bft) O-NO 70 0 min 0,000 mm 0,0 UV-I 0 W/m -1,0 C 3,0 C 4,8 km/h (1 Bft) 96,00 %
14.12.2017 20:04 2,4 C 3,9 C 77 % 1001,5 hPa 0,0 l/m 1,6 km/h (1 Bft) O-NO 70 0 min 0,000 mm 0,0 UV-I 0 W/m -1,2 C 2,4 C 4,8 km/h (1 Bft) 94,00 %
14.12.2017 20:06 2,2 C 3,9 C 79 % 1001,4 hPa 0,0 l/m 1,3 km/h (1 Bft) O-NO 70 0 min 0,000 mm 0,0 UV-I 0 W/m -1,1 C 2,2 C 3,2 km/h (1 Bft) 93,62 %
14.12.2017 20:08 2,1 C 3,9 C 80 % 1001,4 hPa 0,0 l/m 2,7 km/h (1 Bft) O-NO 70 0 min 0,000 mm 0,0 UV-I 0 W/m -1,0 C 2,1 C 4,8 km/h (1 Bft) 94,74 %
14.12.2017 20:10 1,9 C 3,9 C 81 % 1001,4 hPa 0,0 l/m 3,5 km/h (1 Bft) O 88 0 min 0,000 mm 0,0 UV-I 0 W/m -1,0 C 1,9 C 8,0 km/h (2 Bft) 93,62 %
14.12.2017 20:12 1,8 C 3,9 C 82 % 1001,2 hPa 0,0 l/m 3,7 km/h (1 Bft) O-SO 107 0 min 0,000 mm 0,0 UV-I 0 W/m -0,9 C 1,8 C 4,8 km/h (1 Bft) 92,00 %
14.12.2017 20:14 1,8 C 3,9 C 82 % 1001,2 hPa 0,0 l/m 3,2 km/h (1 Bft) O 96 0 min 0,000 mm 0,0 UV-I 0 W/m -0,9 C 1,8 C 9,7 km/h (2 Bft) 93,62 %
14.12.2017 20:16 2,0 C 3,9 C 81 % 1001,2 hPa 0,0 l/m 2,6 km/h (1 Bft) O 96 0 min 0,000 mm 0,0 UV-I 0 W/m -0,9 C 2,0 C 6,4 km/h (2 Bft) 96,00 %
14.12.2017 20:18 2,2 C 3,9 C 80 % 1001,1 hPa 0,0 l/m 2,1 km/h (1 Bft) O 96 0 min 0,000 mm 0,0 UV-I 0 W/m -0,9 C 2,2 C 4,8 km/h (1 Bft) 95,74 %
14.12.2017 20:20 2,4 C 3,9 C 80 % 1001,1 hPa 0,0 l/m 4,3 km/h (1 Bft) SO 140 0 min 0,000 mm 0,0 UV-I 0 W/m -0,7 C 2,4 C 6,4 km/h (2 Bft) 95,74 %
14.12.2017 20:22 2,4 C 3,9 C 79 % 1001,0 hPa 0,0 l/m 2,3 km/h (1 Bft) SO 140 0 min 0,000 mm 0,0 UV-I 0 W/m -0,9 C 2,4 C 6,4 km/h (2 Bft) 93,62 %
14.12.2017 20:24 2,4 C 3,9 C 80 % 1000,9 hPa 0,0 l/m 2,7 km/h (1 Bft) SO 138 0 min 0,000 mm 0,0 UV-I 0 W/m -0,7 C 2,4 C 6,4 km/h (2 Bft) 91,49 %
14.12.2017 20:26 2,4 C 3,9 C 80 % 1000,9 hPa 0,0 l/m 3,4 km/h (1 Bft) SO 143 0 min 0,000 mm 0,0 UV-I 0 W/m -0,7 C 2,4 C 6,4 km/h (2 Bft) 95,74 %
14.12.2017 20:28 2,5 C 3,9 C 79 % 1000,9 hPa 0,0 l/m 3,0 km/h (1 Bft) SO 138 0 min 0,000 mm 0,0 UV-I 0 W/m -0,8 C 2,5 C 6,4 km/h (2 Bft) 93,62 %
14.12.2017 20:30 2,4 C 3,9 C 79 % 1000,8 hPa 0,0 l/m 4,4 km/h (1 Bft) SO 131 0 min 0,000 mm 0,0 UV-I 0 W/m -0,9 C 2,4 C 8,0 km/h (2 Bft) 93,62 %
14.12.2017 20:32 2,3 C 3,9 C 80 % 1000,8 hPa 0,0 l/m 7,6 km/h (2 Bft) SO 124 0 min 0,000 mm 0,0 UV-I 0 W/m -0,8 C 1,1 C 14,5 km/h (3 Bft) 91,49 %
14.12.2017 20:34 2,4 C 3,9 C 80 % 1000,7 hPa 0,0 l/m 6,1 km/h (2 Bft) SO 126 0 min 0,000 mm 0,0 UV-I 0 W/m -0,7 C 2,4 C 9,7 km/h (2 Bft) 95,74 %
14.12.2017 20:36 2,6 C 3,9 C 79 % 1000,6 hPa 0,0 l/m 8,8 km/h (2 Bft) O-SO 117 0 min 0,000 mm 0,0 UV-I 0 W/m -0,7 C 0,4 C 12,9 km/h (3 Bft) 89,36 %
14.12.2017 20:38 2,7 C 3,9 C 79 % 1000,6 hPa 0,0 l/m 6,7 km/h (2 Bft) O-SO 103 0 min 0,000 mm 0,0 UV-I 0 W/m -0,6 C 2,4 C 11,3 km/h (2 Bft) 95,74 %
14.12.2017 20:40 2,8 C 3,9 C 78 % 1000,6 hPa 0,0 l/m 6,7 km/h (2 Bft) O-SO 112 0 min 0,000 mm 0,0 UV-I 0 W/m -0,6 C 2,5 C 11,3 km/h (2 Bft) 94,87 %
14.12.2017 20:42 2,9 C 3,9 C 78 % 1000,5 hPa 0,0 l/m 9,7 km/h (2 Bft) O-SO 122 0 min 0,000 mm 0,0 UV-I 0 W/m -0,5 C -0,0 C 12,9 km/h (3 Bft) 95,74 %
14.12.2017 20:44 2,9 C 3,9 C 78 % 1000,4 hPa 0,0 l/m 13,2 km/h (3 Bft) SO 138 0 min 0,000 mm 0,0 UV-I 0 W/m -0,5 C -2,4 C 19,3 km/h (3 Bft) 95,74 %
14.12.2017 20:46 3,1 C 3,9 C 77 % 1000,4 hPa 0,0 l/m 10,8 km/h (2 Bft) O-SO 113 0 min 0,000 mm 0,0 UV-I 0 W/m -0,5 C -0,6 C 17,7 km/h (3 Bft) 93,62 %
14.12.2017 20:48 3,2 C 3,9 C 77 % 1000,3 hPa 0,0 l/m 9,6 km/h (2 Bft) O 98 0 min 0,000 mm 0,0 UV-I 0 W/m -0,4 C 0,4 C 14,5 km/h (3 Bft) 95,74 %
14.12.2017 20:50 3,1 C 3,9 C 77 % 1000,3 hPa 0,0 l/m 11,8 km/h (2 Bft) O-SO 111 0 min 0,000 mm 0,0 UV-I 0 W/m -0,5 C -1,3 C 16,1 km/h (3 Bft) 95,92 %
14.12.2017 20:52 3,1 C 3,9 C 77 % 1000,2 hPa 0,0 l/m 9,4 km/h (2 Bft) O-SO 111 0 min 0,000 mm 0,0 UV-I 0 W/m -0,5 C 0,4 C 12,9 km/h (3 Bft) 95,74 %
14.12.2017 20:54 3,1 C 3,9 C 77 % 1000,0 hPa 0,0 l/m 10,1 km/h (2 Bft) O-SO 104 0 min 0,000 mm 0,0 UV-I 0 W/m -0,5 C -0,1 C 12,9 km/h (3 Bft) 95,74 %
14.12.2017 20:56 2,9 C 3,9 C 78 % 1000,0 hPa 0,0 l/m 9,8 km/h (2 Bft) O-SO 105 0 min 0,000 mm 0,0 UV-I 0 W/m -0,5 C -0,1 C 12,9 km/h (3 Bft) 97,87 %
14.12.2017 20:58 3,0 C 3,9 C 78 % 1000,0 hPa 0,0 l/m 8,2 km/h (2 Bft) O 96 0 min 0,000 mm 0,0 UV-I 0 W/m -0,5 C 1,3 C 11,3 km/h (2 Bft) 98,11 %
14.12.2017 21:00 3,1 C 3,9 C 78 % 999,8 hPa 0,0 l/m 8,7 km/h (2 Bft) O 90 0 min 0,025 mm 0,0 UV-I 0 W/m -0,4 C 1,0 C 12,9 km/h (3 Bft) 100,00 %
14.12.2017 21:02 3,1 C 3,9 C 77 % 999,7 hPa 0,0 l/m 9,9 km/h (2 Bft) O 97 0 min 0,000 mm 0,0 UV-I 0 W/m -0,5 C 0,0 C 14,5 km/h (3 Bft) 100,00 %
14.12.2017 21:04 3,2 C 3,9 C 77 % 999,8 hPa 0,0 l/m 8,1 km/h (2 Bft) O 99 0 min 0,000 mm 0,0 UV-I 0 W/m -0,4 C 1,6 C 11,3 km/h (2 Bft) 97,87 %
14.12.2017 21:06 3,2 C 3,9 C 77 % 999,9 hPa 0,0 l/m 5,2 km/h (1 Bft) O 85 0 min 0,000 mm 0,0 UV-I 0 W/m -0,4 C 3,2 C 8,0 km/h (2 Bft) 100,00 %
14.12.2017 21:08 3,1 C 3,9 C 77 % 1000,0 hPa 0,0 l/m 5,6 km/h (1 Bft) S 184 0 min 0,000 mm 0,0 UV-I 0 W/m -0,5 C 3,1 C 8,0 km/h (2 Bft) 100,00 %
14.12.2017 21:10 2,8 C 3,9 C 78 % 1000,1 hPa 0,0 l/m 6,6 km/h (2 Bft) W-SW 244 0 min 0,000 mm 0,0 UV-I 0 W/m -0,6 C 2,6 C 8,0 km/h (2 Bft) 100,00 %
14.12.2017 21:13 2,3 C 3,9 C 80 % 1000,1 hPa 0,0 l/m 4,4 km/h (1 Bft) SW 234 0 min 0,000 mm 0,0 UV-I 0 W/m -0,8 C 2,3 C 8,0 km/h (2 Bft) 98,46 %
14.12.2017 21:14 2,3 C 3,9 C 80 % 1000,1 hPa 0,0 l/m 4,0 km/h (1 Bft) SW 234 0 min 0,000 mm 0,0 UV-I 0 W/m -0,8 C 2,3 C 6,4 km/h (2 Bft) 100,00 %
14.12.2017 21:16 2,2 C 3,9 C 81 % 1000,1 hPa 0,0 l/m 3,2 km/h (1 Bft) S-SW 200 0 min 0,000 mm 0,0 UV-I 0 W/m -0,7 C 2,2 C 4,8 km/h (1 Bft) 97,92 %
14.12.2017 21:18 2,1 C 3,9 C 82 % 1000,0 hPa 0,0 l/m 1,6 km/h (1 Bft) S-SW 200 0 min 0,000 mm 0,0 UV-I 0 W/m -0,6 C 2,1 C 3,2 km/h (1 Bft) 97,87 %
14.12.2017 21:20 2,2 C 3,9 C 82 % 1000,0 hPa 0,0 l/m 1,3 km/h (1 Bft) S-SW 200 0 min 0,000 mm 0,0 UV-I 0 W/m -0,5 C 2,2 C 1,6 km/h (1 Bft) 96,15 %
14.12.2017 21:22 2,3 C 3,9 C 81 % 999,9 hPa 0,0 l/m 3,2 km/h (1 Bft) S-SO 150 0 min 0,000 mm 0,0 UV-I 0 W/m -0,6 C 2,3 C 6,4 km/h (2 Bft) 100,00 %
14.12.2017 21:24 2,2 C 3,9 C 81 % 999,8 hPa 0,0 l/m 5,3 km/h (1 Bft) S-SO 148 0 min 0,000 mm 0,0 UV-I 0 W/m -0,7 C 2,2 C 6,4 km/h (2 Bft) 98,04 %
14.12.2017 21:26 2,1 C 3,9 C 82 % 999,9 hPa 0,0 l/m 3,8 km/h (1 Bft) S-SW 200 0 min 0,000 mm 0,0 UV-I 0 W/m -0,6 C 2,1 C 6,4 km/h (2 Bft) 100,00 %
14.12.2017 21:28 2,2 C 3,9 C 82 % 999,9 hPa 0,0 l/m 2,8 km/h (1 Bft) S-SW 200 0 min 0,000 mm 0,0 UV-I 0 W/m -0,5 C 2,2 C 3,2 km/h (1 Bft) 100,00 %
14.12.2017 21:30 2,1 C 3,9 C 82 % 1000,0 hPa 0,0 l/m 3,4 km/h (1 Bft) S-SW 200 0 min 0,000 mm 0,0 UV-I 0 W/m -0,6 C 2,1 C 4,8 km/h (1 Bft) 100,00 %
14.12.2017 21:32 2,1 C 3,9 C 82 % 1000,0 hPa 0,0 l/m 2,6 km/h (1 Bft) S-SW 200 0 min 0,000 mm 0,0 UV-I 0 W/m -0,6 C 2,1 C 4,8 km/h (1 Bft) 100,00 %
14.12.2017 21:34 2,1 C 3,9 C 83 % 999,9 hPa 0,0 l/m 2,0 km/h (1 Bft) S-SW 200 0 min 0,000 mm 0,0 UV-I 0 W/m -0,5 C 2,1 C 4,8 km/h (1 Bft) 100,00 %
14.12.2017 21:36 2,0 C 3,9 C 83 % 999,8 hPa 0,0 l/m 2,6 km/h (1 Bft) S-SW 200 0 min 0,000 mm 0,0 UV-I 0 W/m -0,6 C 2,0 C 4,8 km/h (1 Bft) 97,87 %
14.12.2017 21:38 2,1 C 3,9 C 83 % 999,8 hPa 0,0 l/m 3,6 km/h (1 Bft) S-SW 201 0 min 0,000 mm 0,0 UV-I 0 W/m -0,5 C 2,1 C 6,4 km/h (2 Bft) 100,00 %
14.12.2017 21:40 1,9 C 3,9 C 83 % 999,7 hPa 0,0 l/m 4,9 km/h (1 Bft) W-SW 242 0 min 0,000 mm 0,0 UV-I 0 W/m -0,7 C 1,9 C 6,4 km/h (2 Bft) 94,29 %
14.12.2017 21:42 1,9 C 3,9 C 84 % 999,7 hPa 0,0 l/m 3,8 km/h (1 Bft) W-SW 242 0 min 0,000 mm 0,0 UV-I 0 W/m -0,5 C 1,9 C 4,8 km/h (1 Bft) 100,00 %
14.12.2017 21:44 1,9 C 3,9 C 83 % 999,7 hPa 0,0 l/m 2,5 km/h (1 Bft) S-SW 212 0 min 0,000 mm 0,0 UV-I 0 W/m -0,7 C 1,9 C 4,8 km/h (1 Bft) 95,74 %
14.12.2017 21:46 1,9 C 3,9 C 83 % 999,8 hPa 0,0 l/m 7,2 km/h (2 Bft) W-SW 256 0 min 0,000 mm 0,0 UV-I 0 W/m -0,7 C 1,1 C 12,9 km/h (3 Bft) 100,00 %
14.12.2017 21:48 1,9 C 3,9 C 83 % 999,7 hPa 0,0 l/m 3,3 km/h (1 Bft) SW 227 0 min 0,000 mm 0,0 UV-I 0 W/m -0,7 C 1,9 C 4,8 km/h (1 Bft) 100,00 %
14.12.2017 21:50 1,9 C 3,9 C 84 % 999,7 hPa 0,0 l/m 2,9 km/h (1 Bft) SW 227 0 min 0,000 mm 0,0 UV-I 0 W/m -0,5 C 1,9 C 4,8 km/h (1 Bft) 100,00 %
14.12.2017 21:52 1,9 C 3,9 C 84 % 999,8 hPa 0,0 l/m 4,4 km/h (1 Bft) S 189 0 min 0,000 mm 0,0 UV-I 0 W/m -0,5 C 1,9 C 6,4 km/h (2 Bft) 100,00 %
14.12.2017 21:54 2,1 C 3,9 C 84 % 999,7 hPa 0,0 l/m 2,0 km/h (1 Bft) S 186 0 min 0,000 mm 0,0 UV-I 0 W/m -0,3 C 2,1 C 3,2 km/h (1 Bft) 97,87 %
14.12.2017 21:56 2,2 C 3,9 C 84 % 999,7 hPa 0,0 l/m 2,2 km/h (1 Bft) S 186 0 min 0,000 mm 0,0 UV-I 0 W/m -0,2 C 2,2 C 4,8 km/h (1 Bft) 97,87 %
14.12.2017 21:58 2,3 C 3,9 C 83 % 999,7 hPa 0,0 l/m 2,8 km/h (1 Bft) S 186 0 min 0,000 mm 0,0 UV-I 0 W/m -0,3 C 2,3 C 4,8 km/h (1 Bft) 95,83 %
14.12.2017 22:00 2,4 C 3,9 C 83 % 999,7 hPa 0,0 l/m 4,0 km/h (1 Bft) S 186 0 min 0,000 mm 0,0 UV-I 0 W/m -0,2 C 2,4 C 6,4 km/h (2 Bft) 97,87 %
14.12.2017 22:03 2,5 C 3,9 C 82 % 999,9 hPa 0,0 l/m 4,7 km/h (1 Bft) S 173 0 min 0,000 mm 0,0 UV-I 0 W/m -0,3 C 2,5 C 8,0 km/h (2 Bft) 98,63 %
14.12.2017 22:04 2,5 C 3,9 C 82 % 999,8 hPa 0,0 l/m 5,8 km/h (2 Bft) S-SW 196 0 min 0,000 mm 0,0 UV-I 0 W/m -0,3 C 2,5 C 8,0 km/h (2 Bft) 100,00 %
14.12.2017 22:05 2,4 C 3,9 C 83 % 999,8 hPa 0,0 l/m 4,8 km/h (1 Bft) SW 225 0 min 0,000 mm 0,0 UV-I 0 W/m -0,2 C 2,4 C 8,0 km/h (2 Bft) 98,25 %
14.12.2017 22:08 2,4 C 3,9 C 83 % 999,7 hPa 0,0 l/m 4,9 km/h (1 Bft) S 182 0 min 0,000 mm 0,0 UV-I 0 W/m -0,2 C 2,4 C 6,4 km/h (2 Bft) 89,19 %
14.12.2017 22:10 2,6 C 3,9 C 83 % 999,7 hPa 0,0 l/m 4,6 km/h (1 Bft) S-SW 201 0 min 0,000 mm 0,0 UV-I 0 W/m 0,0 C 2,6 C 8,0 km/h (2 Bft) 100,00 %
14.12.2017 22:12 2,7 C 3,9 C 83 % 999,7 hPa 0,0 l/m 5,0 km/h (1 Bft) S-SO 162 0 min 0,000 mm 0,0 UV-I 0 W/m 0,1 C 2,7 C 8,0 km/h (2 Bft) 100,00 %
14.12.2017 22:14 2,8 C 3,9 C 82 % 999,6 hPa 0,0 l/m 5,7 km/h (1 Bft) S 183 0 min 0,000 mm 0,0 UV-I 0 W/m 0,0 C 2,8 C 11,3 km/h (2 Bft) 100,00 %
14.12.2017 22:16 3,2 C 3,9 C 82 % 999,6 hPa 0,0 l/m 7,7 km/h (2 Bft) S 190 0 min 0,000 mm 0,0 UV-I 0 W/m 0,4 C 2,0 C 19,3 km/h (3 Bft) 97,87 %
14.12.2017 22:18 3,6 C 3,9 C 80 % 999,5 hPa 0,0 l/m 5,8 km/h (2 Bft) S-SO 162 0 min 0,000 mm 0,0 UV-I 0 W/m 0,5 C 3,6 C 11,3 km/h (2 Bft) 100,00 %
14.12.2017 22:20 3,8 C 3,9 C 79 % 999,4 hPa 0,0 l/m 7,7 km/h (2 Bft) S-SW 194 0 min 0,000 mm 0,0 UV-I 0 W/m 0,5 C 2,6 C 16,1 km/h (3 Bft) 100,00 %
14.12.2017 22:22 4,1 C 3,9 C 78 % 999,4 hPa 0,0 l/m 5,4 km/h (1 Bft) SW 217 0 min 0,000 mm 0,0 UV-I 0 W/m 0,6 C 4,1 C 9,7 km/h (2 Bft) 98,00 %
14.12.2017 22:24 4,1 C 3,9 C 78 % 999,4 hPa 0,0 l/m 5,3 km/h (1 Bft) SW 232 0 min 0,000 mm 0,0 UV-I 0 W/m 0,6 C 4,1 C 8,0 km/h (2 Bft) 97,56 %
14.12.2017 22:26 3,9 C 3,9 C 78 % 999,3 hPa 0,0 l/m 5,5 km/h (1 Bft) SW 229 0 min 0,000 mm 0,0 UV-I 0 W/m 0,4 C 3,9 C 8,0 km/h (2 Bft) 97,78 %
14.12.2017 22:28 3,7 C 3,9 C 79 % 999,3 hPa 0,0 l/m 5,4 km/h (1 Bft) W-SW 240 0 min 0,000 mm 0,0 UV-I 0 W/m 0,4 C 3,7 C 9,7 km/h (2 Bft) 96,00 %
14.12.2017 22:30 3,7 C 3,9 C 79 % 999,3 hPa 0,0 l/m 7,5 km/h (2 Bft) S-SW 205 0 min 0,000 mm 0,0 UV-I 0 W/m 0,4 C 2,7 C 12,9 km/h (3 Bft) 96,15 %
14.12.2017 22:32 3,7 C 3,9 C 79 % 999,2 hPa 0,0 l/m 8,2 km/h (2 Bft) W-SW 246 0 min 0,000 mm 0,0 UV-I 0 W/m 0,4 C 2,1 C 11,3 km/h (2 Bft) 94,87 %
14.12.2017 22:34 3,8 C 3,9 C 79 % 999,2 hPa 0,0 l/m 8,2 km/h (2 Bft) S-SW 210 0 min 0,000 mm 0,0 UV-I 0 W/m 0,5 C 2,2 C 14,5 km/h (3 Bft) 98,11 %
14.12.2017 22:36 3,9 C 3,9 C 79 % 999,2 hPa 0,0 l/m 7,6 km/h (2 Bft) SW 221 0 min 0,000 mm 0,0 UV-I 0 W/m 0,6 C 2,8 C 11,3 km/h (2 Bft) 97,37 %
14.12.2017 22:38 3,9 C 3,9 C 79 % 999,2 hPa 0,0 l/m 8,5 km/h (2 Bft) SW 214 0 min 0,000 mm 0,0 UV-I 0 W/m 0,6 C 2,0 C 12,9 km/h (3 Bft) 98,21 %
14.12.2017 22:40 3,9 C 3,9 C 79 % 999,2 hPa 0,0 l/m 7,3 km/h (2 Bft) SW 218 0 min 0,000 mm 0,0 UV-I 0 W/m 0,6 C 3,1 C 11,3 km/h (2 Bft) 96,00 %
14.12.2017 22:42 3,8 C 3,9 C 80 % 999,2 hPa 0,0 l/m 7,2 km/h (2 Bft) SW 217 0 min 0,000 mm 0,0 UV-I 0 W/m 0,7 C 3,1 C 11,3 km/h (2 Bft) 97,37 %
14.12.2017 22:44 3,9 C 3,9 C 80 % 999,1 hPa 0,0 l/m 6,3 km/h (2 Bft) SW 217 0 min 0,000 mm 0,0 UV-I 0 W/m 0,8 C 3,9 C 9,7 km/h (2 Bft) 96,43 %
14.12.2017 22:46 4,1 C 3,9 C 79 % 999,1 hPa 0,0 l/m 6,0 km/h (2 Bft) SW 234 0 min 0,000 mm 0,0 UV-I 0 W/m 0,8 C 4,1 C 8,0 km/h (2 Bft) 100,00 %
14.12.2017 22:48 4,2 C 3,9 C 79 % 999,1 hPa 0,0 l/m 7,3 km/h (2 Bft) SW 224 0 min 0,000 mm 0,0 UV-I 0 W/m 0,9 C 3,4 C 9,7 km/h (2 Bft) 96,23 %
14.12.2017 22:50 4,3 C 3,9 C 79 % 999,0 hPa 0,0 l/m 4,9 km/h (1 Bft) W-SW 246 0 min 0,000 mm 0,0 UV-I 0 W/m 1,0 C 4,3 C 8,0 km/h (2 Bft) 95,12 %
14.12.2017 22:52 4,2 C 3,9 C 79 % 999,0 hPa 0,0 l/m 3,9 km/h (1 Bft) W-SW 246 0 min 0,000 mm 0,0 UV-I 0 W/m 0,9 C 4,2 C 4,8 km/h (1 Bft) 98,00 %
14.12.2017 22:54 4,2 C 3,9 C 79 % 998,9 hPa 0,0 l/m 2,5 km/h (1 Bft) W-SW 246 0 min 0,000 mm 0,0 UV-I 0 W/m 0,9 C 4,2 C 4,8 km/h (1 Bft) 97,87 %
14.12.2017 22:56 4,1 C 3,9 C 80 % 998,8 hPa 0,0 l/m 1,8 km/h (1 Bft) W-SW 239 0 min 0,000 mm 0,0 UV-I 0 W/m 1,0 C 4,1 C 3,2 km/h (1 Bft) 97,37 %
14.12.2017 22:58 4,1 C 3,9 C 80 % 998,8 hPa 0,0 l/m 0,9 km/h (0 Bft) W-SW 239 0 min 0,000 mm 0,0 UV-I 0 W/m 1,0 C 4,1 C 1,6 km/h (1 Bft) 98,11 %
14.12.2017 23:00 3,9 C 3,9 C 80 % 998,8 hPa 0,0 l/m 0,8 km/h (0 Bft) W-SW 239 0 min 0,000 mm 0,0 UV-I 0 W/m 0,8 C 3,9 C 3,2 km/h (1 Bft) 98,00 %
14.12.2017 23:02 3,7 C 3,9 C 82 % 998,7 hPa 0,0 l/m 3,4 km/h (1 Bft) S-SW 199 0 min 0,000 mm 0,0 UV-I 0 W/m 0,9 C 3,7 C 4,8 km/h (1 Bft) 100,00 %
14.12.2017 23:04 3,6 C 3,9 C 83 % 998,8 hPa 0,0 l/m 4,8 km/h (1 Bft) S-SW 213 0 min 0,000 mm 0,0 UV-I 0 W/m 1,0 C 3,6 C 6,4 km/h (2 Bft) 100,00 %
14.12.2017 23:06 3,7 C 3,9 C 82 % 998,8 hPa 0,0 l/m 4,5 km/h (1 Bft) SW 218 0 min 0,000 mm 0,0 UV-I 0 W/m 0,9 C 3,7 C 6,4 km/h (2 Bft) 97,87 %
14.12.2017 23:08 3,9 C 3,9 C 82 % 998,8 hPa 0,0 l/m 3,4 km/h (1 Bft) SW 219 0 min 0,000 mm 0,0 UV-I 0 W/m 1,1 C 3,9 C 6,4 km/h (2 Bft) 100,00 %
14.12.2017 23:10 3,9 C 3,9 C 81 % 998,7 hPa 0,0 l/m 2,3 km/h (1 Bft) SW 219 0 min 0,000 mm 0,0 UV-I 0 W/m 0,9 C 3,9 C 4,8 km/h (1 Bft) 97,87 %
14.12.2017 23:12 3,9 C 3,9 C 81 % 998,7 hPa 0,0 l/m 4,0 km/h (1 Bft) SW 219 0 min 0,000 mm 0,0 UV-I 0 W/m 0,9 C 3,9 C 4,8 km/h (1 Bft) 100,00 %
14.12.2017 23:14 3,8 C 3,9 C 81 % 998,7 hPa 0,0 l/m 4,9 km/h (1 Bft) SW 219 0 min 0,000 mm 0,0 UV-I 0 W/m 0,8 C 3,8 C 6,4 km/h (2 Bft) 98,00 %
14.12.2017 23:16 3,8 C 3,9 C 81 % 998,6 hPa 0,0 l/m 4,4 km/h (1 Bft) SW 221 0 min 0,000 mm 0,0 UV-I 0 W/m 0,8 C 3,8 C 4,8 km/h (1 Bft) 100,00 %
14.12.2017 23:18 3,6 C 3,9 C 82 % 998,7 hPa 0,0 l/m 4,3 km/h (1 Bft) SW 221 0 min 0,000 mm 0,0 UV-I 0 W/m 0,8 C 3,6 C 6,4 km/h (2 Bft) 97,87 %
14.12.2017 23:20 3,4 C 3,9 C 83 % 998,7 hPa 0,0 l/m 4,8 km/h (1 Bft) SW 221 0 min 0,000 mm 0,0 UV-I 0 W/m 0,8 C 3,4 C 6,4 km/h (2 Bft) 97,37 %
14.12.2017 23:22 3,5 C 3,9 C 83 % 998,6 hPa 0,0 l/m 4,0 km/h (1 Bft) SW 221 0 min 0,000 mm 0,0 UV-I 0 W/m 0,9 C 3,5 C 4,8 km/h (1 Bft) 100,00 %
14.12.2017 23:24 3,6 C 3,9 C 82 % 998,5 hPa 0,0 l/m 4,1 km/h (1 Bft) SW 221 0 min 0,000 mm 0,0 UV-I 0 W/m 0,8 C 3,6 C 4,8 km/h (1 Bft) 100,00 %
14.12.2017 23:26 3,7 C 3,9 C 82 % 998,5 hPa 0,0 l/m 4,0 km/h (1 Bft) SW 221 0 min 0,000 mm 0,0 UV-I 0 W/m 0,9 C 3,7 C 4,8 km/h (1 Bft) 100,00 %
14.12.2017 23:28 3,6 C 3,9 C 82 % 998,5 hPa 0,0 l/m 3,1 km/h (1 Bft) SW 221 0 min 0,000 mm 0,0 UV-I 0 W/m 0,8 C 3,6 C 4,8 km/h (1 Bft) 97,87 %
14.12.2017 23:30 3,6 C 3,9 C 82 % 998,5 hPa 0,0 l/m 2,9 km/h (1 Bft) SW 221 0 min 0,000 mm 0,0 UV-I 0 W/m 0,8 C 3,6 C 3,2 km/h (1 Bft) 95,65 %
14.12.2017 23:32 3,4 C 3,9 C 83 % 998,5 hPa 0,0 l/m 2,5 km/h (1 Bft) SW 221 0 min 0,000 mm 0,0 UV-I 0 W/m 0,8 C 3,4 C 3,2 km/h (1 Bft) 100,00 %
14.12.2017 23:34 3,3 C 3,9 C 83 % 998,5 hPa 0,0 l/m 1,7 km/h (1 Bft) SW 221 0 min 0,000 mm 0,0 UV-I 0 W/m 0,7 C 3,3 C 3,2 km/h (1 Bft) 100,00 %
14.12.2017 23:36 3,1 C 3,9 C 84 % 998,4 hPa 0,0 l/m 0,2 km/h (0 Bft) SW 221 0 min 0,000 mm 0,0 UV-I 0 W/m 0,7 C 3,1 C 1,6 km/h (1 Bft) 96,00 %
14.12.2017 23:38 3,1 C 3,9 C 84 % 998,3 hPa 0,0 l/m 0,0 km/h (0 Bft) SW 221 0 min 0,000 mm 0,0 UV-I 0 W/m 0,7 C 3,1 C 1,6 km/h (1 Bft) 100,00 %
14.12.2017 23:40 3,1 C 3,9 C 85 % 998,4 hPa 0,0 l/m 1,2 km/h (1 Bft) SW 221 0 min 0,000 mm 0,0 UV-I 0 W/m 0,8 C 3,1 C 3,2 km/h (1 Bft) 100,00 %
14.12.2017 23:42 3,0 C 3,9 C 85 % 998,5 hPa 0,0 l/m 2,4 km/h (1 Bft) SW 221 0 min 0,000 mm 0,0 UV-I 0 W/m 0,7 C 3,0 C 3,2 km/h (1 Bft) 100,00 %
14.12.2017 23:44 3,0 C 3,9 C 85 % 998,5 hPa 0,0 l/m 1,4 km/h (1 Bft) SW 221 0 min 0,000 mm 0,0 UV-I 0 W/m 0,7 C 3,0 C 3,2 km/h (1 Bft) 100,00 %
14.12.2017 23:46 3,1 C 3,9 C 85 % 998,4 hPa 0,0 l/m 0,0 km/h (0 Bft) SW 221 0 min 0,000 mm 0,0 UV-I 0 W/m 0,8 C 3,1 C 1,6 km/h (1 Bft) 100,00 %
14.12.2017 23:48 3,1 C 3,9 C 84 % 998,4 hPa 0,0 l/m 0,0 km/h (0 Bft) SW 221 0 min 0,000 mm 0,0 UV-I 0 W/m 0,7 C 3,1 C 0,0 km/h (0 Bft) 100,00 %
14.12.2017 23:50 2,9 C 3,9 C 85 % 998,4 hPa 0,0 l/m 0,0 km/h (0 Bft) SW 221 0 min 0,000 mm 0,0 UV-I 0 W/m 0,6 C 2,9 C 0,0 km/h (0 Bft) 100,00 %
14.12.2017 23:52 2,9 C 3,9 C 85 % 998,4 hPa 0,0 l/m 0,0 km/h (0 Bft) SW 221 0 min 0,000 mm 0,0 UV-I 0 W/m 0,6 C 2,9 C 0,0 km/h (0 Bft) 100,00 %
14.12.2017 23:54 2,8 C 3,9 C 86 % 998,2 hPa 0,0 l/m 0,1 km/h (0 Bft) SW 221 0 min 0,000 mm 0,0 UV-I 0 W/m 0,7 C 2,8 C 1,6 km/h (1 Bft) 100,00 %
14.12.2017 23:56 2,9 C 3,9 C 86 % 998,2 hPa 0,0 l/m 0,8 km/h (0 Bft) SW 221 0 min 0,000 mm 0,0 UV-I 0 W/m 0,8 C 2,9 C 3,2 km/h (1 Bft) 100,00 %
14.12.2017 23:58 2,8 C 3,9 C 85 % 998,4 hPa 0,0 l/m 0,0 km/h (0 Bft) SW 221 0 min 0,000 mm 0,0 UV-I 0 W/m 0,5 C 2,8 C 0,0 km/h (0 Bft) 97,56 %
_ Min-Zeit 01:12 00:00 13:36 23:54 - 00:02 - - - - - - 00:58 09:12 00:02 22:08
Minimum _ -1,6 C 3,9 C 67 % 998,2 hPa - 0,0 km/h (0 Bft) - - - - - - -2,5 C -10,1 C 0,0 km/h (0 Bft) 89,19 %
_ Max-Zeit 13:38 00:00 05:50 12:02 10:02 09:12 - - 00:00 12:00 00:00 13:30 09:08 13:38 09:12 00:00
Maximum _ 4,8 C 3,9 C 95 % 1005,2 hPa 0,8 l/m 35,3 km/h
W-SW (5 Bft)
- - 0 min 0,076 mm 0,0 UV-I 146 W/m 1,9 C 4,8 C 74,0 km/h
W (8 Bft)
100,00 %
Durchschnitt _ 2,0 C 3,9 C 83 % 1001,7 hPa #1,0 l/m 6,7 km/h (2 Bft) W-SW - #0 min. #0,381 mm 0,0 UV-I 48 W/m -0,6 C 0,3 C 11,2 km/h (2 Bft) 97,55 %